[[{"header":{"parameterUnit":"m.s-1","parameterCategory":1,"la1":31.0,"la2":29.5877,"lo1":-88.7671,"lo2":-86.6584,"dy":0.0162,"dx":0.0185,"nx":115,"ny":88,"refTime":"2023-08-24T06:00:00:Z","depth":0,"parameterNumber":2,"parameterNumberName":"U-component_of_WINDS"},"data":[0.0,0.0,0.0,0.0,0.0,0.0,0.0,0.0,0.0,0.0,0.0,0.0,0.0,0.0,0.0,0.0,0.0,0.0,0.0,0.0,0.0,0.0,0.0,0.0,0.0,0.0,0.0,0.0,0.0,0.0,0.0,0.0,0.0,0.0,0.0,0.0,0.0,0.0,0.0,0.0,0.0,0.0,0.0,0.0,0.0,0.0,0.0,0.0,0.0,0.0,0.0,0.0,0.0,0.0,0.0,0.0,0.0,0.0,0.0,0.0,0.0,0.0,0.0,0.0,0.0,0.0,0.0,0.0,0.0,0.0,0.0,0.0,0.0,0.0,0.0,0.0,0.0,0.0,0.0,0.0,0.0,0.0,0.0,0.0,0.0,0.0,0.0,0.0,0.0,0.0,0.0,0.0,0.0,0.0,0.0,0.0,0.0,0.0,0.0,0.0,0.0,0.0,0.0,0.0,0.0,0.0,0.0,0.0,0.0,0.0,0.0,0.0,0.0,0.0,0.0,0.0,0.0,0.0,0.0,0.0,0.0,0.0,0.0,0.0,0.0,0.0,0.0,0.0,0.0,0.0,0.0,0.0,0.0,0.0,0.0,0.0,0.0,0.0,0.0,0.0,0.0,0.0,0.0,0.0,0.0,0.0,0.0,0.0,0.0,0.0,0.0,0.0,0.0,0.0,0.0,0.0,0.0,0.0,0.0,0.0,0.0,0.0,0.0,0.0,0.0,0.0,0.0,0.0,0.0,0.0,0.0,0.0,0.0,0.0,0.0,0.0,0.0,0.0,0.0,0.0,0.0,0.0,0.0,0.0,0.0,0.0,0.0,0.0,0.0,0.0,0.0,0.0,0.0,0.0,0.0,0.0,0.0,0.0,0.0,0.0,0.0,0.0,0.0,0.0,0.0,0.0,0.0,0.0,0.0,0.0,0.0,0.0,0.0,0.0,0.0,0.0,0.0,0.0,0.0,0.0,0.0,0.0,0.0,0.0,0.0,0.0,0.0,0.0,0.0,0.0,0.0,0.0,0.0,0.0,0.0,0.0,0.0,0.0,0.0,0.0,0.0,0.0,0.0,0.0,0.0,0.0,0.0,0.0,0.0,0.0,0.0,0.0,0.0,0.0,0.0,0.0,0.0,0.0,0.0,0.0,0.0,0.0,0.0,0.0,0.0,0.0,0.0,0.0,0.0,0.0,0.0,0.0,0.0,0.0,0.0,0.0,0.0,0.0,0.0,0.0,0.0,0.0,0.0,0.0,0.0,0.0,0.0,0.0,0.0,0.0,0.0,0.0,0.0,0.0,0.0,0.0,0.0,0.0,0.0,0.0,0.0,0.0,0.0,0.0,0.0,0.0,0.0,0.0,0.0,0.0,0.0,0.0,0.0,0.0,0.0,0.0,0.0,0.0,0.0,0.0,0.0,0.0,0.0,0.0,0.0,0.0,0.0,0.0,0.0,0.0,0.0,0.0,0.0,0.0,0.0,0.0,0.0,0.0,0.0,0.0,0.0,0.0,0.0,0.0,0.0,0.0,0.0,0.0,0.0,0.0,0.0,0.0,0.0,0.0,0.0,0.0,0.0,0.0,0.0,0.0,0.0,0.0,0.0,0.0,0.0,0.0,0.0,0.0,0.0,0.0,0.0,0.0,0.0,0.0,0.0,0.0,0.0,0.0,0.0,0.0,0.0,0.0,0.0,0.0,0.0,0.0,0.0,0.0,0.0,0.0,0.0,0.0,0.0,0.0,0.0,0.0,0.0,0.0,0.0,0.0,0.0,0.0,0.0,0.0,0.0,0.0,0.0,0.0,0.0,0.0,0.0,0.0,0.0,0.0,0.0,0.0,0.0,0.0,0.0,0.0,0.0,0.0,0.0,0.0,0.0,0.0,0.0,0.0,0.0,0.0,0.0,0.0,0.0,0.0,0.0,0.0,0.0,0.0,0.0,0.0,0.0,0.0,0.0,0.0,0.0,0.0,0.0,0.0,0.0,0.0,0.0,0.0,0.0,0.0,0.0,0.0,0.0,0.0,0.0,0.0,0.0,0.0,0.0,0.0,0.0,0.0,0.0,0.0,0.0,0.0,0.0,0.0,0.0,0.0,0.0,0.0,0.0,0.0,0.0,0.0,0.0,0.0,0.0,0.0,0.0,0.0,0.0,0.0,0.0,0.0,0.0,0.0,0.0,0.0,0.0,0.0,0.0,0.0,0.0,0.0,0.0,0.0,0.0,0.0,0.0,0.0,0.0,0.0,0.0,0.0,0.0,0.0,0.0,0.0,0.0,0.0,0.0,0.0,0.0,0.0,0.0,0.0,0.0,0.0,0.0,0.0,0.0,0.0,0.0,0.0,0.0,0.0,0.0,0.0,0.0,0.0,0.0,0.0,0.0,0.0,0.0,0.0,0.0,0.0,0.0,0.0,0.0,0.0,0.0,0.0,0.0,0.0,0.0,0.0,0.0,0.0,0.0,0.0,0.0,0.0,0.0,0.0,0.0,0.0,0.0,0.0,0.0,0.0,0.0,0.0,0.0,0.0,0.0,0.0,0.0,0.0,0.0,0.0,0.0,0.0,0.0,0.0,0.0,0.0,0.0,0.0,0.0,0.0,0.0,0.0,0.0,0.0,0.0,0.0,0.0,0.0,0.0,0.0,0.0,0.0,0.0,0.0,0.0,0.0,0.0,0.0,0.0,0.0,0.0,0.0,0.0,0.0,0.0,0.0,0.0,0.0,0.0,0.0,0.0,0.0,0.0,0.0,0.0,0.0,0.0,0.0,0.0,0.0,0.0,0.0,0.0,0.0,0.0,0.0,0.0,0.0,0.0,0.0,0.0,0.0,0.0,0.0,0.0,0.0,0.0,0.0,0.0,0.0,0.0,0.0,0.0,0.0,0.0,0.0,0.0,0.0,0.0,0.0,0.0,0.0,0.0,0.0,0.0,0.0,0.0,0.0,0.0,0.0,0.0,0.0,0.0,0.0,0.0,0.0,0.0,0.0,0.0,0.0,0.0,0.0,0.0,0.0,0.0,0.0,0.0,0.0,0.0,0.0,0.0,0.0,0.0,0.0,0.0,0.0,0.0,0.0,0.0,0.0,0.0,0.0,0.0,0.0,0.0,0.0,0.0,0.0,0.0,0.0,0.0,0.0,0.0,0.0,0.0,0.0,0.0,0.0,0.0,0.0,0.0,0.0,0.0,0.0,0.0,0.0,0.0,0.0,0.0,0.0,0.0,0.0,0.0,0.0,0.0,0.0,0.0,0.0,0.0,0.0,0.0,0.0,0.0,0.0,0.0,0.0,0.0,0.0,0.0,0.0,0.0,0.0,0.0,0.0,0.0,0.0,0.0,0.0,0.0,0.0,0.0,0.0,0.0,0.0,0.0,0.0,0.0,0.0,0.0,0.0,0.0,0.0,0.0,0.0,0.0,0.0,0.0,0.0,0.0,0.0,0.0,0.0,0.0,0.0,0.0,0.0,0.0,0.0,0.0,0.0,0.0,0.0,0.0,0.0,0.0,0.0,0.0,0.0,0.0,0.0,0.0,0.0,0.0,0.0,0.0,0.0,0.0,0.0,0.0,0.0,0.0,0.0,0.0,0.0,0.0,0.0,0.0,0.0,0.0,0.0,0.0,0.0,0.0,0.0,0.0,0.0,0.0,0.0,0.0,0.0,0.0,0.0,0.0,0.0,0.0,0.0,0.0,0.0,0.0,0.0,0.0,0.0,0.0,0.0,0.0,0.0,0.0,0.0,0.0,0.0,0.0,0.0,0.0,0.0,0.0,0.0,0.0,0.0,0.0,0.0,0.0,0.0,0.0,0.0,0.0,0.0,0.0,0.0,0.0,0.0,0.0,0.0,0.0,0.0,0.0,0.0,0.0,0.0,0.0,0.0,0.0,0.0,0.0,0.0,0.0,0.0,0.0,0.0,0.0,0.0,0.0,0.0,0.0,0.0,0.0,0.0,0.0,0.0,0.0,0.0,0.0,0.0,0.0,0.0,0.0,0.0,0.0,0.0,0.0,0.0,0.0,0.0,0.0,0.0,0.0,0.0,0.0,0.0,0.0,0.0,0.0,0.0,0.0,0.0,0.0,0.0,0.0,0.0,0.0,0.0,0.0,0.0,0.0,0.0,0.0,0.0,0.0,0.0,0.0,0.0,0.0,0.0,0.0,0.0,0.0,0.0,0.0,0.0,0.0,0.0,0.0,0.0,0.0,0.0,0.0,0.0,0.0,0.0,0.0,0.0,0.0,0.0,0.0,0.0,0.0,0.0,0.0,0.0,-0.8122,0.0,0.0,0.0,0.0,0.0,0.0,0.0,0.0,0.0,0.0,0.0,0.0,0.0,0.0,0.0,0.0,0.0,0.0,0.0,0.0,0.0,0.0,0.0,0.0,0.0,0.0,0.0,0.0,0.0,0.0,0.0,0.0,0.0,0.0,0.0,0.0,0.0,0.0,0.0,0.0,0.0,0.0,0.0,0.0,0.0,0.0,0.0,0.0,0.0,0.0,0.0,0.0,0.0,0.0,0.0,0.0,0.0,0.0,0.0,0.0,0.0,0.0,0.0,0.0,0.0,0.0,0.0,0.0,0.0,0.0,0.0,0.0,0.0,0.0,0.0,0.0,0.0,0.0,0.0,0.0,0.0,0.0,0.0,0.0,0.0,0.0,0.0,0.0,0.0,0.0,0.0,0.0,0.0,0.0,0.0,0.0,0.0,0.0,0.0,0.0,0.0,0.0,0.0,0.0,0.0,0.0,0.0,0.0,0.0,0.0,-0.8995,-0.8923,-0.8844,-0.8665,-0.8378,0.0,0.0,0.0,0.0,0.0,0.0,0.0,0.0,0.0,0.0,0.0,0.0,0.0,0.0,0.0,0.0,0.0,0.0,0.0,0.0,0.0,0.0,0.0,0.0,0.0,0.0,0.0,0.0,0.0,0.0,0.0,0.0,0.0,0.0,0.0,0.0,0.0,0.0,0.0,0.0,0.0,0.0,0.0,0.0,0.0,0.0,0.0,0.0,0.0,0.0,0.0,0.0,0.0,0.0,0.0,0.0,0.0,0.0,0.0,0.0,0.0,0.0,0.0,0.0,0.0,0.0,0.0,0.0,0.0,0.0,0.0,0.0,0.0,0.0,0.0,0.0,0.0,0.0,0.0,0.0,0.0,0.0,0.0,0.0,0.0,0.0,0.0,0.0,0.0,0.0,0.0,0.0,0.0,0.0,0.0,0.0,0.0,0.0,0.0,0.0,0.0,0.0,0.0,0.0,0.0,0.0,0.0,0.0,0.0,0.0,0.0,0.0,-0.8883,-0.8699,-0.8448,0.0,0.0,0.0,0.0,0.0,0.0,0.0,0.0,0.0,0.0,0.0,0.0,0.0,0.0,0.0,0.0,0.0,0.0,0.0,0.0,0.0,0.0,0.0,0.0,0.0,0.0,0.0,0.0,0.0,0.0,0.0,0.0,0.0,0.0,0.0,0.0,0.0,0.0,0.0,0.0,0.0,0.0,0.0,0.0,0.0,0.0,0.0,0.0,0.0,0.0,0.0,0.0,0.0,0.0,0.0,0.0,0.0,0.0,0.0,0.0,0.0,0.0,0.0,0.0,0.0,0.0,0.0,0.0,0.0,0.0,0.0,0.0,0.0,0.0,0.0,0.0,0.0,0.0,0.0,0.0,0.0,0.0,0.0,0.0,0.0,0.0,0.0,0.0,0.0,0.0,0.0,0.0,0.0,0.0,0.0,0.0,0.0,0.0,0.0,0.0,0.0,0.0,0.0,0.0,0.0,0.0,0.0,0.0,0.0,0.0,-0.9439,-0.9185,-0.8929,0.0,-0.7964,0.0,0.0,0.0,0.0,0.0,0.0,0.0,0.0,0.0,0.0,0.0,0.0,0.0,0.0,0.0,0.0,0.0,0.0,0.0,0.0,0.0,0.0,0.0,0.0,0.0,0.0,0.0,0.0,0.0,0.0,0.0,0.0,0.0,0.0,0.0,0.0,0.0,0.0,0.0,0.0,0.0,0.0,0.0,0.0,0.0,0.0,0.0,0.0,0.0,0.0,0.0,0.0,0.0,0.0,0.0,0.0,0.0,0.0,0.0,0.0,0.0,0.0,0.0,0.0,0.0,0.0,0.0,0.0,0.0,0.0,0.0,0.0,0.0,0.0,0.0,0.0,0.0,0.0,0.0,0.0,0.0,0.0,0.0,0.0,0.0,0.0,0.0,0.0,0.0,0.0,0.0,0.0,0.0,0.0,0.0,0.0,0.0,0.0,0.0,0.0,0.0,0.0,0.0,0.0,0.0,0.0,0.0,0.0,0.0,0.0,-0.9836,-0.9439,-0.8949,-0.8441,0.0,0.0,0.0,0.0,0.0,0.0,0.0,0.0,0.0,0.0,0.0,0.0,0.0,0.0,0.0,0.0,0.0,0.0,0.0,0.0,0.0,0.0,0.0,0.0,0.0,0.0,0.0,0.0,0.0,0.0,0.0,0.0,0.0,0.0,0.0,0.0,0.0,0.0,0.0,0.0,0.0,0.0,0.0,0.0,0.0,0.0,0.0,0.0,0.0,0.0,0.0,0.0,0.0,0.0,0.0,0.0,0.0,0.0,0.0,0.0,0.0,0.0,0.0,0.0,0.0,0.0,0.0,0.0,0.0,0.0,0.0,0.0,0.0,0.0,0.0,0.0,0.0,0.0,0.0,0.0,0.0,0.0,0.0,0.0,0.0,0.0,0.0,0.0,0.0,0.0,0.0,0.0,0.0,0.0,0.0,0.0,0.0,0.0,0.0,0.0,0.0,0.0,0.0,0.0,0.0,0.0,0.0,0.0,0.0,0.0,-1.0423,-1.0233,-0.9556,-0.8942,-0.8342,-0.7796,0.0,0.0,0.0,0.0,0.0,0.0,0.0,0.0,0.0,0.0,0.0,0.0,0.0,0.0,0.0,0.0,0.0,0.0,0.0,0.0,0.0,0.0,0.0,0.0,0.0,0.0,0.0,0.0,0.0,0.0,0.0,0.0,0.0,0.0,0.0,0.0,0.0,0.0,0.0,0.0,0.0,0.0,0.0,0.0,0.0,0.0,0.0,0.0,0.0,0.0,0.0,0.0,0.0,0.0,0.0,0.0,0.0,0.0,0.0,0.0,0.0,0.0,0.0,0.0,0.0,0.0,0.0,0.0,0.0,0.0,0.0,0.0,0.0,0.0,0.0,0.0,0.0,0.0,0.0,0.0,0.0,0.0,0.0,0.0,0.0,0.0,0.0,0.0,0.0,0.0,0.0,0.0,0.0,0.0,0.0,0.0,0.0,0.0,0.0,0.0,0.0,0.0,0.0,0.0,0.0,0.0,0.0,0.0,-1.0687,-1.0986,-1.0597,-0.9459,-0.889,-0.8256,0.0,0.0,0.0,0.0,0.0,0.0,0.0,0.0,0.0,0.0,0.0,0.0,0.0,0.0,0.0,0.0,0.0,0.0,0.0,0.0,0.0,0.0,0.0,0.0,0.0,0.0,0.0,0.0,0.0,0.0,0.0,0.0,0.0,0.0,0.0,0.0,0.0,0.0,0.0,0.0,0.0,0.0,0.0,0.0,0.0,0.0,0.0,0.0,0.0,0.0,0.0,0.0,0.0,0.0,0.0,0.0,0.0,0.0,0.0,0.0,0.0,0.0,0.0,0.0,0.0,0.0,0.0,0.0,0.0,0.0,0.0,0.0,0.0,0.0,0.0,0.0,0.0,0.0,0.0,0.0,0.0,0.0,0.0,0.0,0.0,0.0,0.0,0.0,0.0,0.0,0.0,0.0,0.0,0.0,0.0,0.0,0.0,0.0,0.0,0.0,0.0,0.0,0.0,0.0,0.0,0.0,0.0,0.0,0.0,-1.1037,-1.084,-1.0408,-0.9673,-0.9139,-0.8474,0.0,0.0,0.0,0.0,0.0,0.0,0.0,0.0,0.0,0.0,0.0,0.0,0.0,0.0,0.0,0.0,0.0,0.0,0.0,0.0,0.0,0.0,0.0,0.0,0.0,0.0,0.0,0.0,0.0,0.0,0.0,0.0,0.0,0.0,0.0,0.0,0.0,0.0,0.0,0.0,0.0,0.0,0.0,0.0,0.0,0.0,0.0,0.0,0.0,0.0,0.0,0.0,0.0,0.0,0.0,0.0,0.0,0.0,0.0,0.0,0.0,0.0,0.0,0.0,0.0,0.0,0.0,0.0,0.0,0.0,0.0,0.0,0.0,0.0,0.0,0.0,0.0,0.0,0.0,0.0,0.0,0.0,0.0,0.0,0.0,0.0,0.0,0.0,0.0,0.0,0.0,0.0,0.0,0.0,0.0,0.0,0.0,0.0,0.0,0.0,0.0,0.0,0.0,0.0,0.0,0.0,0.0,0.0,0.0,-1.1635,0.0,-1.0467,-1.0002,-0.9394,-0.8653,0.0,0.0,0.0,0.0,0.0,0.0,0.0,0.0,0.0,0.0,0.0,0.0,0.0,0.0,0.0,0.0,0.0,0.0,0.0,0.0,0.0,0.0,0.0,0.0,0.0,0.0,0.0,0.0,0.0,0.0,0.0,0.0,0.0,0.0,0.0,0.0,0.0,0.0,0.0,0.0,0.0,0.0,0.0,0.0,0.0,0.0,0.0,0.0,0.0,0.0,0.0,0.0,0.0,0.0,0.0,0.0,0.0,0.0,0.0,0.0,0.0,0.0,0.0,0.0,0.0,0.0,0.0,0.0,0.0,0.0,0.0,0.0,0.0,0.0,0.0,0.0,0.0,0.0,0.0,0.0,0.0,0.0,0.0,0.0,0.0,0.0,0.0,0.0,0.0,0.0,0.0,0.0,0.0,0.0,0.0,0.0,0.0,0.0,0.0,0.0,0.0,0.0,0.0,0.0,0.0,0.0,0.0,0.0,-1.25,-1.2546,-1.1601,-1.0863,-1.0416,-0.9621,-0.8811,0.0,0.0,0.0,0.0,0.0,0.0,0.0,0.0,0.0,0.0,0.0,0.0,0.0,0.0,0.0,0.0,0.0,0.0,0.0,0.0,0.0,0.0,0.0,0.0,0.0,0.0,0.0,0.0,0.0,0.0,0.0,0.0,0.0,0.0,0.0,0.0,0.0,0.0,0.0,0.0,0.0,0.0,0.0,0.0,0.0,0.0,0.0,0.0,0.0,0.0,0.0,0.0,0.0,0.0,0.0,0.0,0.0,0.0,0.0,0.0,0.0,0.0,0.0,0.0,0.0,0.0,0.0,0.0,0.0,0.0,0.0,0.0,0.0,0.0,0.0,0.0,0.0,0.0,0.0,0.0,0.0,0.0,0.0,0.0,0.0,0.0,0.0,0.0,0.0,0.0,0.0,0.0,0.0,0.0,0.0,0.0,0.0,0.0,0.0,0.0,0.0,0.0,0.0,0.0,0.0,0.0,0.0,0.0,0.0,-1.2588,-1.17,-1.1049,-1.0603,-0.9867,-0.9079,0.0,0.0,0.0,0.0,0.0,0.0,0.0,0.0,0.0,0.0,0.0,0.0,0.0,0.0,0.0,0.0,0.0,0.0,0.0,0.0,0.0,0.0,0.0,0.0,0.0,0.0,0.0,0.0,0.0,0.0,0.0,0.0,0.0,0.0,0.0,0.0,0.0,0.0,0.0,0.0,0.0,0.0,0.0,0.0,0.0,0.0,0.0,0.0,0.0,0.0,0.0,0.0,0.0,0.0,0.0,0.0,0.0,0.0,0.0,0.0,0.0,0.0,0.0,0.0,0.0,0.0,0.0,0.0,0.0,0.0,0.0,0.0,0.0,0.0,0.0,0.0,0.0,0.0,0.0,0.0,0.0,0.0,0.0,0.0,0.0,0.0,0.0,0.0,0.0,0.0,0.0,0.0,0.0,0.0,0.0,0.0,0.0,0.0,0.0,0.0,0.0,0.0,0.0,0.0,0.0,0.0,0.0,0.0,0.0,-1.2474,-1.1779,-1.1192,-1.0871,-1.0087,-0.9328,-0.8567,0.0,0.0,0.0,0.0,0.0,0.0,0.0,0.0,0.0,0.0,0.0,0.0,0.0,0.0,0.0,0.0,0.0,0.0,0.0,0.0,0.0,0.0,0.0,0.0,0.0,0.0,0.0,0.0,0.0,0.0,0.0,0.0,0.0,0.0,0.0,0.0,0.0,0.0,0.0,0.0,0.0,0.0,0.0,0.0,0.0,0.0,0.0,0.0,0.0,0.0,0.0,0.0,0.0,0.0,0.0,0.0,0.0,0.0,0.0,0.0,0.0,0.0,0.0,0.0,0.0,0.0,0.0,0.0,0.0,0.0,0.0,0.0,0.0,0.0,0.0,0.0,0.0,0.0,0.0,0.0,0.0,0.0,0.0,0.0,0.0,0.0,0.0,0.0,0.0,0.0,0.0,0.0,0.0,0.0,0.0,0.0,0.0,0.0,0.0,0.0,0.0,0.0,0.0,0.0,0.0,0.0,0.0,0.0,-1.2367,-1.177,-1.1339,-1.1091,-1.0259,-0.951,0.0,0.0,0.0,0.0,0.0,0.0,0.0,0.0,0.0,0.0,0.0,0.0,0.0,0.0,0.0,0.0,0.0,0.0,0.0,0.0,0.0,0.0,0.0,0.0,0.0,0.0,0.0,0.0,0.0,0.0,0.0,0.0,0.0,0.0,0.0,0.0,0.0,0.0,0.0,0.0,0.0,0.0,0.0,0.0,0.0,0.0,0.0,0.0,0.0,0.0,0.0,0.0,0.0,0.0,0.0,0.0,0.0,0.0,0.0,0.0,0.0,0.0,0.0,0.0,0.0,0.0,0.0,0.0,0.0,0.0,0.0,0.0,0.0,0.0,0.0,0.0,0.0,0.0,0.0,0.0,0.0,0.0,0.0,0.0,0.0,0.0,0.0,0.0,0.0,0.0,0.0,0.0,0.0,0.0,0.0,0.0,0.0,0.0,0.0,0.0,0.0,0.0,0.0,0.0,0.0,0.0,0.0,0.0,0.0,-1.1994,-1.14,-1.1074,-1.1087,-1.0349,-0.9684,0.0,0.0,0.0,0.0,0.0,0.0,0.0,0.0,0.0,0.0,0.0,0.0,0.0,0.0,0.0,0.0,0.0,0.0,0.0,0.0,0.0,0.0,0.0,0.0,0.0,0.0,0.0,0.0,0.0,0.0,0.0,0.0,0.0,0.0,0.0,0.0,0.0,0.0,0.0,0.0,0.0,0.0,0.0,0.0,0.0,0.0,0.0,0.0,0.0,0.0,0.0,0.0,0.0,0.0,0.0,0.0,0.0,0.0,0.0,0.0,0.0,0.0,0.0,0.0,0.0,0.0,0.0,0.0,0.0,0.0,0.0,0.0,0.0,0.0,0.0,0.0,0.0,0.0,0.0,0.0,0.0,0.0,0.0,0.0,0.0,0.0,0.0,0.0,0.0,0.0,0.0,0.0,0.0,0.0,0.0,0.0,0.0,0.0,0.0,0.0,0.0,0.0,0.0,0.0,0.0,0.0,0.0,0.0,-1.1249,-1.1355,-1.095,-1.0705,-1.0629,-1.0169,-0.9666,0.0,0.0,0.0,0.0,0.0,0.0,0.0,0.0,0.0,0.0,0.0,0.0,0.0,0.0,0.0,0.0,0.0,0.0,0.0,0.0,0.0,0.0,0.0,0.0,0.0,0.0,0.0,0.0,0.0,0.0,0.0,0.0,0.0,0.0,0.0,0.0,0.0,0.0,0.0,0.0,0.0,0.0,0.0,0.0,0.0,0.0,0.0,0.0,0.0,0.0,0.0,0.0,0.0,0.0,0.0,0.0,0.0,0.0,0.0,0.0,0.0,0.0,0.0,0.0,0.0,0.0,0.0,0.0,0.0,0.0,0.0,0.0,0.0,0.0,0.0,0.0,0.0,0.0,0.0,0.0,0.0,0.0,0.0,0.0,0.0,0.0,0.0,0.0,0.0,0.0,0.0,0.0,0.0,0.0,0.0,0.0,0.0,0.0,0.0,0.0,0.0,0.0,0.0,0.0,0.0,0.0,0.0,0.0,-1.0687,-1.0565,-1.0465,-1.0244,-0.996,-0.9821,-0.9497,0.0,0.0,0.0,0.0,0.0,0.0,0.0,0.0,0.0,0.0,0.0,0.0,0.0,0.0,0.0,0.0,0.0,0.0,0.0,0.0,0.0,0.0,0.0,0.0,0.0,0.0,0.0,0.0,0.0,0.0,0.0,0.0,0.0,0.0,0.0,0.0,0.0,0.0,0.0,0.0,0.0,0.0,0.0,0.0,0.0,0.0,0.0,0.0,0.0,0.0,0.0,0.0,0.0,0.0,0.0,0.0,0.0,0.0,0.0,0.0,0.0,0.0,0.0,0.0,0.0,0.0,0.0,0.0,0.0,0.0,0.0,0.0,0.0,0.0,0.0,0.0,0.0,0.0,0.0,0.0,0.0,0.0,0.0,0.0,0.0,0.0,0.0,0.0,0.0,0.0,0.0,0.0,0.0,0.0,0.0,0.0,0.0,0.0,0.0,0.0,0.0,0.0,0.0,0.0,0.0,0.0,0.0,0.0,-1.0379,-1.0364,-0.9994,-0.9712,-0.955,-0.9484,-0.9243,0.0,0.0,0.0,0.0,0.0,0.0,0.0,0.0,0.0,0.0,0.0,0.0,0.0,0.0,0.0,0.0,0.0,0.0,0.0,0.0,0.0,0.0,0.0,0.0,0.0,0.0,0.0,0.0,0.0,0.0,0.0,0.0,0.0,0.0,0.0,0.0,0.0,0.0,0.0,0.0,0.0,0.0,0.0,0.0,0.0,0.0,0.0,0.0,-0.3757,0.0,0.0,0.0,0.0,0.0,0.0,0.0,0.0,0.0,0.0,0.0,0.0,0.0,0.0,0.0,0.0,0.0,0.0,0.0,0.0,0.0,0.0,0.0,0.0,0.0,0.0,0.0,0.0,0.0,0.0,0.0,0.0,0.0,0.0,0.0,0.0,0.0,0.0,0.0,0.0,0.0,0.0,0.0,0.0,0.0,0.0,0.0,0.0,0.0,0.0,0.0,0.0,0.0,0.0,0.0,0.0,0.0,0.0,0.0,-0.9988,-0.9701,-0.9512,-0.9316,-0.914,-0.8988,-0.8804,0.0,0.0,0.0,0.0,0.0,0.0,0.0,0.0,0.0,0.0,0.0,0.0,0.0,0.0,0.0,0.0,0.0,0.0,0.0,0.0,0.0,0.0,0.0,0.0,0.0,0.0,0.0,0.0,0.0,0.0,0.0,0.0,0.0,0.0,0.0,0.0,0.0,0.0,0.0,0.0,0.0,0.0,0.0,0.0,0.0,0.0,0.0,0.0,0.0,0.0,0.0,0.0,0.0,0.0,0.0,0.0,0.0,0.0,0.0,0.0,0.0,0.0,0.0,0.0,0.0,0.0,0.0,0.0,0.0,0.0,0.0,0.0,0.0,0.0,0.0,0.0,0.0,0.0,0.0,0.0,0.0,0.0,0.0,0.0,0.0,0.0,0.0,0.0,0.0,0.0,0.0,0.0,0.0,0.0,0.0,0.0,0.0,0.0,0.0,0.0,0.0,0.0,0.0,0.0,0.0,0.0,0.0,-0.9872,-0.9623,-0.9132,-0.9122,-0.9035,-0.8778,-0.8507,-0.8348,-0.8295,0.0,0.0,0.0,0.0,0.0,0.0,0.0,0.0,0.0,0.0,0.0,0.0,0.0,0.0,0.0,0.0,0.0,0.0,0.0,0.0,0.0,0.0,0.0,0.0,0.0,0.0,0.0,0.0,0.0,0.0,0.0,0.0,0.0,0.0,0.0,0.0,0.0,0.0,-0.931,-0.9607,0.0,0.0,0.0,0.0,0.0,0.0,0.0,0.0,-0.5305,0.0,0.0,0.0,0.0,0.0,0.0,0.0,0.0,0.0,0.0,0.0,0.0,0.0,0.0,0.0,0.0,0.0,0.0,0.0,0.0,0.0,0.0,0.0,0.0,0.0,0.0,0.0,0.0,0.0,0.0,0.0,0.0,0.0,0.0,0.0,0.0,0.0,0.0,0.0,0.0,0.0,0.0,0.0,0.0,0.0,0.0,0.0,0.0,0.0,0.0,0.0,0.0,0.0,0.0,0.0,0.0,-1.0445,-0.9978,-0.9676,-0.9582,-0.9126,-0.8784,-0.8633,-0.8374,-0.8109,-0.783,0.0,0.0,0.0,0.0,0.0,0.0,0.0,0.0,0.0,0.0,0.0,0.0,0.0,0.0,0.0,0.0,0.0,0.0,0.0,0.0,0.0,0.0,0.0,0.0,0.0,0.0,0.0,0.0,0.0,0.0,0.0,0.0,0.0,0.0,0.0,0.0,0.0,0.0,0.0,-1.0401,-1.0355,0.0,0.0,0.0,0.0,0.0,0.0,0.0,0.0,-0.5644,0.0,0.0,0.0,0.0,0.0,0.0,0.0,0.0,0.0,0.0,0.0,0.0,0.0,0.0,0.0,0.0,0.0,0.0,0.0,0.0,0.0,0.0,0.0,0.0,0.0,0.0,0.0,0.0,0.0,0.0,0.0,0.0,0.0,0.0,0.0,0.0,0.0,0.0,0.0,0.0,0.0,0.0,0.0,0.0,0.0,0.0,0.0,0.0,0.0,0.0,0.0,0.0,0.0,0.0,0.0,-1.0314,-0.9921,-0.9627,-0.9431,-0.9025,-0.8712,-0.8494,-0.8209,-0.7876,0.0,0.0,0.0,0.0,0.0,0.0,0.0,0.0,0.0,0.0,0.0,0.0,0.0,0.0,0.0,0.0,0.0,0.0,0.0,0.0,0.0,0.0,0.0,0.0,0.0,0.0,0.0,0.0,0.0,0.0,0.0,0.0,0.0,0.0,0.0,0.0,0.0,0.0,0.0,0.0,-1.0822,-1.0964,-1.1233,0.0,0.0,0.0,0.0,0.0,0.0,-0.7493,-0.6888,0.0,0.0,0.0,0.0,0.0,0.0,0.0,0.0,0.0,0.0,0.0,0.0,0.0,0.0,0.0,0.0,0.0,0.0,0.0,0.0,0.0,0.0,0.0,0.0,0.0,0.0,0.0,0.0,0.0,0.0,0.0,0.0,0.0,0.0,0.0,0.0,0.0,0.0,0.0,0.0,0.0,0.0,0.0,0.0,0.0,0.0,0.0,0.0,0.0,0.0,0.0,0.0,0.0,0.0,0.0,-1.017,-0.9875,-0.9573,-0.9304,-0.8971,-0.8672,-0.8395,-0.8117,-0.7777,0.0,0.0,0.0,0.0,0.0,0.0,0.0,0.0,0.0,0.0,0.0,0.0,0.0,0.0,0.0,0.0,0.0,0.0,0.0,0.0,0.0,0.0,0.0,0.0,0.0,0.0,0.0,0.0,0.0,0.0,0.0,0.0,0.0,0.0,0.0,0.0,0.0,0.0,0.0,0.0,0.0,-1.1368,-1.1767,-1.1439,0.0,0.0,0.0,0.0,-0.9121,-0.8643,0.0,0.0,0.0,0.0,0.0,0.0,0.0,0.0,0.0,0.0,0.0,0.0,0.0,0.0,0.0,0.0,0.0,0.0,0.0,0.0,0.0,0.0,0.0,0.0,0.0,0.0,0.0,0.0,0.0,0.0,0.0,0.0,0.0,0.0,0.0,0.0,0.0,0.0,0.0,0.0,0.0,0.0,0.0,0.0,0.0,0.0,0.0,0.0,0.0,0.0,0.0,0.0,0.0,0.0,0.0,0.0,-1.051,-0.9997,-0.9681,-0.9627,-0.9092,-0.8672,-0.8408,-0.8255,-0.8015,0.0,0.0,0.0,0.0,0.0,0.0,0.0,0.0,0.0,0.0,0.0,0.0,0.0,0.0,0.0,0.0,0.0,0.0,0.0,0.0,0.0,0.0,0.0,0.0,0.0,0.0,0.0,0.0,0.0,0.0,0.0,0.0,0.0,0.0,0.0,0.0,0.0,0.0,0.0,0.0,0.0,-1.1368,-1.1598,-1.1635,-1.146,0.0,0.0,-1.0428,-0.9926,-0.9475,0.0,0.0,0.0,0.0,0.0,0.0,0.0,0.0,0.0,0.0,0.0,0.0,0.0,0.0,0.0,0.0,0.0,0.0,0.0,0.0,0.0,0.0,0.0,0.0,0.0,0.0,0.0,0.0,0.0,0.0,0.0,0.0,0.0,0.0,0.0,0.0,0.0,0.0,0.0,0.0,0.0,0.0,0.0,0.0,0.0,0.0,0.0,0.0,0.0,0.0,0.0,0.0,0.0,0.0,0.0,-1.0142,-1.0399,-0.995,-0.9701,-0.9687,-0.9112,-0.8705,-0.8507,-0.8381,-0.827,0.0,0.0,0.0,0.0,0.0,0.0,0.0,0.0,0.0,0.0,0.0,0.0,0.0,0.0,0.0,0.0,0.0,0.0,0.0,0.0,0.0,0.0,0.0,0.0,0.0,0.0,0.0,0.0,0.0,0.0,0.0,0.0,0.0,0.0,0.0,0.0,0.0,0.0,0.0,0.0,0.0,0.0,-1.1559,-1.1745,0.0,0.0,0.0,-1.1175,-1.0849,0.0,0.0,0.0,0.0,0.0,0.0,0.0,0.0,0.0,0.0,0.0,0.0,0.0,0.0,0.0,0.0,0.0,0.0,0.0,0.0,0.0,0.0,0.0,0.0,0.0,0.0,0.0,0.0,0.0,0.0,0.0,0.0,0.0,0.0,0.0,0.0,0.0,0.0,0.0,0.0,0.0,0.0,0.0,0.0,0.0,0.0,0.0,0.0,0.0,0.0,0.0,0.0,0.0,0.0,0.0,0.0,0.0,-1.0303,-0.9936,-0.9701,-0.96,-0.9192,-0.8858,-0.8659,-0.858,0.0,0.0,0.0,0.0,0.0,0.0,0.0,0.0,0.0,0.0,0.0,0.0,0.0,0.0,0.0,0.0,0.0,0.0,0.0,0.0,0.0,0.0,0.0,0.0,0.0,0.0,0.0,-0.6231,0.0,0.0,0.0,0.0,0.0,0.0,0.0,0.0,0.0,0.0,0.0,0.0,0.0,0.0,-1.0901,-1.1282,-1.1544,-1.1717,0.0,0.0,-1.1538,-1.1408,-1.0852,-1.0239,0.0,0.0,0.0,0.0,0.0,0.0,0.0,0.0,0.0,0.0,0.0,0.0,0.0,0.0,0.0,0.0,0.0,0.0,0.0,0.0,0.0,0.0,0.0,0.0,0.0,0.0,0.0,0.0,0.0,0.0,0.0,0.0,0.0,0.0,0.0,0.0,0.0,0.0,0.0,0.0,0.0,0.0,0.0,0.0,0.0,0.0,0.0,0.0,0.0,0.0,0.0,0.0,0.0,0.0,-1.0259,-1.0366,-1.006,-0.9736,-0.9439,-0.9379,-0.9167,-0.8804,-0.891,-0.9058,0.0,0.0,0.0,0.0,0.0,0.0,0.0,0.0,0.0,0.0,0.0,0.0,0.0,0.0,0.0,0.0,0.0,0.0,0.0,0.0,0.0,0.0,0.0,0.0,0.0,0.0,0.0,0.0,0.0,0.0,0.0,0.0,0.0,0.0,0.0,0.0,0.0,0.0,0.0,0.0,0.0,-1.0251,-1.0546,-1.081,-1.0986,0.0,0.0,-1.1306,-1.1311,-1.1043,-1.0684,-1.0205,0.0,0.0,0.0,0.0,0.0,0.0,0.0,0.0,0.0,0.0,0.0,0.0,0.0,0.0,0.0,0.0,0.0,0.0,0.0,0.0,0.0,0.0,0.0,0.0,0.0,0.0,0.0,0.0,0.0,0.0,0.0,0.0,0.0,0.0,0.0,0.0,0.0,0.0,0.0,0.0,0.0,0.0,0.0,0.0,0.0,0.0,0.0,0.0,0.0,0.0,0.0,0.0,0.0,-1.0217,-1.0278,-0.9898,-0.9704,-0.9701,-0.9415,-0.9341,-0.9465,-0.9514,-0.9784,0.0,0.0,0.0,0.0,0.0,0.0,0.0,0.0,0.0,0.0,0.0,0.0,0.0,0.0,0.0,0.0,0.0,0.0,0.0,0.0,0.0,0.0,0.0,0.0,0.0,0.0,0.0,0.0,-0.7799,-0.8097,-0.8624,0.0,0.0,0.0,0.0,0.0,0.0,0.0,0.0,0.0,0.0,-1.0155,-1.0249,-1.0591,0.0,0.0,-1.1176,-1.1309,-1.145,-1.1144,-1.0732,-1.0274,-0.9902,0.0,0.0,0.0,0.0,0.0,0.0,0.0,0.0,0.0,0.0,0.0,0.0,0.0,0.0,0.0,0.0,0.0,0.0,0.0,0.0,0.0,0.0,0.0,0.0,0.0,0.0,0.0,0.0,0.0,0.0,0.0,0.0,0.0,0.0,0.0,0.0,0.0,0.0,0.0,0.0,0.0,0.0,0.0,0.0,0.0,0.0,0.0,0.0,0.0,0.0,0.0,0.0,-1.0219,-1.0156,-0.985,-0.9696,-0.9738,-0.9611,-0.9667,-0.9955,-1.0101,-1.0436,0.0,0.0,0.0,0.0,0.0,0.0,0.0,0.0,0.0,0.0,0.0,0.0,0.0,0.0,0.0,0.0,0.0,0.0,0.0,0.0,0.0,0.0,0.0,0.0,0.0,0.0,0.0,0.0,-0.8331,-0.8533,-0.9027,0.0,0.0,0.0,0.0,0.0,0.0,0.0,0.0,0.0,0.0,-0.9728,-0.9809,-1.0226,-1.0616,-1.0893,-1.105,-1.119,-1.1361,-1.111,-1.0747,-1.0392,0.0,0.0,0.0,0.0,0.0,0.0,0.0,0.0,0.0,0.0,0.0,0.0,0.0,0.0,0.0,0.0,0.0,0.0,0.0,0.0,0.0,0.0,0.0,0.0,0.0,0.0,0.0,0.0,0.0,0.0,-1.081,0.0,0.0,0.0,0.0,0.0,0.0,0.0,0.0,0.0,0.0,0.0,0.0,0.0,0.0,0.0,0.0,0.0,0.0,0.0,0.0,0.0,0.0,-1.029,-1.0107,-0.9954,-0.974,-0.9448,-0.9979,-1.0221,-1.012,-1.0551,-1.0936,-1.1271,0.0,0.0,0.0,0.0,0.0,0.0,0.0,0.0,0.0,0.0,0.0,0.0,0.0,0.0,0.0,0.0,0.0,0.0,0.0,0.0,0.0,0.0,0.0,0.0,0.0,0.0,-0.9012,-0.8839,-0.8765,0.0,0.0,0.0,0.0,0.0,0.0,0.0,0.0,0.0,0.0,-0.8817,-0.8924,-0.9204,-0.962,-1.0032,-1.0302,-1.0643,-1.091,-1.0927,-1.0923,-1.0837,0.0,0.0,0.0,0.0,0.0,0.0,0.0,0.0,0.0,0.0,0.0,0.0,0.0,0.0,0.0,0.0,0.0,0.0,0.0,0.0,0.0,0.0,0.0,0.0,0.0,0.0,0.0,-1.1875,-1.1663,0.0,0.0,0.0,0.0,0.0,0.0,0.0,0.0,0.0,0.0,0.0,-1.3721,-1.3674,0.0,0.0,0.0,0.0,0.0,0.0,0.0,0.0,0.0,0.0,0.0,0.0,-1.03,-1.0123,-1.002,-0.9947,-0.9892,-1.0113,-1.0401,-1.0751,-1.0922,-1.1256,-1.1821,0.0,0.0,0.0,0.0,0.0,0.0,0.0,0.0,0.0,0.0,0.0,0.0,0.0,0.0,0.0,0.0,0.0,0.0,0.0,0.0,0.0,0.0,0.0,0.0,0.0,-0.915,0.0,0.0,0.0,0.0,0.0,0.0,0.0,0.0,0.0,0.0,0.0,-0.88,-0.88,-0.8922,-0.9043,-0.9123,-0.9522,-0.986,0.0,0.0,0.0,0.0,0.0,0.0,0.0,0.0,0.0,0.0,0.0,0.0,0.0,0.0,-0.7895,-0.8049,-0.7817,-0.7536,-0.7384,0.0,0.0,0.0,0.0,0.0,0.0,0.0,0.0,0.0,0.0,0.0,0.0,0.0,0.0,-1.288,0.0,-1.224,0.0,0.0,0.0,0.0,0.0,0.0,0.0,0.0,-1.3072,-1.3377,-1.3693,-1.372,-1.3775,0.0,-1.3443,-1.2847,0.0,0.0,0.0,0.0,0.0,0.0,0.0,0.0,-1.0285,-1.0145,-0.9997,-0.9956,-1.0079,-1.0356,-1.0741,-1.1189,-1.1447,-1.1842,-1.2401,-1.2655,-1.2692,0.0,0.0,0.0,0.0,0.0,0.0,0.0,0.0,0.0,0.0,0.0,0.0,0.0,0.0,0.0,0.0,0.0,0.0,0.0,0.0,0.0,0.0,0.0,-0.9419,0.0,0.0,0.0,0.0,0.0,0.0,0.0,0.0,0.0,-0.8439,-0.8567,-0.8693,-0.8693,-0.8809,-0.8932,-0.9013,0.0,0.0,0.0,0.0,0.0,0.0,0.0,-1.0475,-1.0343,-1.0134,-0.9895,-0.9656,-0.921,-0.8832,-0.8668,0.0,0.0,-0.8318,-0.7931,-0.7539,-0.7358,-0.6801,-0.6297,-0.6117,-0.5796,-0.54,0.0,0.0,0.0,0.0,0.0,0.0,0.0,0.0,-1.3472,-1.3368,0.0,-1.2859,0.0,0.0,0.0,0.0,0.0,-1.2566,0.0,0.0,-1.3002,-1.3239,-1.3226,-1.3298,-1.3331,-1.3331,-1.2949,-1.267,-1.2478,-1.251,0.0,0.0,0.0,0.0,0.0,0.0,-1.0285,-1.0195,-0.9976,-0.9907,-1.0055,-1.0737,-1.1183,-1.141,-1.2098,-1.2615,-1.2957,-1.2863,-1.2977,-1.3267,-1.2921,0.0,0.0,0.0,0.0,0.0,0.0,0.0,0.0,0.0,0.0,0.0,0.0,0.0,0.0,0.0,0.0,0.0,0.0,0.0,0.0,-0.9795,0.0,0.0,0.0,0.0,0.0,0.0,0.0,0.0,0.0,0.0,-0.8526,-0.8509,-0.8509,-0.8502,0.0,0.0,0.0,0.0,-0.9282,-0.9486,-0.9681,-0.9812,-0.9812,-0.9809,-0.9809,-0.9812,0.0,0.0,-0.943,-0.9127,-0.8902,-0.8881,-0.8613,-0.837,-0.8027,-0.7355,-0.6825,-0.677,-0.6107,-0.5512,-0.5457,-0.5173,-0.4744,-1.2151,0.0,0.0,0.0,0.0,-1.2955,-1.316,-1.3404,-1.32,-1.3081,-1.2946,-1.2681,0.0,0.0,0.0,0.0,0.0,0.0,-1.1548,-1.1568,-1.1682,-1.1863,-1.2083,-1.2104,-1.222,-1.238,-1.2287,-1.2203,-1.214,-1.2035,-1.1896,-1.1806,0.0,0.0,0.0,0.0,-1.0572,-1.0309,-1.0473,-1.0626,-1.0723,-1.1066,-1.1375,-1.1607,-1.2054,-1.24,-1.2637,-1.2969,-1.32,-1.3314,-1.3282,0.0,0.0,0.0,0.0,0.0,0.0,0.0,0.0,0.0,0.0,0.0,0.0,0.0,0.0,0.0,0.0,0.0,0.0,0.0,-1.0072,-0.96,-0.9258,0.0,0.0,0.0,0.0,0.0,0.0,0.0,0.0,0.0,-0.8777,-0.8618,-0.8509,0.0,0.0,-0.8668,-0.8755,-0.9099,-0.9362,-0.9417,-0.9622,0.0,-0.9789,-0.9789,-0.9789,-0.9789,-0.9651,-0.9406,-0.9103,-0.8968,-0.8826,-0.8654,-0.8214,-0.7744,-0.7457,-0.7054,-0.6668,-0.6424,-0.5541,-0.4828,-0.4772,-0.4349,-0.3763,-1.0678,-1.1136,-1.1298,-1.1552,-1.1858,-1.2001,-1.2317,-1.2732,-1.2644,-1.2625,-1.2623,-1.231,-1.1961,-1.1584,-1.1192,0.0,0.0,0.0,-1.0753,-1.0753,-1.0905,-1.1086,-1.1283,-1.1397,-1.1532,-1.1695,-1.1695,-1.1624,-1.1513,-1.1403,-1.127,-1.1118,0.0,0.0,-1.0741,-1.0692,-1.0588,-1.0439,-1.0767,-1.104,-1.1257,-1.1683,-1.2071,-1.2403,-1.2477,-1.2604,-1.2806,-1.3013,-1.3146,-1.3146,-1.3226,-1.3158,0.0,0.0,0.0,0.0,0.0,0.0,0.0,0.0,0.0,0.0,0.0,-1.2436,-1.2266,0.0,0.0,0.0,-1.0749,-1.0192,-0.9862,-0.9352,0.0,0.0,0.0,0.0,0.0,0.0,0.0,-0.8871,-0.8909,-0.8909,-0.8906,-0.875,-0.8662,-0.8665,-0.8743,-0.8774,-0.8774,0.0,-0.9185,-0.9213,-0.9323,-0.9434,-0.9458,-0.9458,-0.943,-0.9458,-0.9323,-0.913,-0.8968,-0.8823,-0.8704,-0.8521,-0.7942,-0.731,-0.6937,-0.6324,-0.5819,-0.5734,-0.4786,-0.3948,-0.3808,-0.3279,-0.2673,-0.9077,-0.8951,-0.9835,-1.0356,-1.0595,-1.0912,-1.1329,-1.1786,-1.1862,-1.2023,-1.2221,-1.1785,-1.1451,-1.1111,-1.0499,0.0,-1.0176,-1.013,-1.0111,-1.012,-1.048,-1.0653,-1.0676,-1.0907,-1.1027,-1.1027,-1.1027,-1.0907,-1.0676,-1.0653,-1.0565,-1.0399,-1.0716,-1.0909,-1.0937,-1.0543,-1.0431,-1.0611,-1.0897,-1.1246,-1.1686,-1.2505,-1.3121,-1.3449,-1.319,-1.3083,-1.3246,-1.3045,-1.2909,-1.2918,-1.2884,-1.2912,-1.2973,0.0,0.0,0.0,0.0,0.0,0.0,0.0,0.0,0.0,0.0,0.0,0.0,0.0,0.0,0.0,-1.0191,0.0,-0.9554,-0.9072,0.0,0.0,0.0,-0.8771,-0.8552,-0.8723,-0.8871,-0.8909,0.0,0.0,-0.8909,-0.8909,-0.8909,-0.8909,-0.8909,-0.8909,-0.8909,-0.8906,-0.8909,-0.8937,-0.8909,-0.8909,-0.8964,-0.8968,-0.8964,-0.8964,-0.8909,-0.8909,-0.8885,-0.8704,-0.8586,-0.8555,-0.7806,-0.6977,-0.6431,-0.532,-0.4508,-0.4678,-0.3782,-0.2913,-0.2716,-0.2184,-0.1673,-0.8655,-0.8463,-0.8697,-0.9057,-0.9477,-0.9571,-1.0031,-1.074,-1.0776,-1.087,-1.1037,-1.0921,-1.0477,-0.9764,-0.9713,-0.9486,-0.9167,-0.9244,-0.9286,-0.9286,-0.9397,-0.9437,-0.9414,-0.9484,-0.9531,-0.9526,-0.9531,-0.9503,-0.9437,-0.9437,-0.9391,-0.9387,-0.9644,-1.0054,-1.0591,-1.055,-1.0651,-1.0916,-1.1112,-1.161,-1.2338,-1.2869,-1.3187,-1.3286,-1.3192,-1.3122,-1.3077,-1.2994,-1.2951,-1.2902,-1.2794,-1.2749,-1.2778,-1.2923,0.0,0.0,0.0,0.0,0.0,0.0,0.0,0.0,0.0,-1.2248,-1.1739,0.0,-1.1531,0.0,-1.0117,-0.9451,-0.9027,-0.868,0.0,0.0,-0.8535,-0.8515,-0.8632,-0.8693,-0.8811,-0.8899,-0.8909,-0.8909,-0.8909,-0.8909,-0.8909,-0.8909,-0.8909,-0.8909,-0.8909,-0.8909,-0.8909,-0.8909,-0.8909,-0.8909,-0.8909,-0.8909,-0.8909,-0.8909,-0.8909,-0.8909,-0.8909,-0.878,-0.8495,-0.8007,-0.7198,-0.6453,-0.5816,-0.4701,-0.3729,-0.3276,-0.2606,-0.2103,-0.1991,-0.1542,-0.1036,-0.8177,-0.7993,-0.7993,-0.8189,-0.8532,-0.8667,-0.9056,-0.9587,-0.9611,-0.9693,-0.988,-0.9762,-0.9445,-0.8999,-0.8984,-0.8819,-0.8609,-0.8753,-0.8812,-0.8835,-0.8885,-0.8896,-0.8916,-0.8916,-0.8916,-0.8896,-0.892,-0.892,-0.8916,-0.892,-0.8916,-0.8896,-0.906,-0.9467,-1.0074,-1.0412,-1.0673,-1.0968,-1.1723,-1.2449,-1.3153,-1.349,-1.3587,-1.3457,-1.3353,-1.3185,-1.3008,-1.285,-1.2711,-1.2604,-1.2518,-1.2485,-1.2514,-1.2624,-1.258,0.0,0.0,0.0,0.0,0.0,0.0,0.0,0.0,0.0,0.0,0.0,-1.0777,-1.0142,-0.9476,-0.8956,-0.8651,-0.8382,-0.8272,-0.8384,-0.833,-0.8386,-0.8584,-0.8669,-0.8771,-0.8896,-0.8909,-0.8909,-0.8909,-0.8909,-0.8909,-0.8909,-0.8909,-0.8909,-0.8909,-0.8909,-0.8909,-0.8909,-0.8909,-0.8909,-0.8909,-0.8909,-0.8909,-0.8909,-0.8909,-0.8881,-0.874,-0.8524,-0.8198,-0.7601,-0.6752,-0.5917,-0.5237,-0.4192,-0.3167,-0.2438,-0.1822,-0.1374,-0.1206,-0.0841,-0.042,-0.782,-0.7655,-0.7658,-0.7705,-0.7852,-0.8127,-0.8373,-0.8557,-0.8581,-0.8718,-0.8937,-0.8672,-0.8539,-0.8497,-0.8359,-0.8276,-0.8237,-0.8425,-0.8527,-0.8531,-0.8639,-0.8701,-0.8701,-0.8705,-0.8701,-0.8701,-0.8701,-0.8697,-0.8673,-0.8673,-0.8701,-0.8676,-0.8726,-0.9002,-0.9488,-1.0094,-1.0571,-1.0962,-1.2295,-1.3286,-1.3837,-1.4047,-1.4021,-1.3752,-1.3527,-1.326,-1.2909,-1.2628,-1.2357,-1.2126,-1.2111,-1.2132,-1.2156,-1.2156,-1.2044,0.0,-1.18,0.0,0.0,0.0,0.0,0.0,0.0,0.0,0.0,-1.0219,-0.9891,-0.9158,-0.8659,-0.8382,-0.8357,-0.8137,-0.7988,-0.8017,-0.816,-0.8332,-0.8465,-0.8601,-0.872,-0.8865,-0.8909,-0.8909,-0.8909,-0.8909,-0.8909,-0.8909,-0.8909,-0.8909,-0.8909,-0.8909,-0.8909,-0.8909,-0.8909,-0.8909,-0.8909,-0.8909,-0.8909,-0.8909,-0.8854,-0.8768,-0.854,-0.8177,-0.7749,-0.7244,-0.6386,-0.5485,-0.4782,-0.374,-0.2719,-0.1907,-0.129,-0.0785,-0.0533,-0.0252,0.0,-0.7953,-0.7932,-0.7932,-0.7949,-0.7969,-0.8037,-0.8196,-0.8441,-0.8441,-0.8543,-0.8678,-0.8443,-0.8243,-0.8047,-0.8176,-0.8086,-0.7897,-0.8052,-0.8124,-0.8121,-0.8124,-0.8137,-0.8162,-0.8162,-0.8162,-0.8162,-0.8162,-0.8162,-0.8137,-0.8137,-0.8159,-0.8162,-0.8382,-0.8627,-0.8973,0.0,0.0,0.0,-1.2015,-1.282,-1.3536,-1.3763,-1.3762,-1.3555,-1.3514,0.0,-1.2467,-1.2367,-1.2137,-1.1671,-1.1691,0.0,0.0,0.0,0.0,0.0,0.0,0.0,0.0,0.0,0.0,0.0,-0.9022,-0.9265,-0.9424,-0.9234,-0.8949,-0.8581,-0.846,-0.8308,-0.8113,-0.8038,-0.7988,-0.7992,-0.804,-0.8162,-0.8471,-0.8539,-0.8632,-0.8875,-0.8909,-0.8909,-0.8909,-0.8909,-0.8909,-0.8909,-0.8909,-0.8909,-0.8909,-0.8909,-0.8909,-0.8909,-0.8909,-0.8909,-0.8909,-0.8909,-0.8909,-0.8881,-0.8681,-0.8567,-0.8436,-0.7881,-0.7324,-0.6904,-0.5983,-0.5057,-0.4387,-0.3259,-0.2187,-0.1514,-0.0925,-0.0476,-0.0392,-0.0168,0.0,-0.7988,0.0,-0.7988,-0.7988,0.0,-0.7988,-0.8091,-0.8209,-0.8212,-0.8245,-0.829,-0.8208,-0.8076,-0.7959,-0.8066,-0.8024,-0.7905,-0.7979,-0.7988,-0.7988,-0.7988,-0.7988,-0.7988,-0.7988,-0.7988,-0.7988,-0.7988,-0.7988,-0.7988,-0.7988,-0.7988,-0.7988,-0.8137,-0.8407,-0.8796,-0.9472,-1.0336,-1.1452,-1.2157,-1.2799,-1.3274,-1.3532,-1.3482,-1.317,0.0,0.0,0.0,0.0,0.0,0.0,0.0,0.0,0.0,0.0,0.0,-0.9994,-0.9724,-0.9292,-0.8618,-0.8556,-0.8358,-0.79,-0.794,-0.8188,-0.8751,-0.868,-0.8506,-0.8237,-0.8209,-0.8137,-0.8013,-0.7988,-0.7988,-0.7988,-0.7988,-0.8131,-0.8421,-0.8509,-0.8601,-0.8845,-0.8909,-0.8909,-0.8909,-0.8909,-0.8909,-0.8909,-0.8909,-0.8909,-0.8909,-0.8909,-0.8909,-0.8909,-0.8909,-0.8909,-0.8909,-0.8909,-0.8826,-0.874,-0.8595,-0.8318,-0.7931,-0.7539,-0.7022,-0.6261,-0.5386,-0.4567,-0.377,-0.2761,-0.1823,-0.1234,-0.0729,-0.0364,-0.0252,-0.0084,0.0,-0.7988,-0.7988,-0.7988,-0.7988,-0.7988,-0.7988,-0.7988,-0.7988,0.0,0.0,0.0,-0.7988,-0.7988,-0.7988,-0.7988,-0.7988,-0.7988,-0.7988,-0.7988,-0.7988,-0.7988,-0.7988,-0.7988,-0.7988,-0.7988,-0.7988,-0.7988,-0.7988,-0.7988,-0.7988,-0.7988,-0.7988,-0.7988,-0.8258,-0.88,-0.9595,-1.0437,-1.1292,-1.2102,-1.2638,-1.2905,-1.3177,-1.3062,-1.2568,-1.234,-1.1929,-1.1348,-1.096,-1.0614,-1.0306,-1.0137,-0.9968,-0.9772,-0.9493,-0.9279,-0.9104,-0.8818,-0.8416,-0.7764,-0.7701,-0.7521,-0.7187,-0.7174,-0.7487,-0.8209,-0.8262,-0.8187,-0.8013,-0.7988,-0.7988,-0.7988,-0.7988,-0.7988,-0.7988,-0.7988,-0.8131,-0.8461,-0.8509,-0.8598,-0.8845,-0.8909,-0.8909,-0.8909,-0.8909,-0.8909,-0.8909,-0.8909,-0.8909,-0.8909,-0.8909,-0.8909,-0.8909,-0.8909,-0.8881,-0.8854,-0.8823,-0.8712,-0.8457,-0.8318,-0.8011,-0.7404,-0.7015,-0.646,-0.5547,-0.4786,-0.4007,-0.3139,-0.2272,-0.1542,-0.0953,-0.0561,-0.028,0.0,0.0,0.0,-0.7988,-0.7988,-0.7988,-0.7988,-0.7988,-0.7988,-0.7988,-0.7988,-0.7988,-0.7988,-0.7988,-0.7988,-0.7988,-0.7988,-0.7988,-0.7988,-0.7988,-0.7988,-0.7988,0.0,-0.7988,-0.7988,-0.7988,-0.7988,-0.7988,-0.7988,-0.7988,-0.7988,-0.7988,-0.7988,-0.7988,-0.7988,-0.7988,-0.8283,-0.8825,-0.9595,-1.0068,-1.024,-1.1002,-1.1658,-1.2151,-1.2414,-1.2247,-1.1643,-1.1571,-1.1033,-0.9948,-0.9842,-0.9598,-0.9152,-0.913,-0.9004,-0.8811,-0.8556,-0.8372,-0.8362,-0.8046,-0.774,-0.7385,-0.727,-0.7153,-0.7048,-0.7027,-0.722,-0.7658,-0.7718,-0.7793,-0.7967,-0.7988,-0.7988,-0.7988,-0.7988,-0.7988,-0.7988,-0.7988,-0.8131,-0.8442,-0.8509,-0.8594,-0.8858,-0.8909,-0.8909,-0.8909,-0.8909,-0.8909,-0.8909,-0.8909,-0.8909,-0.8881,-0.8909,-0.8909,-0.8909,-0.8909,-0.8795,-0.8598,-0.854,-0.8377,-0.81,-0.7684,-0.7349,-0.7096,-0.6318,-0.5569,-0.5041,-0.4231,-0.339,-0.2523,-0.1823,-0.1177,-0.0617,-0.028,0.0,0.0,0.0,0.0,-0.7988,-0.7988,-0.7988,-0.7988,-0.7988,-0.7988,-0.7988,-0.7988,-0.7988,-0.7988,-0.7988,-0.7988,-0.7988,-0.7988,-0.7988,-0.7988,-0.7988,-0.7988,-0.7988,-0.7988,-0.7988,-0.7988,-0.7988,-0.7988,-0.7988,-0.7988,-0.7988,-0.7988,-0.7988,-0.7988,-0.7988,-0.8013,-0.8283,-0.8552,-0.8825,-0.9447,-0.9772,-0.9801,-1.058,-1.1096,-1.137,-1.1609,-1.1535,-1.1078,-1.0857,-1.0385,-0.9668,-0.9267,-0.8945,-0.8764,-0.8632,-0.8541,-0.8428,-0.8181,-0.798,-0.7824,-0.759,-0.7164,-0.663,-0.6374,-0.6227,-0.619,-0.6353,-0.6605,-0.6933,-0.7344,-0.7646,-0.7768,-0.7917,-0.7988,-0.7988,-0.7988,-0.7988,-0.7988,-0.7988,-0.8104,-0.8355,-0.8468,-0.857,-0.875,-0.8862,-0.8909,-0.8909,-0.8909,-0.8909,-0.8909,-0.8909,-0.8854,-0.8712,-0.8681,-0.8681,-0.8681,-0.8681,-0.8543,-0.8291,-0.8072,-0.7906,-0.7598,-0.7099,-0.6624,-0.629,-0.5455,-0.4814,-0.4258,-0.3447,-0.2691,-0.2047,-0.1346,-0.0785,-0.0504,-0.0196,0.0,0.0,0.0,0.0,-0.7988,-0.7988,-0.7988,-0.7988,-0.7988,-0.7988,-0.7988,-0.7988,-0.7988,-0.7988,-0.7988,-0.7988,-0.7988,-0.7988,-0.7988,-0.7988,-0.7988,-0.7988,-0.7988,-0.7988,-0.7988,-0.7988,-0.7988,-0.7988,-0.7988,-0.7988,-0.7988,-0.7988,-0.7988,-0.7988,-0.7988,-0.8063,-0.8531,-0.88,-0.8829,-0.9324,-0.9579,-0.9554,-1.0117,-1.0458,-1.0531,-1.0781,-1.0754,-1.038,-1.0047,-0.969,-0.9306,-0.8757,-0.8426,-0.838,-0.822,-0.8153,-0.813,-0.7872,-0.7641,-0.7433,-0.7125,-0.6635,-0.5902,-0.5569,-0.5426,-0.5424,-0.5671,-0.5964,-0.6314,-0.6992,-0.7497,-0.7596,-0.7839,-0.7988,-0.7988,-0.7988,-0.7988,-0.7988,-0.7988,-0.8084,-0.8277,-0.8396,-0.8519,-0.8638,-0.8737,-0.8811,-0.8848,-0.8834,-0.8813,-0.8816,-0.8823,-0.8712,-0.846,-0.8349,-0.8294,-0.8235,-0.8235,-0.8152,-0.7878,-0.7518,-0.7213,-0.6932,-0.629,-0.5761,-0.5232,-0.4674,-0.4005,-0.3363,-0.2692,-0.2019,-0.1542,-0.0953,-0.0476,-0.0308,-0.014,0.0,0.0,0.0,0.0,-0.7988,-0.7988,-0.7988,-0.7988,-0.7988,-0.7988,-0.7988,-0.7988,-0.7988,-0.7988,-0.7988,-0.7988,-0.7988,-0.7988,-0.7988,-0.7988,-0.7988,-0.7988,-0.7988,-0.7988,-0.7988,-0.7988,-0.7988,-0.7988,-0.7988,-0.7988,-0.7988,-0.7988,-0.7988,-0.7988,-0.7988,-0.8063,-0.8531,-0.8775,-0.885,-0.9299,-0.948,-0.9236,-0.9311,-0.948,-0.9727,-0.9994,-0.9804,-0.9192,-0.9144,-0.8771,-0.8202,-0.7989,-0.7875,-0.7691,-0.7701,-0.7674,-0.7651,-0.7409,-0.7265,-0.72,-0.6619,-0.5999,-0.535,-0.5247,-0.52,-0.5227,-0.5256,-0.5516,-0.6014,-0.657,-0.7095,-0.7497,-0.7842,-0.7988,-0.7988,-0.7988,-0.7988,-0.7988,-0.7988,-0.8074,-0.8253,-0.8308,-0.8372,-0.8486,-0.8537,-0.86,-0.8706,-0.8716,-0.8662,-0.8585,-0.8515,-0.838,-0.8072,-0.7795,-0.7537,-0.7429,-0.7487,-0.7487,-0.7235,-0.6763,-0.6318,-0.5931,-0.5204,-0.4702,-0.4365,-0.3779,-0.3025,-0.2551,-0.2047,-0.1486,-0.0925,-0.042,-0.0308,0.0,0.0,0.0,0.0,0.0,0.0,-0.7988,-0.7988,-0.7988,-0.7988,-0.7988,-0.7988,-0.7988,-0.7988,-0.7988,-0.7988,-0.7988,-0.7988,-0.7988,-0.7988,-0.7988,-0.7988,-0.7988,-0.7988,-0.7988,-0.7988,-0.7988,-0.7988,-0.7988,-0.7988,-0.7988,-0.7988,-0.7988,-0.7988,-0.7988,-0.7988,-0.7988,-0.8038,-0.8382,-0.8552,-0.8577,-0.8952,-0.9076,-0.8956,-0.8956,-0.8952,-0.8907,-0.915,-0.9165,-0.8907,-0.8728,-0.8531,-0.8226,-0.8049,-0.7907,-0.7834,-0.7667,-0.7597,-0.7594,-0.7344,-0.7049,-0.6732,-0.5869,-0.5246,-0.4958,-0.4661,-0.4562,-0.4713,-0.5016,-0.5365,-0.5764,-0.6539,-0.7138,-0.7366,-0.7736,-0.7988,-0.7988,-0.7988,-0.7988,-0.7988,-0.7988,-0.804,-0.8098,-0.824,-0.8325,-0.8383,-0.8457,-0.8522,-0.8574,-0.8525,-0.8469,-0.8425,-0.8235,-0.7839,-0.754,-0.7127,-0.6707,-0.6326,-0.6007,-0.5955,-0.6163,-0.5734,-0.526,-0.4925,-0.4283,-0.3667,-0.3388,-0.2857,-0.2186,-0.1739,-0.1346,-0.0981,-0.0561,-0.0252,0.0,0.0,0.0,0.0,0.0,0.0,0.0,-0.7988,-0.7988,-0.7988,-0.7988,-0.7988,-0.7988,-0.7988,-0.7988,-0.7988,-0.7988,-0.7988,-0.7988,-0.7988,-0.7988,-0.7988,-0.7988,-0.7988,-0.7988,-0.7988,-0.7988,-0.7988,-0.7988,-0.7988,-0.7988,-0.7988,-0.7988,-0.7988,-0.7988,-0.7988,-0.7988,-0.7988,-0.8038,-0.8258,-0.8382,-0.8407,-0.8676,-0.8775,-0.8701,-0.8701,-0.8552,-0.8354,-0.8482,-0.8577,-0.8552,-0.8407,-0.8283,-0.8283,-0.8038,-0.7892,-0.7889,-0.7621,-0.7444,-0.7372,-0.7116,-0.6686,-0.6012,-0.5236,-0.4709,-0.451,-0.4108,-0.4009,-0.4311,-0.474,-0.5163,-0.5687,-0.6512,-0.7092,-0.7238,-0.7686,-0.7988,-0.7988,-0.7988,-0.7988,-0.7988,-0.7988,-0.7988,-0.8002,-0.8147,-0.823,-0.8243,-0.8282,-0.8355,-0.8327,-0.8282,-0.8225,-0.7949,-0.7625,-0.7199,-0.6783,-0.6247,-0.5732,-0.5345,-0.4581,-0.4475,-0.5123,-0.4692,-0.4231,-0.3863,-0.3277,-0.2661,-0.2353,-0.185,-0.1458,-0.1121,-0.0645,-0.0392,-0.028,-0.0084,0.0,0.0,0.0,0.0,0.0,0.0,0.0,-0.7988,-0.7988,-0.7988,-0.7988,-0.7988,-0.7988,-0.7988,-0.7988,-0.7988,-0.7988,-0.7988,-0.7988,-0.7988,-0.7988,-0.7988,-0.7988,-0.7988,-0.7988,-0.7988,-0.7988,-0.7988,-0.7988,-0.7988,-0.7988,-0.7988,-0.7988,-0.7988,-0.7988,-0.7988,-0.7988,-0.7988,-0.8013,-0.8237,-0.8382,-0.8407,-0.8627,-0.8651,-0.8432,-0.8404,-0.8283,-0.8066,-0.8063,-0.8088,-0.8063,-0.8038,-0.8041,-0.7988,-0.7768,-0.7621,-0.7621,-0.7341,-0.7089,-0.6867,-0.6564,-0.5934,-0.5035,-0.4811,-0.4462,-0.3811,-0.3685,-0.3759,-0.4008,-0.4361,-0.4813,-0.5611,-0.6414,-0.6967,-0.7213,-0.769,-0.7988,-0.7988,-0.7988,-0.7988,-0.7988,-0.7988,-0.7988,-0.7988,-0.803,-0.7998,-0.8033,-0.8014,-0.8015,-0.7962,-0.804,-0.7651,-0.7181,-0.6857,-0.6547,-0.5809,-0.5186,-0.4727,-0.4291,-0.3734,-0.338,-0.4134,-0.3743,-0.3166,-0.2824,-0.2387,-0.1791,-0.1457,-0.1121,-0.0841,0.0,-0.0448,-0.028,-0.0112,0.0,0.0,0.0,0.0,0.0,0.0,0.0,0.0,-0.7988,-0.7988,-0.7988,-0.7988,-0.7988,-0.7988,-0.7988,-0.7988,-0.7988,-0.7988,-0.7988,-0.7988,-0.7988,-0.7988,-0.7988,-0.7988,-0.7988,-0.7988,-0.7988,-0.7988,-0.7988,-0.7988,-0.7988,-0.7988,-0.7988,-0.7988,-0.7988,-0.7988,-0.7988,-0.7988,-0.7988,-0.8013,-0.8088,-0.8137,-0.8162,-0.8237,-0.8237,-0.8162,-0.8134,-0.8088,-0.8013,-0.7988,-0.7988,-0.7988,-0.7988,-0.7917,-0.7768,-0.7643,-0.7447,-0.7119,-0.6839,-0.6562,-0.6267,-0.5712,-0.5135,-0.4587,-0.4212,-0.391,-0.3635,-0.3611,-0.371,-0.4009,-0.4587,-0.5165,-0.5839,-0.6564,-0.7163,-0.7444,-0.7764,-0.7988,-0.7988,-0.7988,-0.7988,-0.7988,-0.7988,-0.7988,-0.7988,-0.7988,-0.7988,-0.7963,-0.7842,-0.7726,-0.7582,-0.7357,-0.7,-0.6595,-0.6112,-0.5523,-0.4888,-0.4279,-0.3758,-0.3254,-0.2644,-0.2203,-0.2267,-0.2404,-0.2156,-0.1845,-0.1473,-0.1154,-0.0828,-0.0724,-0.0474,0.0,0.0,0.0,0.0,0.0,0.0,0.0,0.0,0.0,0.0,0.0,0.0,-0.7988,-0.7988,-0.7988,-0.7988,-0.7988,-0.7988,-0.7988,-0.7988,-0.7988,-0.7988,-0.7988,-0.7988,-0.7988,-0.7988,-0.7988,-0.7988,-0.7988,-0.7988,-0.804,-0.8088,-0.8113,-0.8115,-0.8152,-0.8159,-0.8159,-0.8148,-0.8108,-0.8091,-0.8091,-0.8116,-0.8111,-0.8159,-0.8118,-0.8113,-0.8084,-0.8044,-0.7988,-0.7988,-0.7988,-0.7988,-0.7988,-0.7988,-0.7988,-0.7988,-0.7942,-0.7793,-0.7593,-0.7344,-0.7067,-0.6664,-0.6239,-0.5864,-0.5466,-0.4887,-0.4435,-0.4137,-0.3811,-0.3611,-0.3611,-0.3611,-0.381,-0.4234,-0.4836,-0.5466,-0.6089,-0.6789,-0.7288,-0.7568,-0.7842,-0.7988,-0.7988,-0.7988,-0.7988,-0.7988,-0.7988,-0.7988,-0.7988,-0.7917,-0.7814,-0.7715,-0.7565,-0.7387,-0.7126,-0.6686,-0.6287,-0.5945,-0.5252,-0.4601,-0.4026,-0.3398,-0.2869,-0.2347,-0.1826,-0.1388,-0.1289,-0.1325,-0.135,-0.1095,-0.1021,-0.0649,0.0,0.0,0.0,0.0,0.0,0.0,0.0,0.0,0.0,0.0,0.0,0.0,0.0,0.0,0.0,-0.7988,-0.7963,-0.7988,-0.7988,-0.7988,-0.7988,-0.7988,-0.7988,-0.7988,-0.7988,-0.7988,-0.7988,-0.7988,-0.7988,-0.7988,-0.7992,-0.8012,-0.804,-0.813,-0.8241,-0.8291,-0.8336,-0.8438,-0.8461,-0.8461,-0.8435,-0.8355,-0.8298,-0.8298,-0.8298,-0.8355,-0.8444,-0.8323,-0.8294,-0.8294,-0.815,-0.8015,-0.8054,-0.806,-0.8047,-0.7992,-0.8012,-0.7987,-0.7955,-0.7728,-0.7547,-0.7519,-0.6839,-0.6437,-0.6262,-0.5639,-0.4966,-0.4514,-0.416,-0.391,-0.3685,-0.3586,-0.3611,-0.3611,-0.3662,-0.4059,-0.4611,-0.5062,-0.5639,-0.6337,-0.6914,-0.7363,-0.7643,-0.7842,-0.7988,-0.7988,-0.7988,-0.7988,-0.7988,-0.7963,-0.7939,-0.7917,-0.7743,-0.7497,-0.725,-0.7147,-0.6939,-0.6495,-0.611,-0.5647,-0.4943,-0.4389,-0.381,-0.3207,-0.2572,-0.1999,-0.1594,-0.1218,-0.0839,-0.0608,-0.0431,-0.044,-0.0421,-0.0451,0.0,0.0,0.0,0.0,0.0,0.0,0.0,0.0,0.0,0.0,0.0,0.0,0.0,0.0,0.0,0.0,-0.7565,-0.7718,-0.7721,-0.7842,-0.7988,-0.7988,-0.7988,-0.7988,-0.7988,-0.7988,-0.7988,-0.7988,-0.7988,-0.7988,-0.7992,-0.8074,-0.8194,-0.8226,-0.8253,-0.8311,-0.8396,-0.8442,-0.8509,-0.8512,-0.8509,-0.8502,-0.8464,-0.8444,-0.8444,-0.8444,-0.8471,-0.8492,-0.8468,-0.8444,-0.844,-0.8367,-0.8343,-0.8347,-0.8343,-0.8347,-0.8307,-0.8063,-0.7937,-0.7877,-0.7372,-0.6967,-0.6789,-0.6537,-0.6137,-0.5616,-0.5163,-0.4611,-0.3986,-0.3759,-0.3608,-0.3383,-0.3509,-0.3611,-0.3685,-0.4112,-0.4485,-0.491,-0.5536,-0.6162,-0.6664,-0.7169,-0.7568,-0.7817,-0.7963,-0.7988,-0.7988,-0.7988,-0.8002,-0.7992,-0.7817,-0.7731,-0.7644,-0.7331,-0.7011,-0.6791,-0.6541,-0.6178,-0.5791,-0.5424,-0.4876,-0.4144,-0.3663,-0.3157,-0.2324,-0.192,-0.1439,-0.0884,-0.0606,0.0,0.0,0.0,0.0,0.0,0.0,0.0,0.0,0.0,0.0,0.0,0.0,0.0,0.0,0.0,0.0,0.0,0.0,0.0,0.0,0.0,0.0,-0.7313,-0.7466,-0.7466,-0.7593,-0.7842,-0.7867,-0.7917,-0.7988,-0.7988,-0.7988,-0.7988,-0.7988,-0.7988,-0.7988,-0.7988,-0.8101,-0.8291,-0.8345,-0.841,-0.8435,-0.8516,-0.8591,-0.8642,-0.8652,-0.8615,-0.857,-0.8567,-0.8567,-0.8567,-0.857,-0.8594,-0.8638,-0.8598,-0.8594,-0.8557,-0.8509,-0.8509,-0.8482,-0.8374,-0.8299,-0.8256,-0.7975,-0.7778,-0.7714,-0.7229,-0.6833,-0.6573,-0.6366,-0.5895,-0.5128,-0.4611,-0.4059,-0.3509,-0.3534,-0.351,-0.3458,-0.3608,-0.3835,-0.4061,-0.451,-0.501,-0.5411,-0.6037,-0.6614,-0.702,-0.7447,-0.7731,-0.8041,-0.8104,-0.8147,-0.8169,-0.8052,-0.8001,-0.8001,-0.7806,-0.7576,-0.735,-0.6907,-0.6497,-0.6238,-0.5981,-0.5543,-0.5067,-0.4675,-0.4142,-0.3473,-0.2918,-0.255,-0.1757,-0.137,-0.0887,-0.0506,-0.0353,0.0,0.0,0.0,0.0,0.0,0.0,0.0,0.0,0.0,0.0,0.0,0.0,0.0,0.0,0.0,0.0,0.0,0.0,0.0,0.0,0.0,0.0,-0.7113,-0.7138,-0.7138,-0.7291,-0.7522,-0.7572,-0.7718,-0.7939,-0.7963,-0.7963,-0.7988,-0.7988,-0.7988,-0.7992,-0.8037,-0.816,-0.8315,-0.8464,-0.8574,-0.8672,-0.8703,-0.875,-0.8848,-0.8852,-0.8794,-0.871,-0.8696,-0.8696,-0.8723,-0.8723,-0.8767,-0.8848,-0.8723,-0.8696,-0.8622,-0.8551,-0.8438,-0.8395,-0.8167,-0.8038,-0.8008,-0.7689,-0.7554,-0.7522,-0.7206,-0.6847,-0.6529,-0.6077,-0.553,-0.4795,-0.4152,-0.3696,-0.3384,-0.3484,-0.366,-0.366,-0.3909,-0.4309,-0.4684,-0.496,-0.5361,-0.6134,-0.6481,-0.6776,-0.745,-0.7686,-0.7889,-0.8166,-0.8231,-0.8278,-0.8294,-0.8131,-0.7932,-0.7869,-0.7655,-0.7355,-0.68,-0.6408,-0.5982,-0.555,-0.5371,-0.5077,-0.4257,-0.3906,-0.3447,-0.2857,-0.2173,-0.1769,-0.1426,-0.0979,-0.0535,0.0,0.0,0.0,0.0,0.0,0.0,0.0,0.0,0.0,0.0,0.0,0.0,0.0,0.0,0.0,0.0,0.0,0.0,0.0,0.0,0.0,0.0,0.0,0.0,-0.6139,-0.6342,-0.6512,-0.6764,-0.702,-0.7216,-0.7466,-0.7693,-0.7696,-0.7789,-0.7963,-0.7988,-0.7992,-0.8002,-0.8163,-0.8289,-0.8461,-0.8577,-0.8703,-0.8835,-0.8852,-0.8865,-0.8906,-0.8909,-0.8889,-0.8845,-0.8835,-0.8848,-0.8852,-0.8811,-0.8841,-0.8878,-0.8645,-0.8536,-0.8502,-0.8269,-0.8129,-0.8132,-0.8044,-0.7956,-0.7859,-0.7405,-0.7152,-0.7117,-0.6616,-0.6179,-0.5828,-0.5344,-0.4978,-0.4672,-0.4297,-0.3961,-0.3848,-0.3893,-0.4046,-0.4219,-0.4467,-0.4738,-0.514,-0.5646,-0.6117,-0.6395,-0.7061,-0.7588,-0.7801,-0.81,-0.8166,-0.8167,-0.8089,-0.8004,-0.7881,-0.7739,-0.7455,-0.7009,-0.6934,-0.6698,-0.6035,-0.5583,-0.5206,-0.4722,-0.4398,-0.3973,-0.3481,-0.3039,-0.2646,-0.2107,-0.162,-0.119,-0.0924,-0.0684,0.0,0.0,0.0,0.0,0.0,0.0,0.0,0.0,0.0,0.0,0.0,0.0,0.0,0.0,0.0,0.0,0.0,0.0,0.0,0.0,0.0,0.0,0.0,0.0,0.0,-0.5411,-0.5666,-0.5839,-0.6189,-0.6639,-0.6811,-0.7092,-0.7391,-0.7441,-0.7568,-0.7793,-0.7842,-0.7954,-0.8121,-0.8257,-0.8413,-0.8574,-0.8669,-0.8791,-0.8889,-0.8906,-0.8906,-0.8909,-0.8909,-0.8909,-0.8909,-0.8909,-0.8906,-0.8878,-0.8795,-0.874,-0.8657,-0.8432,-0.8239,-0.8097,-0.7965,-0.7768,-0.7651,-0.7546,-0.7435,-0.7399,-0.696,-0.6766,-0.6668,-0.6253,-0.5983,-0.5796,-0.5412,-0.5085,-0.4855,-0.4585,-0.4432,-0.4521,-0.4615,-0.4728,-0.4857,-0.5233,-0.5576,-0.5875,-0.6429,-0.6867,-0.7137,-0.775,-0.7904,-0.7975,-0.818,-0.8151,-0.7957,-0.7937,-0.7811,-0.7591,-0.7304,-0.6764,-0.6183,-0.5927,-0.5649,-0.5106,-0.4819,-0.4399,-0.3925,-0.3506,-0.3109,-0.2566,-0.2215,-0.1826,-0.1442,-0.1083,-0.0756,-0.0485,-0.0322,0.0,0.0,0.0,0.0,0.0,0.0,0.0,0.0,0.0,0.0,0.0,0.0,0.0,0.0,0.0,0.0,0.0,0.0,0.0,0.0,0.0,0.0,0.0,0.0,0.0,-0.4836,-0.5039,-0.5092,-0.5539,-0.6137,-0.6284,-0.6562,-0.7039,-0.7086,-0.7266,-0.7525,-0.7612,-0.7869,-0.8243,-0.8333,-0.8492,-0.8703,-0.8737,-0.8794,-0.8879,-0.8909,-0.8909,-0.8909,-0.8909,-0.8909,-0.8909,-0.8881,-0.8823,-0.874,-0.8571,-0.8429,-0.8294,-0.8045,-0.774,-0.7465,-0.7354,-0.7268,-0.6932,-0.6682,-0.6571,-0.6518,-0.6255,-0.6112,-0.6193,-0.6218,-0.6153,-0.6077,-0.5936,-0.5735,-0.5438,-0.5071,-0.5055,-0.5289,-0.5523,-0.5617,-0.5664,-0.6109,-0.6513,-0.6777,-0.7087,-0.7463,-0.7801,-0.7928,-0.8035,-0.7962,-0.7971,-0.7877,-0.7693,-0.7726,-0.7474,-0.7155,-0.6584,-0.5878,-0.527,-0.4745,-0.4392,-0.4201,-0.4007,-0.3643,-0.3054,-0.2714,-0.2297,-0.185,-0.143,-0.112,-0.0995,-0.0661,-0.044,-0.0274,-0.0164,0.0,0.0,0.0,0.0,0.0,0.0,0.0,0.0,0.0,0.0,0.0,0.0,0.0,0.0,0.0,0.0,0.0,0.0,0.0,0.0,0.0,0.0,0.0,0.0,0.0,-0.3905,-0.3981,-0.4386,-0.4788,-0.5135,-0.5388,-0.5889,-0.6562,-0.6562,-0.6842,-0.7266,-0.7652,-0.7875,-0.8029,-0.8414,-0.8662,-0.8733,-0.8798,-0.8889,-0.8899,-0.8909,-0.8909,-0.8909,-0.8881,-0.8881,-0.8854,-0.8681,-0.8571,-0.8488,-0.8239,-0.7989,-0.7743,-0.7462,-0.7099,-0.6599,-0.6323,-0.6044,-0.5819,-0.5708,-0.565,-0.5596,-0.5403,-0.5348,-0.5596,-0.5822,-0.5905,-0.5961,-0.6075,-0.6359,-0.6523,-0.6174,-0.586,-0.594,-0.6129,-0.6323,-0.6521,-0.684,-0.7217,-0.7436,-0.751,-0.7572,-0.7734,-0.7835,-0.7881,-0.7833,-0.7702,-0.7542,-0.7337,-0.7091,-0.6709,-0.6232,-0.5401,-0.4812,-0.4309,-0.3779,-0.3165,-0.2634,-0.2774,-0.2718,-0.2214,-0.1822,-0.1486,-0.1149,-0.0841,-0.0617,-0.0476,0.0,0.0,0.0,0.0,0.0,0.0,0.0,0.0,0.0,0.0,0.0,0.0,0.0,0.0,0.0,0.0,0.0,0.0,0.0,0.0,0.0,0.0,0.0,0.0,0.0,0.0,0.0,0.0,0.0,-0.31,-0.3278,-0.3657,-0.4059,-0.4458,-0.4862,-0.5338,-0.5839,-0.6139,-0.6472,-0.696,-0.7492,-0.7846,-0.8108,-0.8501,-0.8713,-0.8794,-0.8865,-0.8909,-0.8909,-0.8909,-0.8823,-0.8709,-0.8709,-0.8709,-0.8681,-0.8595,-0.8374,-0.8072,-0.7768,-0.7379,-0.699,-0.671,-0.6098,-0.5564,-0.5262,-0.4955,-0.4648,-0.4564,-0.4564,-0.4508,-0.4538,-0.4735,-0.5122,-0.5457,-0.5708,-0.6047,-0.6325,-0.6798,-0.7116,-0.7015,-0.6849,-0.6929,-0.7069,-0.7182,-0.7324,-0.7511,-0.7651,-0.777,-0.7797,-0.7786,-0.7777,-0.7741,-0.7622,-0.7448,-0.7207,-0.6844,-0.6571,-0.6235,-0.5845,-0.5234,-0.4367,-0.3779,-0.336,-0.2856,-0.2242,-0.1795,-0.199,-0.2046,-0.1486,-0.1093,-0.0897,-0.0617,-0.0392,0.0,0.0,0.0,0.0,0.0,0.0,0.0,0.0,0.0,0.0,0.0,0.0,0.0,0.0,0.0,0.0,0.0,0.0,0.0,0.0,0.0,0.0,0.0,0.0,0.0,0.0,0.0,0.0,0.0,0.0,0.0,-0.2472,-0.27,-0.2978,-0.338,-0.3907,-0.4334,-0.4761,-0.5213,-0.5616,-0.6047,-0.6611,-0.7201,-0.7745,-0.8209,-0.8578,-0.8801,-0.8875,-0.8875,-0.8881,-0.8795,-0.8795,-0.8626,-0.8457,-0.8377,-0.8294,-0.8318,-0.8208,-0.7934,-0.7518,-0.7127,-0.6571,-0.6068,-0.5764,-0.515,-0.4479,-0.4255,-0.4033,-0.3615,-0.3559,-0.3531,-0.3587,-0.3755,-0.4175,-0.4789,-0.5262,-0.5708,-0.6158,-0.655,-0.6965,-0.7551,-0.7607,-0.7743,-0.7937,-0.7983,-0.7977,-0.7907,-0.7932,-0.7898,-0.7853,-0.785,-0.7799,-0.7878,-0.7488,-0.7226,-0.691,-0.636,-0.5921,-0.5573,-0.5234,-0.4728,-0.4227,-0.3445,-0.2829,-0.2465,-0.199,-0.1542,-0.1318,-0.143,-0.1262,-0.0953,-0.0645,-0.0448,-0.0336,0.0,0.0,0.0,0.0,0.0,0.0,0.0,0.0,0.0,0.0,0.0,0.0,0.0,0.0,0.0,0.0,0.0,0.0,0.0,0.0,0.0,0.0,0.0,0.0,0.0,0.0,0.0,0.0,0.0,0.0,0.0,0.0,-0.2097,-0.2148,-0.2423,-0.2851,-0.3305,-0.3432,-0.4034,-0.4784,-0.4991,-0.5498,-0.6321,-0.7041,-0.759,-0.8059,-0.8633,-0.8861,-0.8906,-0.8881,-0.8768,-0.8626,-0.8543,-0.8349,-0.8069,-0.7795,-0.7629,-0.7462,-0.7349,-0.7071,-0.6768,-0.6295,-0.5652,-0.4981,-0.473,-0.4199,-0.3558,-0.3306,-0.3111,-0.2775,-0.2748,-0.2748,-0.2861,-0.3167,-0.367,-0.448,-0.5039,-0.5626,-0.6161,-0.655,-0.6993,-0.7524,-0.7579,-0.7715,-0.7851,-0.7934,-0.7916,-0.7956,-0.7937,-0.7882,-0.7864,-0.7501,-0.7382,-0.7148,-0.663,-0.6209,-0.5903,-0.5356,-0.4887,-0.4509,-0.396,-0.3363,-0.3025,-0.244,-0.1934,-0.157,-0.129,-0.0953,-0.0701,-0.0645,-0.0701,-0.0504,-0.0252,0.0,0.0,0.0,0.0,0.0,0.0,0.0,0.0,0.0,0.0,0.0,0.0,0.0,0.0,0.0,0.0,0.0,0.0,0.0,0.0,0.0,0.0,0.0,0.0,0.0,0.0,0.0,0.0,0.0,0.0,0.0,0.0,0.0,0.0,-0.1667,-0.1794,-0.1944,-0.2197,-0.2601,-0.3029,-0.3555,-0.4189,-0.4683,-0.5343,-0.6148,-0.6948,-0.7549,-0.8017,-0.8617,-0.8909,-0.8881,-0.874,-0.8626,-0.8484,-0.8211,-0.7878,-0.7543,-0.7129,-0.6768,-0.6404,-0.607,-0.5956,-0.5959,-0.5429,-0.4732,-0.4117,-0.3752,-0.3165,-0.255,-0.2241,-0.2048,-0.1852,-0.1797,-0.1881,-0.2049,-0.2526,-0.3282,-0.4007,-0.4735,-0.5346,-0.5794,-0.63,-0.669,-0.7023,-0.7135,-0.7299,-0.744,-0.7468,-0.7524,-0.7804,-0.7718,-0.7573,-0.7452,-0.6977,-0.6522,-0.6417,-0.5729,-0.5269,-0.4962,-0.4426,-0.3761,-0.3305,-0.2902,-0.23,-0.2017,-0.158,-0.1206,-0.0897,-0.0701,-0.0505,0.0,0.0,0.0,0.0,0.0,0.0,0.0,0.0,0.0,0.0,0.0,0.0,0.0,0.0,0.0,0.0,0.0,0.0,0.0,0.0,0.0,0.0,0.0,0.0,0.0,0.0,0.0,0.0,0.0,0.0,0.0,0.0,0.0,0.0,0.0,0.0,0.0,0.0,0.0,-0.1292,-0.144,-0.1491,-0.1693,-0.2023,-0.2738,-0.3299,-0.3764,-0.4549,-0.5337,-0.6098,-0.6991,-0.7641,-0.8072,-0.8543,-0.8881,-0.8823,-0.8567,-0.8401,-0.8069,-0.7768,-0.7354,-0.6849,-0.6402,-0.5931,-0.5485,-0.4843,-0.462,-0.4895,-0.4507,-0.3894,-0.325,-0.2689,-0.222,-0.1719,-0.1469,-0.11,-0.0991,-0.0906,-0.1048,-0.153,-0.2125,-0.2862,-0.3481,-0.4272,-0.4817,-0.5251,-0.5708,-0.6162,-0.6442,-0.6545,-0.662,-0.6837,-0.6669,-0.6837,-0.7309,-0.7122,-0.6997,-0.6743,-0.6114,-0.5623,-0.5598,-0.4834,-0.4416,-0.3966,-0.3341,-0.2584,-0.2084,-0.1807,-0.1502,-0.1211,-0.0943,-0.0682,-0.0454,-0.0341,0.0,0.0,0.0,0.0,0.0,0.0,0.0,0.0,0.0,0.0,0.0,0.0,0.0,0.0,0.0,0.0,0.0,0.0,0.0,0.0,0.0,0.0,0.0,0.0,0.0,0.0,0.0,0.0,0.0,0.0,0.0,0.0,0.0,0.0,0.0,0.0,0.0,0.0,0.0,0.0,-0.1128,-0.091,-0.1163,-0.1389,-0.1724,-0.2338,-0.3049,-0.3806,-0.4474,-0.5247,-0.6138,-0.7064,-0.7683,-0.8103,-0.8629,-0.874,-0.8598,-0.8374,-0.8042,-0.7543,-0.721,-0.6685,-0.6044,-0.5678,-0.512,-0.4596,-0.3954,-0.3894,-0.3901,-0.351,-0.2862,-0.2219,-0.1974,-0.1611,-0.1117,-0.0946,-0.0924,-0.0875,-0.0848,-0.111,-0.1578,-0.184,-0.2424,-0.3065,-0.3647,-0.4108,-0.4594,-0.5,-0.5443,-0.5913,-0.5835,-0.587,-0.6051,-0.5874,-0.5787,-0.5909,-0.5952,-0.6037,-0.5908,-0.5257,-0.4693,-0.4558,-0.39,-0.3365,-0.2852,-0.225,-0.1569,-0.1119,-0.1029,-0.0911,-0.0646,-0.0498,-0.0293,0.0,0.0,0.0,0.0,0.0,0.0,0.0,0.0,0.0,0.0,0.0,0.0,0.0,0.0,0.0,0.0,0.0,0.0,0.0,0.0,0.0,0.0,0.0,0.0,0.0,0.0,0.0,0.0,0.0,0.0,0.0,0.0,0.0,0.0,0.0,0.0,0.0,0.0,0.0,0.0,0.0,0.0,-0.0795,-0.0834,-0.099,-0.1173,-0.1513,-0.2232,-0.2947,-0.3644,-0.442,-0.5258,-0.6176,-0.7141,-0.7916,-0.8429,-0.8681,-0.8626,-0.8401,-0.8014,-0.7598,-0.6985,-0.6513,-0.5903,-0.5262,-0.4676,-0.4117,-0.3653,-0.3026,-0.259,-0.2616,-0.2502,-0.2019,-0.1566,-0.1205,-0.0926,-0.0612,-0.0466,-0.038,-0.0411,-0.053,-0.0766,-0.109,-0.1532,-0.1974,-0.2416,-0.3034,-0.3477,-0.3802,-0.4121,-0.4503,-0.4881,-0.485,-0.485,-0.4938,-0.4848,-0.476,-0.4501,-0.4428,-0.4641,-0.4968,-0.429,-0.3897,-0.3501,-0.2931,-0.2343,-0.1816,-0.139,-0.0997,-0.0726,-0.069,-0.0538,-0.0268,-0.0178,-0.0118,0.0,0.0,0.0,0.0,0.0,0.0,0.0,0.0,0.0,0.0,0.0,0.0,0.0,0.0,0.0,0.0,0.0,0.0,0.0,0.0,0.0,0.0,0.0,0.0,0.0,0.0,0.0,0.0,0.0,0.0,0.0,0.0,0.0,0.0,0.0,0.0,0.0,0.0,0.0,0.0,0.0,0.0,-0.0574,-0.081,-0.0884,-0.1067,-0.1361,-0.2221,-0.2976,-0.365,-0.4553,-0.5412,-0.6254,-0.7172,-0.8045,-0.8602,-0.8488,-0.8263,-0.8094,-0.7487,-0.7015,-0.6485,-0.5789,-0.5067,-0.4452,-0.3782,-0.3202,-0.2763,-0.2167,-0.1726,-0.1505,-0.1423,-0.1309,-0.1071,-0.0729,-0.0442,-0.0296,0.0,0.0,-0.009,-0.0209,-0.0359,-0.0598,-0.1106,-0.1434,-0.182,-0.2294,-0.2828,-0.2947,-0.3221,-0.3579,-0.3968,-0.3941,-0.3976,-0.4094,-0.4008,-0.3797,-0.3506,-0.3252,-0.3223,-0.3449,-0.3192,-0.2815,-0.2433,-0.1956,-0.1415,-0.1047,-0.0834,-0.0679,-0.0369,-0.0366,-0.0243,0.0,0.0,0.0,0.0,0.0,0.0,0.0,0.0,0.0,0.0,0.0,0.0,0.0,0.0,0.0,0.0,0.0,0.0,0.0,0.0,0.0,0.0,0.0,0.0,0.0,0.0,0.0,0.0,0.0,0.0,0.0,0.0,0.0,0.0,0.0,0.0,0.0,0.0,0.0,0.0,0.0,0.0,0.0,0.0,0.0,-0.0587,-0.0892,-0.0893,-0.1068,-0.1389,-0.2224,-0.3112,-0.3988,-0.4936,-0.5718,-0.6468,-0.7185,-0.7937,-0.8294,-0.8156,-0.7765,-0.7293,-0.721,-0.6485,-0.5734,-0.5067,-0.4398,-0.3729,-0.3036,-0.2459,-0.1945,-0.1445,-0.102,-0.0647,-0.0686,-0.0564,-0.0442,-0.0386,-0.0238,0.0,0.0,0.0,0.0,0.0,-0.0214,-0.0368,-0.0644,-0.0827,-0.1104,-0.1443,-0.1782,-0.2089,-0.2388,-0.2781,-0.33,-0.3144,-0.3114,-0.323,-0.3141,-0.2866,-0.2535,-0.2294,-0.2142,-0.2017,-0.214,-0.1935,-0.1539,-0.1079,-0.071,-0.0556,-0.0247,-0.0062,0.0,0.0,0.0,0.0,0.0,0.0,0.0,0.0,0.0,0.0,0.0,0.0,0.0,0.0,0.0,0.0,0.0,0.0,0.0,0.0,0.0,0.0,0.0,0.0,0.0,0.0,0.0,0.0,0.0,0.0,0.0,0.0,0.0,0.0,0.0,0.0,0.0,0.0,0.0,0.0,0.0,0.0,0.0,0.0,0.0,0.0,0.0,0.0,-0.0778,-0.0896,-0.1078,-0.132,-0.1677,-0.2547,-0.333,-0.411,-0.5164,-0.6212,-0.7079,-0.7468,-0.7826,-0.7989,-0.7709,-0.7296,-0.6851,-0.6262,-0.5594,-0.4925,-0.4314,-0.3587,-0.2894,-0.2323,-0.1829,-0.1299,-0.0907,-0.0682,-0.0449,-0.0243,-0.0183,-0.0152,0.0,-0.0091,0.0,0.0,0.0,0.0,0.0,0.0,-0.0185,-0.0401,-0.0556,-0.071,-0.1018,-0.1234,-0.1388,-0.1481,-0.1851,-0.2128,-0.2158,-0.2251,-0.2312,-0.2189,-0.1974,-0.1697,-0.1481,-0.1265,-0.1018,-0.1172,-0.1203,-0.0895,-0.0494,0.0,0.0,0.0,0.0,0.0,0.0,0.0,0.0,0.0,0.0,0.0,0.0,0.0,0.0,0.0,0.0,0.0,0.0,0.0,0.0,0.0,0.0,0.0,0.0,0.0,0.0,0.0,0.0,0.0,0.0,0.0,0.0,0.0,0.0,0.0,0.0,0.0,0.0,0.0,0.0,0.0,0.0,0.0,0.0,0.0,0.0,0.0,0.0,0.0,0.0,0.0,0.0,-0.116,-0.1177,-0.1374,-0.1627,-0.2019,-0.2774,-0.3503,-0.4258,-0.5206,-0.6295,-0.7329,-0.7274,-0.7354,-0.7407,-0.7015,-0.6599,-0.6126,-0.5511,-0.4841,-0.4173,-0.3503,-0.2784,-0.2153,-0.1601,-0.1127,-0.073,-0.0475,-0.0271,-0.0243,-0.0061,0.0,0.0,0.0,0.0,0.0,0.0,0.0,0.0,0.0,0.0,0.0,-0.0216,-0.0309,-0.0371,-0.0556,-0.0741,-0.0833,-0.0957,-0.1111,-0.1326,-0.1419,-0.1388,-0.1388,-0.1295,-0.1141,-0.0988,-0.0834,-0.0679,-0.0525,-0.0494,-0.0587,-0.037,-0.0216,0.0,0.0,0.0,0.0,0.0,0.0,0.0,0.0,0.0,0.0,0.0,0.0,0.0,0.0,0.0,0.0,0.0,0.0,0.0,0.0,0.0,0.0,0.0,0.0,0.0,0.0,0.0,0.0,0.0,0.0,0.0,0.0,0.0,0.0,0.0,0.0,0.0,0.0,0.0,0.0,0.0,0.0,0.0,0.0,0.0,0.0,0.0,0.0,0.0,0.0,0.0,0.0,-0.1738,-0.1793,-0.1795,-0.1963,-0.2328,-0.2859,-0.364,-0.448,-0.5176,-0.5931,-0.6659,-0.6495,-0.6495,-0.6546,-0.6098,-0.568,-0.5316,-0.4758,-0.4088,-0.3418,-0.2788,-0.2155,-0.1573,-0.1011,-0.0616,-0.0389,0.0,0.0,0.0,0.0,0.0,0.0,0.0,0.0,0.0,0.0,0.0,0.0,0.0,0.0,0.0,0.0,0.0,0.0,0.0,0.0,-0.0463,-0.0494,-0.0648,-0.0864,-0.0926,-0.0926,-0.0926,-0.0926,-0.0772,-0.0556,-0.0525,-0.0371,-0.0093,0.0,0.0,0.0,0.0,0.0,0.0,0.0,0.0,0.0,0.0,0.0,0.0,0.0,0.0,0.0,0.0,0.0,0.0,0.0,0.0,0.0,0.0,0.0,0.0,0.0,0.0,0.0,0.0,0.0,0.0,0.0,0.0,0.0,0.0,0.0,0.0,0.0,0.0,0.0,0.0,0.0,0.0,0.0,0.0,0.0,0.0,0.0,0.0,0.0,0.0,0.0,0.0,0.0,0.0,0.0,0.0,-0.2308,-0.2319,-0.2373,-0.2692,-0.3139,-0.3531,-0.4033,-0.4592,-0.529,-0.5819,-0.6044,-0.5991,-0.5877,-0.568,-0.5232,-0.4758,-0.4393,-0.3836,-0.3222,-0.2441,-0.201,-0.1484,-0.0952,-0.0616,-0.0298,0.0,0.0,0.0,0.0,0.0,0.0,0.0,0.0,0.0,0.0,0.0,0.0,0.0,0.0,0.0,0.0,0.0,0.0,0.0,0.0,0.0,0.0,0.0,0.0,0.0,0.0,0.0,0.0,0.0,0.0,0.0,0.0,-0.0124,0.0,0.0,0.0,0.0,0.0,0.0,0.0,0.0,0.0,0.0,0.0,0.0,0.0,0.0,0.0,0.0,0.0,0.0,0.0,0.0,0.0,0.0,0.0,0.0,0.0,0.0,0.0,0.0,0.0,0.0,0.0,0.0,0.0,0.0,0.0,0.0,0.0,0.0,0.0,0.0,0.0,0.0,0.0,0.0,0.0,0.0,0.0,0.0,0.0,0.0,0.0,0.0,0.0,0.0,0.0,0.0,0.0,-0.2961,-0.2929,-0.3091,-0.3365,-0.3729,-0.3924,-0.4288,-0.4817,-0.5292,-0.5487,-0.5431,-0.5292,-0.5096,-0.4787,-0.4311,-0.3863,-0.3498,-0.2913,-0.241,-0.163,-0.1369,-0.0979,-0.0584,-0.0298,-0.0151,0.0,0.0,0.0,0.0,0.0,0.0,0.0,0.0,0.0,0.0,0.0,0.0,0.0,0.0,0.0,0.0,0.0,0.0,0.0,0.0,0.0,0.0,0.0,0.0,0.0,0.0,0.0,0.0,0.0,0.0,0.0,0.0,0.0,0.0,0.0,0.0,0.0,0.0,0.0,0.0,0.0,0.0,0.0,0.0,0.0,0.0,0.0,0.0,0.0,0.0,0.0,0.0,0.0,0.0,0.0,0.0,0.0,0.0,0.0,0.0,0.0,0.0,0.0,0.0,0.0,0.0,0.0,0.0,0.0,0.0,0.0,0.0,0.0,0.0,0.0,0.0,0.0,0.0,0.0,0.0,0.0,0.0,0.0,0.0,0.0,0.0,0.0,0.0,0.0,0.0,-0.3738,-0.3611,-0.3898,-0.4064,-0.4094,-0.4232,-0.4679,-0.5326,-0.5072,-0.4929,-0.4875,-0.4344,-0.412,-0.3895,-0.3362,-0.2969,-0.266,-0.2074,-0.1626,-0.1213,-0.0859,-0.0522,-0.0324,-0.015,0.0,0.0,0.0,0.0,0.0,0.0,0.0,0.0,0.0,0.0,0.0,0.0,0.0,0.0,0.0,0.0,0.0,0.0,0.0,0.0,0.0,0.0,0.0,0.0,0.0,0.0,0.0,0.0,0.0,0.0,0.0,0.0,0.0,0.0,0.0,0.0,0.0,0.0,0.0,0.0,0.0,0.0,0.0,0.0,0.0,0.0,0.0,0.0,0.0,0.0,0.0,0.0,0.0,0.0,0.0,0.0,0.0,0.0,0.0,0.0,0.0,0.0,0.0,0.0,0.0,0.0,0.0,0.0,0.0,0.0,0.0,0.0,0.0,0.0,0.0,0.0,0.0,0.0,0.0,0.0,0.0,0.0,0.0,0.0,0.0,0.0,0.0,0.0,0.0,0.0,0.0,-0.4755,-0.4807,-0.4919,-0.5122,-0.5294,-0.5545,-0.5577,-0.5382,-0.5044,-0.4819,-0.4592,-0.3979,-0.3589,-0.3306,-0.2523,-0.2214,-0.185,-0.1486,-0.1037,-0.0679,-0.049,-0.0292,0.0,0.0,0.0,0.0,0.0,0.0,0.0,0.0,0.0,0.0,0.0,0.0,0.0,0.0,0.0,0.0,0.0,0.0,0.0,0.0,0.0,0.0,0.0,0.0,0.0,0.0,0.0,0.0,0.0,0.0,0.0,0.0,0.0,0.0,0.0,0.0,0.0,0.0,0.0,0.0,0.0,0.0,0.0,0.0,0.0,0.0,0.0,0.0,0.0,0.0,0.0,0.0,0.0,0.0,0.0,0.0,0.0,0.0,0.0,0.0,0.0,0.0,0.0,0.0,0.0,0.0,0.0,0.0,0.0,0.0,0.0,0.0,0.0,0.0,0.0,0.0,0.0,0.0,0.0,0.0,0.0,0.0,0.0,0.0,0.0,0.0,0.0,0.0,0.0,0.0,0.0,0.0,0.0,-0.5852,-0.5977,-0.6081,-0.6209,-0.6348,-0.6409,-0.6216,-0.5826,-0.5182,-0.4761,-0.4424,-0.3615,-0.3113,-0.2831,-0.2075,-0.157,-0.1402,-0.0981,-0.0561,-0.0339,0.0,-0.0146,0.0,0.0,0.0,0.0,0.0,0.0,0.0,0.0,0.0,0.0,0.0,0.0,0.0,0.0,0.0,0.0,0.0,0.0,0.0,0.0,0.0,0.0,0.0,0.0,0.0,0.0,0.0,0.0,0.0,0.0,0.0,0.0,0.0,0.0,0.0,0.0,0.0,0.0,0.0,0.0,0.0,0.0,0.0,0.0,0.0,0.0,0.0,0.0,0.0,0.0,0.0,0.0,0.0,0.0,0.0,0.0,0.0,0.0,0.0,0.0,0.0,0.0,0.0,0.0,0.0,0.0,0.0,0.0,0.0,0.0,0.0,0.0,0.0,0.0,0.0,0.0,0.0,0.0,0.0,0.0,0.0,0.0,0.0,0.0,0.0,0.0,0.0,0.0,0.0,0.0,0.0,0.0,0.0,-0.7016,-0.7162,-0.7246,-0.7268,-0.721,-0.6963,-0.6771,-0.6601,-0.5599,-0.4843,-0.4397,-0.3307,-0.2806,-0.258,-0.1767,-0.1206,-0.0953,-0.0589,-0.0308,0.0,0.0,0.0,0.0,0.0,0.0,0.0,0.0,0.0,0.0,0.0,0.0,0.0,0.0,0.0,0.0,0.0,0.0,0.0,0.0,0.0,0.0,0.0,0.0,0.0,0.0,0.0,0.0,0.0,0.0,0.0,0.0,0.0,0.0,0.0,0.0,0.0,0.0,0.0,0.0,0.0,0.0,0.0,0.0,0.0,0.0,0.0,0.0,0.0,0.0,0.0,0.0,0.0,0.0,0.0,0.0,0.0,0.0,0.0,0.0,0.0,0.0,0.0,0.0,0.0,0.0,0.0,0.0,0.0,0.0,0.0,0.0,0.0,0.0,0.0,0.0,0.0,0.0,0.0,0.0,0.0,0.0,0.0,0.0,0.0,0.0,0.0,0.0,0.0,0.0,0.0,0.0,0.0,0.0,0.0,0.0,-0.8331,-0.843,-0.8275,-0.8045,-0.782,-0.774,-0.7435,-0.7046,-0.6518,-0.571,-0.4704,-0.3642,-0.2887,-0.2581,-0.1598,-0.1037,-0.0841,-0.042,-0.014,0.0,0.0,0.0,0.0,0.0,0.0,0.0,0.0,0.0,0.0,0.0,0.0,0.0,0.0,0.0,0.0,0.0,0.0,0.0,0.0,0.0,0.0,0.0,0.0,0.0,0.0,0.0,0.0,0.0,0.0,0.0,0.0,0.0,0.0,0.0,0.0,0.0,0.0,0.0,0.0,0.0,0.0,0.0,0.0,0.0,0.0,0.0,0.0,0.0,0.0,0.0,0.0,0.0,0.0,0.0,0.0,0.0,0.0,0.0,0.0,0.0,0.0,0.0,0.0,0.0,0.0,0.0,0.0,0.0,0.0,0.0,0.0,0.0,0.0,0.0,0.0,0.0,0.0,0.0,0.0,0.0,0.0,0.0,0.0,0.0,0.0,0.0,0.0,0.0,0.0,0.0,0.0,0.0,0.0,0.0,0.0,-0.9175,-0.9251,-0.9009,-0.8792,-0.8598,-0.8349,-0.8042,-0.7709,-0.7185,-0.6462,-0.5513,-0.4227,-0.3278,-0.2805,-0.1766,-0.1093,-0.0897,-0.0392,-0.0168,0.0,0.0,0.0,0.0,0.0,0.0,0.0,0.0,0.0,0.0,0.0,0.0,0.0,0.0,0.0,0.0,0.0,0.0,0.0,0.0,0.0,0.0,0.0,0.0,0.0,0.0,0.0,0.0,0.0,0.0,0.0,0.0,0.0,0.0,0.0,0.0,0.0,0.0,0.0,0.0,0.0,0.0,0.0,0.0,0.0,0.0,0.0,0.0,0.0,0.0,0.0,0.0,0.0,0.0,0.0,0.0,0.0,0.0,0.0,0.0,0.0,0.0,0.0,0.0,0.0,0.0,0.0,0.0,0.0,0.0,0.0,0.0,0.0,0.0,0.0,0.0,0.0,0.0,0.0,0.0,0.0,0.0,0.0,0.0,0.0,0.0,0.0,0.0,0.0,0.0,0.0,0.0,0.0,0.0,0.0,0.0,-0.9899,-0.9864,-0.9651,-0.9489,-0.9323,-0.8847,-0.854,-0.8346,-0.7709,-0.7129,-0.6543,-0.5035,-0.3976,-0.3109,-0.2271,-0.1626,-0.1065,-0.0673,-0.0364,-0.0141,0.0,0.0,0.0,0.0,0.0,0.0,0.0,0.0,0.0,0.0,0.0,0.0,0.0,0.0,0.0,0.0,0.0,0.0,0.0,0.0,0.0,0.0,0.0,0.0,0.0,0.0,0.0,0.0,0.0,0.0,0.0,0.0,0.0,0.0,0.0,0.0,0.0,0.0,0.0,0.0,0.0,0.0,0.0,0.0,0.0,0.0,0.0,0.0,0.0,0.0,0.0,0.0,0.0,0.0,0.0,0.0,0.0,0.0,0.0,0.0,0.0,0.0,0.0,0.0,0.0,0.0,0.0,0.0,0.0,0.0,0.0,0.0,0.0,0.0,0.0,0.0,0.0,0.0,0.0,0.0,0.0,0.0,0.0,0.0,0.0,0.0,0.0,0.0,0.0,0.0,0.0,0.0,0.0,0.0,0.0,-1.096,-1.0527,-1.0472,-1.0064,-0.9461,-0.9268,-0.8961,-0.854,-0.8349,-0.7848,-0.7071,-0.629,-0.5174,-0.3777,-0.2606,-0.1935,-0.1626,-0.1121,-0.0645,-0.0366,-0.0348,-0.0205,0.0,0.0,0.0,0.0,0.0,0.0,0.0,0.0,0.0,0.0,0.0,0.0,0.0,0.0,0.0,0.0,0.0,0.0,0.0,0.0,0.0,0.0,0.0,0.0,0.0,0.0,0.0,0.0,0.0,0.0,0.0,0.0,0.0,0.0,0.0,0.0,0.0,0.0,0.0,0.0,0.0,0.0,0.0,0.0,0.0,0.0,0.0,0.0,0.0,0.0,0.0,0.0,0.0,0.0,0.0,0.0,0.0,0.0,0.0,0.0,0.0,0.0,0.0,0.0,0.0,0.0,0.0,0.0,0.0,0.0,0.0,0.0,0.0,0.0,0.0,0.0,0.0,0.0,0.0,0.0,0.0,0.0,0.0,0.0,0.0,0.0,0.0,0.0,0.0,0.0,0.0,0.0539,0.0774]},{"header":{"parameterUnit":"m.s-1","parameterCategory":1,"la1":31.0,"la2":29.5877,"lo1":-88.7671,"lo2":-86.6584,"dy":0.0162,"dx":0.0185,"nx":115,"ny":88,"refTime":"2023-08-24T06:00:00:Z","depth":0,"parameterNumber":3,"parameterNumberName":"V-component_of_WINDS"},"data":[0.0,0.0,0.0,0.0,0.0,0.0,0.0,0.0,0.0,0.0,0.0,0.0,0.0,0.0,0.0,0.0,0.0,0.0,0.0,0.0,0.0,0.0,0.0,0.0,0.0,0.0,0.0,0.0,0.0,0.0,0.0,0.0,0.0,0.0,0.0,0.0,0.0,0.0,0.0,0.0,0.0,0.0,0.0,0.0,0.0,0.0,0.0,0.0,0.0,0.0,0.0,0.0,0.0,0.0,0.0,0.0,0.0,0.0,0.0,0.0,0.0,0.0,0.0,0.0,0.0,0.0,0.0,0.0,0.0,0.0,0.0,0.0,0.0,0.0,0.0,0.0,0.0,0.0,0.0,0.0,0.0,0.0,0.0,0.0,0.0,0.0,0.0,0.0,0.0,0.0,0.0,0.0,0.0,0.0,0.0,0.0,0.0,0.0,0.0,0.0,0.0,0.0,0.0,0.0,0.0,0.0,0.0,0.0,0.0,0.0,0.0,0.0,0.0,0.0,0.0,0.0,0.0,0.0,0.0,0.0,0.0,0.0,0.0,0.0,0.0,0.0,0.0,0.0,0.0,0.0,0.0,0.0,0.0,0.0,0.0,0.0,0.0,0.0,0.0,0.0,0.0,0.0,0.0,0.0,0.0,0.0,0.0,0.0,0.0,0.0,0.0,0.0,0.0,0.0,0.0,0.0,0.0,0.0,0.0,0.0,0.0,0.0,0.0,0.0,0.0,0.0,0.0,0.0,0.0,0.0,0.0,0.0,0.0,0.0,0.0,0.0,0.0,0.0,0.0,0.0,0.0,0.0,0.0,0.0,0.0,0.0,0.0,0.0,0.0,0.0,0.0,0.0,0.0,0.0,0.0,0.0,0.0,0.0,0.0,0.0,0.0,0.0,0.0,0.0,0.0,0.0,0.0,0.0,0.0,0.0,0.0,0.0,0.0,0.0,0.0,0.0,0.0,0.0,0.0,0.0,0.0,0.0,0.0,0.0,0.0,0.0,0.0,0.0,0.0,0.0,0.0,0.0,0.0,0.0,0.0,0.0,0.0,0.0,0.0,0.0,0.0,0.0,0.0,0.0,0.0,0.0,0.0,0.0,0.0,0.0,0.0,0.0,0.0,0.0,0.0,0.0,0.0,0.0,0.0,0.0,0.0,0.0,0.0,0.0,0.0,0.0,0.0,0.0,0.0,0.0,0.0,0.0,0.0,0.0,0.0,0.0,0.0,0.0,0.0,0.0,0.0,0.0,0.0,0.0,0.0,0.0,0.0,0.0,0.0,0.0,0.0,0.0,0.0,0.0,0.0,0.0,0.0,0.0,0.0,0.0,0.0,0.0,0.0,0.0,0.0,0.0,0.0,0.0,0.0,0.0,0.0,0.0,0.0,0.0,0.0,0.0,0.0,0.0,0.0,0.0,0.0,0.0,0.0,0.0,0.0,0.0,0.0,0.0,0.0,0.0,0.0,0.0,0.0,0.0,0.0,0.0,0.0,0.0,0.0,0.0,0.0,0.0,0.0,0.0,0.0,0.0,0.0,0.0,0.0,0.0,0.0,0.0,0.0,0.0,0.0,0.0,0.0,0.0,0.0,0.0,0.0,0.0,0.0,0.0,0.0,0.0,0.0,0.0,0.0,0.0,0.0,0.0,0.0,0.0,0.0,0.0,0.0,0.0,0.0,0.0,0.0,0.0,0.0,0.0,0.0,0.0,0.0,0.0,0.0,0.0,0.0,0.0,0.0,0.0,0.0,0.0,0.0,0.0,0.0,0.0,0.0,0.0,0.0,0.0,0.0,0.0,0.0,0.0,0.0,0.0,0.0,0.0,0.0,0.0,0.0,0.0,0.0,0.0,0.0,0.0,0.0,0.0,0.0,0.0,0.0,0.0,0.0,0.0,0.0,0.0,0.0,0.0,0.0,0.0,0.0,0.0,0.0,0.0,0.0,0.0,0.0,0.0,0.0,0.0,0.0,0.0,0.0,0.0,0.0,0.0,0.0,0.0,0.0,0.0,0.0,0.0,0.0,0.0,0.0,0.0,0.0,0.0,0.0,0.0,0.0,0.0,0.0,0.0,0.0,0.0,0.0,0.0,0.0,0.0,0.0,0.0,0.0,0.0,0.0,0.0,0.0,0.0,0.0,0.0,0.0,0.0,0.0,0.0,0.0,0.0,0.0,0.0,0.0,0.0,0.0,0.0,0.0,0.0,0.0,0.0,0.0,0.0,0.0,0.0,0.0,0.0,0.0,0.0,0.0,0.0,0.0,0.0,0.0,0.0,0.0,0.0,0.0,0.0,0.0,0.0,0.0,0.0,0.0,0.0,0.0,0.0,0.0,0.0,0.0,0.0,0.0,0.0,0.0,0.0,0.0,0.0,0.0,0.0,0.0,0.0,0.0,0.0,0.0,0.0,0.0,0.0,0.0,0.0,0.0,0.0,0.0,0.0,0.0,0.0,0.0,0.0,0.0,0.0,0.0,0.0,0.0,0.0,0.0,0.0,0.0,0.0,0.0,0.0,0.0,0.0,0.0,0.0,0.0,0.0,0.0,0.0,0.0,0.0,0.0,0.0,0.0,0.0,0.0,0.0,0.0,0.0,0.0,0.0,0.0,0.0,0.0,0.0,0.0,0.0,0.0,0.0,0.0,0.0,0.0,0.0,0.0,0.0,0.0,0.0,0.0,0.0,0.0,0.0,0.0,0.0,0.0,0.0,0.0,0.0,0.0,0.0,0.0,0.0,0.0,0.0,0.0,0.0,0.0,0.0,0.0,0.0,0.0,0.0,0.0,0.0,0.0,0.0,0.0,0.0,0.0,0.0,0.0,0.0,0.0,0.0,0.0,0.0,0.0,0.0,0.0,0.0,0.0,0.0,0.0,0.0,0.0,0.0,0.0,0.0,0.0,0.0,0.0,0.0,0.0,0.0,0.0,0.0,0.0,0.0,0.0,0.0,0.0,0.0,0.0,0.0,0.0,0.0,0.0,0.0,0.0,0.0,0.0,0.0,0.0,0.0,0.0,0.0,0.0,0.0,0.0,0.0,0.0,0.0,0.0,0.0,0.0,0.0,0.0,0.0,0.0,0.0,0.0,0.0,0.0,0.0,0.0,0.0,0.0,0.0,0.0,0.0,0.0,0.0,0.0,0.0,0.0,0.0,0.0,0.0,0.0,0.0,0.0,0.0,0.0,0.0,0.0,0.0,0.0,0.0,0.0,0.0,0.0,0.0,0.0,0.0,0.0,0.0,0.0,0.0,0.0,0.0,0.0,0.0,0.0,0.0,0.0,0.0,0.0,0.0,0.0,0.0,0.0,0.0,0.0,0.0,0.0,0.0,0.0,0.0,0.0,0.0,0.0,0.0,0.0,0.0,0.0,0.0,0.0,0.0,0.0,0.0,0.0,0.0,0.0,0.0,0.0,0.0,0.0,0.0,0.0,0.0,0.0,0.0,0.0,0.0,0.0,0.0,0.0,0.0,0.0,0.0,0.0,0.0,0.0,0.0,0.0,0.0,0.0,0.0,0.0,0.0,0.0,0.0,0.0,0.0,0.0,0.0,0.0,0.0,0.0,0.0,0.0,0.0,0.0,0.0,0.0,0.0,0.0,0.0,0.0,0.0,0.0,0.0,0.0,0.0,0.0,0.0,0.0,0.0,0.0,0.0,0.0,0.0,0.0,0.0,0.0,0.0,0.0,0.0,0.0,0.0,0.0,0.0,0.0,0.0,0.0,0.0,0.0,0.0,0.0,0.0,0.0,0.0,0.0,0.0,0.0,0.0,0.0,0.0,0.0,0.0,0.0,0.0,0.0,0.0,0.0,0.0,0.0,0.0,0.0,0.0,0.0,0.0,0.0,0.0,0.0,0.0,0.0,0.0,0.0,0.0,0.0,0.0,0.0,0.0,0.0,0.0,0.0,0.0,0.0,0.0,0.0,0.0,0.0,0.0,0.0,0.0,0.0,0.0,0.0,0.0,0.0,0.0,0.0,0.0,0.0,0.0,0.0,0.0,0.0,0.0,0.0,0.0,0.0,0.0,0.0,0.0,0.0,0.0,0.0,0.0,0.0,0.0,0.0,0.0,0.0,0.0,0.0,0.0,0.0,0.0,0.0,0.0,0.0,0.0,0.0,0.0,0.0,0.0,0.0,0.0,0.0,0.0,0.0,0.0,0.0,0.0,0.0,0.0,0.0,0.0,0.0,0.0,0.0,0.0,0.0,0.0,0.0,0.0,0.0,0.0,0.0,0.0,0.0,0.0,0.0,0.0,0.0,0.0,0.0,0.0,2.2858,0.0,0.0,0.0,0.0,0.0,0.0,0.0,0.0,0.0,0.0,0.0,0.0,0.0,0.0,0.0,0.0,0.0,0.0,0.0,0.0,0.0,0.0,0.0,0.0,0.0,0.0,0.0,0.0,0.0,0.0,0.0,0.0,0.0,0.0,0.0,0.0,0.0,0.0,0.0,0.0,0.0,0.0,0.0,0.0,0.0,0.0,0.0,0.0,0.0,0.0,0.0,0.0,0.0,0.0,0.0,0.0,0.0,0.0,0.0,0.0,0.0,0.0,0.0,0.0,0.0,0.0,0.0,0.0,0.0,0.0,0.0,0.0,0.0,0.0,0.0,0.0,0.0,0.0,0.0,0.0,0.0,0.0,0.0,0.0,0.0,0.0,0.0,0.0,0.0,0.0,0.0,0.0,0.0,0.0,0.0,0.0,0.0,0.0,0.0,0.0,0.0,0.0,0.0,0.0,0.0,0.0,0.0,0.0,0.0,0.0,2.4099,2.4146,2.4175,2.4012,2.3658,0.0,0.0,0.0,0.0,0.0,0.0,0.0,0.0,0.0,0.0,0.0,0.0,0.0,0.0,0.0,0.0,0.0,0.0,0.0,0.0,0.0,0.0,0.0,0.0,0.0,0.0,0.0,0.0,0.0,0.0,0.0,0.0,0.0,0.0,0.0,0.0,0.0,0.0,0.0,0.0,0.0,0.0,0.0,0.0,0.0,0.0,0.0,0.0,0.0,0.0,0.0,0.0,0.0,0.0,0.0,0.0,0.0,0.0,0.0,0.0,0.0,0.0,0.0,0.0,0.0,0.0,0.0,0.0,0.0,0.0,0.0,0.0,0.0,0.0,0.0,0.0,0.0,0.0,0.0,0.0,0.0,0.0,0.0,0.0,0.0,0.0,0.0,0.0,0.0,0.0,0.0,0.0,0.0,0.0,0.0,0.0,0.0,0.0,0.0,0.0,0.0,0.0,0.0,0.0,0.0,0.0,0.0,0.0,0.0,0.0,0.0,0.0,2.4161,2.4228,2.4234,0.0,0.0,0.0,0.0,0.0,0.0,0.0,0.0,0.0,0.0,0.0,0.0,0.0,0.0,0.0,0.0,0.0,0.0,0.0,0.0,0.0,0.0,0.0,0.0,0.0,0.0,0.0,0.0,0.0,0.0,0.0,0.0,0.0,0.0,0.0,0.0,0.0,0.0,0.0,0.0,0.0,0.0,0.0,0.0,0.0,0.0,0.0,0.0,0.0,0.0,0.0,0.0,0.0,0.0,0.0,0.0,0.0,0.0,0.0,0.0,0.0,0.0,0.0,0.0,0.0,0.0,0.0,0.0,0.0,0.0,0.0,0.0,0.0,0.0,0.0,0.0,0.0,0.0,0.0,0.0,0.0,0.0,0.0,0.0,0.0,0.0,0.0,0.0,0.0,0.0,0.0,0.0,0.0,0.0,0.0,0.0,0.0,0.0,0.0,0.0,0.0,0.0,0.0,0.0,0.0,0.0,0.0,0.0,0.0,0.0,2.3886,2.4006,2.4123,0.0,2.4376,0.0,0.0,0.0,0.0,0.0,0.0,0.0,0.0,0.0,0.0,0.0,0.0,0.0,0.0,0.0,0.0,0.0,0.0,0.0,0.0,0.0,0.0,0.0,0.0,0.0,0.0,0.0,0.0,0.0,0.0,0.0,0.0,0.0,0.0,0.0,0.0,0.0,0.0,0.0,0.0,0.0,0.0,0.0,0.0,0.0,0.0,0.0,0.0,0.0,0.0,0.0,0.0,0.0,0.0,0.0,0.0,0.0,0.0,0.0,0.0,0.0,0.0,0.0,0.0,0.0,0.0,0.0,0.0,0.0,0.0,0.0,0.0,0.0,0.0,0.0,0.0,0.0,0.0,0.0,0.0,0.0,0.0,0.0,0.0,0.0,0.0,0.0,0.0,0.0,0.0,0.0,0.0,0.0,0.0,0.0,0.0,0.0,0.0,0.0,0.0,0.0,0.0,0.0,0.0,0.0,0.0,0.0,0.0,0.0,0.0,2.3747,2.3886,2.4095,2.4298,0.0,0.0,0.0,0.0,0.0,0.0,0.0,0.0,0.0,0.0,0.0,0.0,0.0,0.0,0.0,0.0,0.0,0.0,0.0,0.0,0.0,0.0,0.0,0.0,0.0,0.0,0.0,0.0,0.0,0.0,0.0,0.0,0.0,0.0,0.0,0.0,0.0,0.0,0.0,0.0,0.0,0.0,0.0,0.0,0.0,0.0,0.0,0.0,0.0,0.0,0.0,0.0,0.0,0.0,0.0,0.0,0.0,0.0,0.0,0.0,0.0,0.0,0.0,0.0,0.0,0.0,0.0,0.0,0.0,0.0,0.0,0.0,0.0,0.0,0.0,0.0,0.0,0.0,0.0,0.0,0.0,0.0,0.0,0.0,0.0,0.0,0.0,0.0,0.0,0.0,0.0,0.0,0.0,0.0,0.0,0.0,0.0,0.0,0.0,0.0,0.0,0.0,0.0,0.0,0.0,0.0,0.0,0.0,0.0,0.0,2.3794,2.3855,2.384,2.4077,2.4312,2.4492,0.0,0.0,0.0,0.0,0.0,0.0,0.0,0.0,0.0,0.0,0.0,0.0,0.0,0.0,0.0,0.0,0.0,0.0,0.0,0.0,0.0,0.0,0.0,0.0,0.0,0.0,0.0,0.0,0.0,0.0,0.0,0.0,0.0,0.0,0.0,0.0,0.0,0.0,0.0,0.0,0.0,0.0,0.0,0.0,0.0,0.0,0.0,0.0,0.0,0.0,0.0,0.0,0.0,0.0,0.0,0.0,0.0,0.0,0.0,0.0,0.0,0.0,0.0,0.0,0.0,0.0,0.0,0.0,0.0,0.0,0.0,0.0,0.0,0.0,0.0,0.0,0.0,0.0,0.0,0.0,0.0,0.0,0.0,0.0,0.0,0.0,0.0,0.0,0.0,0.0,0.0,0.0,0.0,0.0,0.0,0.0,0.0,0.0,0.0,0.0,0.0,0.0,0.0,0.0,0.0,0.0,0.0,0.0,2.3483,2.4141,2.4336,2.3899,2.4096,2.4321,0.0,0.0,0.0,0.0,0.0,0.0,0.0,0.0,0.0,0.0,0.0,0.0,0.0,0.0,0.0,0.0,0.0,0.0,0.0,0.0,0.0,0.0,0.0,0.0,0.0,0.0,0.0,0.0,0.0,0.0,0.0,0.0,0.0,0.0,0.0,0.0,0.0,0.0,0.0,0.0,0.0,0.0,0.0,0.0,0.0,0.0,0.0,0.0,0.0,0.0,0.0,0.0,0.0,0.0,0.0,0.0,0.0,0.0,0.0,0.0,0.0,0.0,0.0,0.0,0.0,0.0,0.0,0.0,0.0,0.0,0.0,0.0,0.0,0.0,0.0,0.0,0.0,0.0,0.0,0.0,0.0,0.0,0.0,0.0,0.0,0.0,0.0,0.0,0.0,0.0,0.0,0.0,0.0,0.0,0.0,0.0,0.0,0.0,0.0,0.0,0.0,0.0,0.0,0.0,0.0,0.0,0.0,0.0,0.0,2.4183,2.3993,2.3864,2.3792,2.4003,2.4266,0.0,0.0,0.0,0.0,0.0,0.0,0.0,0.0,0.0,0.0,0.0,0.0,0.0,0.0,0.0,0.0,0.0,0.0,0.0,0.0,0.0,0.0,0.0,0.0,0.0,0.0,0.0,0.0,0.0,0.0,0.0,0.0,0.0,0.0,0.0,0.0,0.0,0.0,0.0,0.0,0.0,0.0,0.0,0.0,0.0,0.0,0.0,0.0,0.0,0.0,0.0,0.0,0.0,0.0,0.0,0.0,0.0,0.0,0.0,0.0,0.0,0.0,0.0,0.0,0.0,0.0,0.0,0.0,0.0,0.0,0.0,0.0,0.0,0.0,0.0,0.0,0.0,0.0,0.0,0.0,0.0,0.0,0.0,0.0,0.0,0.0,0.0,0.0,0.0,0.0,0.0,0.0,0.0,0.0,0.0,0.0,0.0,0.0,0.0,0.0,0.0,0.0,0.0,0.0,0.0,0.0,0.0,0.0,0.0,2.481,0.0,2.3475,2.3635,2.3925,2.4182,0.0,0.0,0.0,0.0,0.0,0.0,0.0,0.0,0.0,0.0,0.0,0.0,0.0,0.0,0.0,0.0,0.0,0.0,0.0,0.0,0.0,0.0,0.0,0.0,0.0,0.0,0.0,0.0,0.0,0.0,0.0,0.0,0.0,0.0,0.0,0.0,0.0,0.0,0.0,0.0,0.0,0.0,0.0,0.0,0.0,0.0,0.0,0.0,0.0,0.0,0.0,0.0,0.0,0.0,0.0,0.0,0.0,0.0,0.0,0.0,0.0,0.0,0.0,0.0,0.0,0.0,0.0,0.0,0.0,0.0,0.0,0.0,0.0,0.0,0.0,0.0,0.0,0.0,0.0,0.0,0.0,0.0,0.0,0.0,0.0,0.0,0.0,0.0,0.0,0.0,0.0,0.0,0.0,0.0,0.0,0.0,0.0,0.0,0.0,0.0,0.0,0.0,0.0,0.0,0.0,0.0,0.0,0.0,2.628,2.5302,2.3917,2.3295,2.3498,2.3813,2.4125,0.0,0.0,0.0,0.0,0.0,0.0,0.0,0.0,0.0,0.0,0.0,0.0,0.0,0.0,0.0,0.0,0.0,0.0,0.0,0.0,0.0,0.0,0.0,0.0,0.0,0.0,0.0,0.0,0.0,0.0,0.0,0.0,0.0,0.0,0.0,0.0,0.0,0.0,0.0,0.0,0.0,0.0,0.0,0.0,0.0,0.0,0.0,0.0,0.0,0.0,0.0,0.0,0.0,0.0,0.0,0.0,0.0,0.0,0.0,0.0,0.0,0.0,0.0,0.0,0.0,0.0,0.0,0.0,0.0,0.0,0.0,0.0,0.0,0.0,0.0,0.0,0.0,0.0,0.0,0.0,0.0,0.0,0.0,0.0,0.0,0.0,0.0,0.0,0.0,0.0,0.0,0.0,0.0,0.0,0.0,0.0,0.0,0.0,0.0,0.0,0.0,0.0,0.0,0.0,0.0,0.0,0.0,0.0,0.0,2.5282,2.389,2.3229,2.3436,2.3712,2.4004,0.0,0.0,0.0,0.0,0.0,0.0,0.0,0.0,0.0,0.0,0.0,0.0,0.0,0.0,0.0,0.0,0.0,0.0,0.0,0.0,0.0,0.0,0.0,0.0,0.0,0.0,0.0,0.0,0.0,0.0,0.0,0.0,0.0,0.0,0.0,0.0,0.0,0.0,0.0,0.0,0.0,0.0,0.0,0.0,0.0,0.0,0.0,0.0,0.0,0.0,0.0,0.0,0.0,0.0,0.0,0.0,0.0,0.0,0.0,0.0,0.0,0.0,0.0,0.0,0.0,0.0,0.0,0.0,0.0,0.0,0.0,0.0,0.0,0.0,0.0,0.0,0.0,0.0,0.0,0.0,0.0,0.0,0.0,0.0,0.0,0.0,0.0,0.0,0.0,0.0,0.0,0.0,0.0,0.0,0.0,0.0,0.0,0.0,0.0,0.0,0.0,0.0,0.0,0.0,0.0,0.0,0.0,0.0,0.0,2.5295,2.3852,2.3139,2.3313,2.362,2.3909,2.4192,0.0,0.0,0.0,0.0,0.0,0.0,0.0,0.0,0.0,0.0,0.0,0.0,0.0,0.0,0.0,0.0,0.0,0.0,0.0,0.0,0.0,0.0,0.0,0.0,0.0,0.0,0.0,0.0,0.0,0.0,0.0,0.0,0.0,0.0,0.0,0.0,0.0,0.0,0.0,0.0,0.0,0.0,0.0,0.0,0.0,0.0,0.0,0.0,0.0,0.0,0.0,0.0,0.0,0.0,0.0,0.0,0.0,0.0,0.0,0.0,0.0,0.0,0.0,0.0,0.0,0.0,0.0,0.0,0.0,0.0,0.0,0.0,0.0,0.0,0.0,0.0,0.0,0.0,0.0,0.0,0.0,0.0,0.0,0.0,0.0,0.0,0.0,0.0,0.0,0.0,0.0,0.0,0.0,0.0,0.0,0.0,0.0,0.0,0.0,0.0,0.0,0.0,0.0,0.0,0.0,0.0,0.0,0.0,2.5391,2.3834,2.3088,2.3187,2.3524,2.3837,0.0,0.0,0.0,0.0,0.0,0.0,0.0,0.0,0.0,0.0,0.0,0.0,0.0,0.0,0.0,0.0,0.0,0.0,0.0,0.0,0.0,0.0,0.0,0.0,0.0,0.0,0.0,0.0,0.0,0.0,0.0,0.0,0.0,0.0,0.0,0.0,0.0,0.0,0.0,0.0,0.0,0.0,0.0,0.0,0.0,0.0,0.0,0.0,0.0,0.0,0.0,0.0,0.0,0.0,0.0,0.0,0.0,0.0,0.0,0.0,0.0,0.0,0.0,0.0,0.0,0.0,0.0,0.0,0.0,0.0,0.0,0.0,0.0,0.0,0.0,0.0,0.0,0.0,0.0,0.0,0.0,0.0,0.0,0.0,0.0,0.0,0.0,0.0,0.0,0.0,0.0,0.0,0.0,0.0,0.0,0.0,0.0,0.0,0.0,0.0,0.0,0.0,0.0,0.0,0.0,0.0,0.0,0.0,0.0,2.5504,2.4035,2.3217,2.3211,2.3485,2.3746,0.0,0.0,0.0,0.0,0.0,0.0,0.0,0.0,0.0,0.0,0.0,0.0,0.0,0.0,0.0,0.0,0.0,0.0,0.0,0.0,0.0,0.0,0.0,0.0,0.0,0.0,0.0,0.0,0.0,0.0,0.0,0.0,0.0,0.0,0.0,0.0,0.0,0.0,0.0,0.0,0.0,0.0,0.0,0.0,0.0,0.0,0.0,0.0,0.0,0.0,0.0,0.0,0.0,0.0,0.0,0.0,0.0,0.0,0.0,0.0,0.0,0.0,0.0,0.0,0.0,0.0,0.0,0.0,0.0,0.0,0.0,0.0,0.0,0.0,0.0,0.0,0.0,0.0,0.0,0.0,0.0,0.0,0.0,0.0,0.0,0.0,0.0,0.0,0.0,0.0,0.0,0.0,0.0,0.0,0.0,0.0,0.0,0.0,0.0,0.0,0.0,0.0,0.0,0.0,0.0,0.0,0.0,0.0,2.5756,2.5282,2.4029,2.3389,2.3424,2.3563,2.3774,0.0,0.0,0.0,0.0,0.0,0.0,0.0,0.0,0.0,0.0,0.0,0.0,0.0,0.0,0.0,0.0,0.0,0.0,0.0,0.0,0.0,0.0,0.0,0.0,0.0,0.0,0.0,0.0,0.0,0.0,0.0,0.0,0.0,0.0,0.0,0.0,0.0,0.0,0.0,0.0,0.0,0.0,0.0,0.0,0.0,0.0,0.0,0.0,0.0,0.0,0.0,0.0,0.0,0.0,0.0,0.0,0.0,0.0,0.0,0.0,0.0,0.0,0.0,0.0,0.0,0.0,0.0,0.0,0.0,0.0,0.0,0.0,0.0,0.0,0.0,0.0,0.0,0.0,0.0,0.0,0.0,0.0,0.0,0.0,0.0,0.0,0.0,0.0,0.0,0.0,0.0,0.0,0.0,0.0,0.0,0.0,0.0,0.0,0.0,0.0,0.0,0.0,0.0,0.0,0.0,0.0,0.0,0.0,2.5762,2.4966,2.4031,2.3595,2.3716,2.371,2.3842,0.0,0.0,0.0,0.0,0.0,0.0,0.0,0.0,0.0,0.0,0.0,0.0,0.0,0.0,0.0,0.0,0.0,0.0,0.0,0.0,0.0,0.0,0.0,0.0,0.0,0.0,0.0,0.0,0.0,0.0,0.0,0.0,0.0,0.0,0.0,0.0,0.0,0.0,0.0,0.0,0.0,0.0,0.0,0.0,0.0,0.0,0.0,0.0,0.0,0.0,0.0,0.0,0.0,0.0,0.0,0.0,0.0,0.0,0.0,0.0,0.0,0.0,0.0,0.0,0.0,0.0,0.0,0.0,0.0,0.0,0.0,0.0,0.0,0.0,0.0,0.0,0.0,0.0,0.0,0.0,0.0,0.0,0.0,0.0,0.0,0.0,0.0,0.0,0.0,0.0,0.0,0.0,0.0,0.0,0.0,0.0,0.0,0.0,0.0,0.0,0.0,0.0,0.0,0.0,0.0,0.0,0.0,0.0,2.6182,2.5978,2.4505,2.3776,2.3863,2.3847,2.3963,0.0,0.0,0.0,0.0,0.0,0.0,0.0,0.0,0.0,0.0,0.0,0.0,0.0,0.0,0.0,0.0,0.0,0.0,0.0,0.0,0.0,0.0,0.0,0.0,0.0,0.0,0.0,0.0,0.0,0.0,0.0,0.0,0.0,0.0,0.0,0.0,0.0,0.0,0.0,0.0,0.0,0.0,0.0,0.0,0.0,0.0,0.0,0.0,3.413,0.0,0.0,0.0,0.0,0.0,0.0,0.0,0.0,0.0,0.0,0.0,0.0,0.0,0.0,0.0,0.0,0.0,0.0,0.0,0.0,0.0,0.0,0.0,0.0,0.0,0.0,0.0,0.0,0.0,0.0,0.0,0.0,0.0,0.0,0.0,0.0,0.0,0.0,0.0,0.0,0.0,0.0,0.0,0.0,0.0,0.0,0.0,0.0,0.0,0.0,0.0,0.0,0.0,0.0,0.0,0.0,0.0,0.0,0.0,2.602,2.5272,2.4382,2.3955,2.4044,2.408,2.4148,0.0,0.0,0.0,0.0,0.0,0.0,0.0,0.0,0.0,0.0,0.0,0.0,0.0,0.0,0.0,0.0,0.0,0.0,0.0,0.0,0.0,0.0,0.0,0.0,0.0,0.0,0.0,0.0,0.0,0.0,0.0,0.0,0.0,0.0,0.0,0.0,0.0,0.0,0.0,0.0,0.0,0.0,0.0,0.0,0.0,0.0,0.0,0.0,0.0,0.0,0.0,0.0,0.0,0.0,0.0,0.0,0.0,0.0,0.0,0.0,0.0,0.0,0.0,0.0,0.0,0.0,0.0,0.0,0.0,0.0,0.0,0.0,0.0,0.0,0.0,0.0,0.0,0.0,0.0,0.0,0.0,0.0,0.0,0.0,0.0,0.0,0.0,0.0,0.0,0.0,0.0,0.0,0.0,0.0,0.0,0.0,0.0,0.0,0.0,0.0,0.0,0.0,0.0,0.0,0.0,0.0,0.0,2.6669,2.5866,2.4548,2.4197,2.4084,2.4199,2.4275,2.433,2.4348,0.0,0.0,0.0,0.0,0.0,0.0,0.0,0.0,0.0,0.0,0.0,0.0,0.0,0.0,0.0,0.0,0.0,0.0,0.0,0.0,0.0,0.0,0.0,0.0,0.0,0.0,0.0,0.0,0.0,0.0,0.0,0.0,0.0,0.0,0.0,0.0,0.0,0.0,3.1056,3.2496,0.0,0.0,0.0,0.0,0.0,0.0,0.0,0.0,3.5761,0.0,0.0,0.0,0.0,0.0,0.0,0.0,0.0,0.0,0.0,0.0,0.0,0.0,0.0,0.0,0.0,0.0,0.0,0.0,0.0,0.0,0.0,0.0,0.0,0.0,0.0,0.0,0.0,0.0,0.0,0.0,0.0,0.0,0.0,0.0,0.0,0.0,0.0,0.0,0.0,0.0,0.0,0.0,0.0,0.0,0.0,0.0,0.0,0.0,0.0,0.0,0.0,0.0,0.0,0.0,0.0,2.8601,2.7275,2.645,2.6193,2.4862,2.4176,2.421,2.4321,2.4411,2.4461,0.0,0.0,0.0,0.0,0.0,0.0,0.0,0.0,0.0,0.0,0.0,0.0,0.0,0.0,0.0,0.0,0.0,0.0,0.0,0.0,0.0,0.0,0.0,0.0,0.0,0.0,0.0,0.0,0.0,0.0,0.0,0.0,0.0,0.0,0.0,0.0,0.0,0.0,0.0,3.3562,3.4474,0.0,0.0,0.0,0.0,0.0,0.0,0.0,0.0,3.6539,0.0,0.0,0.0,0.0,0.0,0.0,0.0,0.0,0.0,0.0,0.0,0.0,0.0,0.0,0.0,0.0,0.0,0.0,0.0,0.0,0.0,0.0,0.0,0.0,0.0,0.0,0.0,0.0,0.0,0.0,0.0,0.0,0.0,0.0,0.0,0.0,0.0,0.0,0.0,0.0,0.0,0.0,0.0,0.0,0.0,0.0,0.0,0.0,0.0,0.0,0.0,0.0,0.0,0.0,0.0,2.8338,2.7213,2.6405,2.5957,2.4795,2.4223,2.4238,2.4357,2.4467,0.0,0.0,0.0,0.0,0.0,0.0,0.0,0.0,0.0,0.0,0.0,0.0,0.0,0.0,0.0,0.0,0.0,0.0,0.0,0.0,0.0,0.0,0.0,0.0,0.0,0.0,0.0,0.0,0.0,0.0,0.0,0.0,0.0,0.0,0.0,0.0,0.0,0.0,0.0,0.0,3.4454,3.531,3.6105,0.0,0.0,0.0,0.0,0.0,0.0,3.7142,3.7279,0.0,0.0,0.0,0.0,0.0,0.0,0.0,0.0,0.0,0.0,0.0,0.0,0.0,0.0,0.0,0.0,0.0,0.0,0.0,0.0,0.0,0.0,0.0,0.0,0.0,0.0,0.0,0.0,0.0,0.0,0.0,0.0,0.0,0.0,0.0,0.0,0.0,0.0,0.0,0.0,0.0,0.0,0.0,0.0,0.0,0.0,0.0,0.0,0.0,0.0,0.0,0.0,0.0,0.0,0.0,2.8037,2.7084,2.63,2.565,2.469,2.4237,2.4294,2.4347,2.4478,0.0,0.0,0.0,0.0,0.0,0.0,0.0,0.0,0.0,0.0,0.0,0.0,0.0,0.0,0.0,0.0,0.0,0.0,0.0,0.0,0.0,0.0,0.0,0.0,0.0,0.0,0.0,0.0,0.0,0.0,0.0,0.0,0.0,0.0,0.0,0.0,0.0,0.0,0.0,0.0,0.0,3.6329,3.69,3.7268,0.0,0.0,0.0,0.0,3.7721,3.7814,0.0,0.0,0.0,0.0,0.0,0.0,0.0,0.0,0.0,0.0,0.0,0.0,0.0,0.0,0.0,0.0,0.0,0.0,0.0,0.0,0.0,0.0,0.0,0.0,0.0,0.0,0.0,0.0,0.0,0.0,0.0,0.0,0.0,0.0,0.0,0.0,0.0,0.0,0.0,0.0,0.0,0.0,0.0,0.0,0.0,0.0,0.0,0.0,0.0,0.0,0.0,0.0,0.0,0.0,0.0,0.0,2.8827,2.7372,2.6552,2.6405,2.4979,2.4237,2.4289,2.4362,2.4442,0.0,0.0,0.0,0.0,0.0,0.0,0.0,0.0,0.0,0.0,0.0,0.0,0.0,0.0,0.0,0.0,0.0,0.0,0.0,0.0,0.0,0.0,0.0,0.0,0.0,0.0,0.0,0.0,0.0,0.0,0.0,0.0,0.0,0.0,0.0,0.0,0.0,0.0,0.0,0.0,0.0,3.7922,3.7935,3.8658,3.9239,0.0,0.0,3.8333,3.8467,3.854,0.0,0.0,0.0,0.0,0.0,0.0,0.0,0.0,0.0,0.0,0.0,0.0,0.0,0.0,0.0,0.0,0.0,0.0,0.0,0.0,0.0,0.0,0.0,0.0,0.0,0.0,0.0,0.0,0.0,0.0,0.0,0.0,0.0,0.0,0.0,0.0,0.0,0.0,0.0,0.0,0.0,0.0,0.0,0.0,0.0,0.0,0.0,0.0,0.0,0.0,0.0,0.0,0.0,0.0,0.0,2.9145,2.9013,2.7431,2.6607,2.657,2.5034,2.4205,2.4234,2.4298,2.4584,0.0,0.0,0.0,0.0,0.0,0.0,0.0,0.0,0.0,0.0,0.0,0.0,0.0,0.0,0.0,0.0,0.0,0.0,0.0,0.0,0.0,0.0,0.0,0.0,0.0,0.0,0.0,0.0,0.0,0.0,0.0,0.0,0.0,0.0,0.0,0.0,0.0,0.0,0.0,0.0,0.0,0.0,3.9577,4.0377,0.0,0.0,0.0,3.9789,3.9879,0.0,0.0,0.0,0.0,0.0,0.0,0.0,0.0,0.0,0.0,0.0,0.0,0.0,0.0,0.0,0.0,0.0,0.0,0.0,0.0,0.0,0.0,0.0,0.0,0.0,0.0,0.0,0.0,0.0,0.0,0.0,0.0,0.0,0.0,0.0,0.0,0.0,0.0,0.0,0.0,0.0,0.0,0.0,0.0,0.0,0.0,0.0,0.0,0.0,0.0,0.0,0.0,0.0,0.0,0.0,0.0,0.0,2.9399,2.7768,2.6835,2.6602,2.5212,2.4378,2.4201,2.4229,0.0,0.0,0.0,0.0,0.0,0.0,0.0,0.0,0.0,0.0,0.0,0.0,0.0,0.0,0.0,0.0,0.0,0.0,0.0,0.0,0.0,0.0,0.0,0.0,0.0,0.0,0.0,3.3825,0.0,0.0,0.0,0.0,0.0,0.0,0.0,0.0,0.0,0.0,0.0,0.0,0.0,0.0,4.0593,4.1117,4.1713,4.2071,0.0,0.0,4.1168,4.1224,4.0768,4.0503,0.0,0.0,0.0,0.0,0.0,0.0,0.0,0.0,0.0,0.0,0.0,0.0,0.0,0.0,0.0,0.0,0.0,0.0,0.0,0.0,0.0,0.0,0.0,0.0,0.0,0.0,0.0,0.0,0.0,0.0,0.0,0.0,0.0,0.0,0.0,0.0,0.0,0.0,0.0,0.0,0.0,0.0,0.0,0.0,0.0,0.0,0.0,0.0,0.0,0.0,0.0,0.0,0.0,0.0,3.0385,3.0266,2.8657,2.7445,2.6701,2.5726,2.4889,2.4231,2.4151,2.4513,0.0,0.0,0.0,0.0,0.0,0.0,0.0,0.0,0.0,0.0,0.0,0.0,0.0,0.0,0.0,0.0,0.0,0.0,0.0,0.0,0.0,0.0,0.0,0.0,0.0,0.0,0.0,0.0,0.0,0.0,0.0,0.0,0.0,0.0,0.0,0.0,0.0,0.0,0.0,0.0,0.0,4.2291,4.2299,4.2273,4.2288,0.0,0.0,4.2102,4.2121,4.2131,4.2163,4.2302,0.0,0.0,0.0,0.0,0.0,0.0,0.0,0.0,0.0,0.0,0.0,0.0,0.0,0.0,0.0,0.0,0.0,0.0,0.0,0.0,0.0,0.0,0.0,0.0,0.0,0.0,0.0,0.0,0.0,0.0,0.0,0.0,0.0,0.0,0.0,0.0,0.0,0.0,0.0,0.0,0.0,0.0,0.0,0.0,0.0,0.0,0.0,0.0,0.0,0.0,0.0,0.0,0.0,3.0481,3.0441,2.8796,2.7788,2.7395,2.6087,2.5449,2.5612,2.503,2.5324,0.0,0.0,0.0,0.0,0.0,0.0,0.0,0.0,0.0,0.0,0.0,0.0,0.0,0.0,0.0,0.0,0.0,0.0,0.0,0.0,0.0,0.0,0.0,0.0,0.0,0.0,0.0,0.0,3.8874,3.9909,4.1237,0.0,0.0,0.0,0.0,0.0,0.0,0.0,0.0,0.0,0.0,4.3338,4.3316,4.3696,0.0,0.0,4.3409,4.3051,4.3014,4.261,4.2353,4.2486,4.2574,0.0,0.0,0.0,0.0,0.0,0.0,0.0,0.0,0.0,0.0,0.0,0.0,0.0,0.0,0.0,0.0,0.0,0.0,0.0,0.0,0.0,0.0,0.0,0.0,0.0,0.0,0.0,0.0,0.0,0.0,0.0,0.0,0.0,0.0,0.0,0.0,0.0,0.0,0.0,0.0,0.0,0.0,0.0,0.0,0.0,0.0,0.0,0.0,0.0,0.0,0.0,0.0,3.116,3.0913,2.9492,2.8514,2.7983,2.6723,2.6203,2.645,2.5767,2.6033,0.0,0.0,0.0,0.0,0.0,0.0,0.0,0.0,0.0,0.0,0.0,0.0,0.0,0.0,0.0,0.0,0.0,0.0,0.0,0.0,0.0,0.0,0.0,0.0,0.0,0.0,0.0,0.0,4.0719,4.1595,4.3048,0.0,0.0,0.0,0.0,0.0,0.0,0.0,0.0,0.0,0.0,4.4336,4.4358,4.4965,4.5416,4.5371,4.5051,4.4775,4.4732,4.4252,4.3919,4.4024,0.0,0.0,0.0,0.0,0.0,0.0,0.0,0.0,0.0,0.0,0.0,0.0,0.0,0.0,0.0,0.0,0.0,0.0,0.0,0.0,0.0,0.0,0.0,0.0,0.0,0.0,0.0,0.0,0.0,0.0,2.9008,0.0,0.0,0.0,0.0,0.0,0.0,0.0,0.0,0.0,0.0,0.0,0.0,0.0,0.0,0.0,0.0,0.0,0.0,0.0,0.0,0.0,0.0,3.2635,3.1873,3.0979,2.9755,2.8185,2.7794,2.7247,2.6492,2.6197,2.6483,2.7296,0.0,0.0,0.0,0.0,0.0,0.0,0.0,0.0,0.0,0.0,0.0,0.0,0.0,0.0,0.0,0.0,0.0,0.0,0.0,0.0,0.0,0.0,0.0,0.0,0.0,0.0,4.2512,4.2728,4.3082,0.0,0.0,0.0,0.0,0.0,0.0,0.0,0.0,0.0,0.0,4.5362,4.5381,4.5365,4.5997,4.6448,4.6469,4.7033,4.7493,4.7449,4.743,4.753,0.0,0.0,0.0,0.0,0.0,0.0,0.0,0.0,0.0,0.0,0.0,0.0,0.0,0.0,0.0,0.0,0.0,0.0,0.0,0.0,0.0,0.0,0.0,0.0,0.0,0.0,0.0,2.9391,2.956,0.0,0.0,0.0,0.0,0.0,0.0,0.0,0.0,0.0,0.0,0.0,3.3278,3.3319,0.0,0.0,0.0,0.0,0.0,0.0,0.0,0.0,0.0,0.0,0.0,0.0,3.298,3.2728,3.1901,3.0899,2.9725,2.901,2.8431,2.8007,2.7332,2.7302,2.8018,0.0,0.0,0.0,0.0,0.0,0.0,0.0,0.0,0.0,0.0,0.0,0.0,0.0,0.0,0.0,0.0,0.0,0.0,0.0,0.0,0.0,0.0,0.0,0.0,0.0,4.2363,0.0,0.0,0.0,0.0,0.0,0.0,0.0,0.0,0.0,0.0,0.0,4.5405,4.5405,4.5899,4.6253,4.6257,4.6934,4.7403,0.0,0.0,0.0,0.0,0.0,0.0,0.0,0.0,0.0,0.0,0.0,0.0,0.0,0.0,4.7334,4.7308,4.7347,4.7413,4.7456,0.0,0.0,0.0,0.0,0.0,0.0,0.0,0.0,0.0,0.0,0.0,0.0,0.0,0.0,3.1829,0.0,3.2414,0.0,0.0,0.0,0.0,0.0,0.0,0.0,0.0,3.356,3.4069,3.5099,3.511,3.5423,0.0,3.6135,3.5418,0.0,0.0,0.0,0.0,0.0,0.0,0.0,0.0,3.3904,3.364,3.2828,3.1941,3.1021,3.029,2.9865,2.968,2.9015,2.8856,2.9215,2.9723,3.0174,0.0,0.0,0.0,0.0,0.0,0.0,0.0,0.0,0.0,0.0,0.0,0.0,0.0,0.0,0.0,0.0,0.0,0.0,0.0,0.0,0.0,0.0,0.0,4.3843,0.0,0.0,0.0,0.0,0.0,0.0,0.0,0.0,0.0,4.6526,4.6364,4.634,4.634,4.6815,4.7189,4.7194,0.0,0.0,0.0,0.0,0.0,0.0,0.0,4.8631,4.8659,4.8723,4.8772,4.882,4.8946,4.8995,4.9005,0.0,0.0,4.8253,4.8199,4.8282,4.833,4.8392,4.844,4.8502,4.807,4.7624,0.0,0.0,0.0,0.0,0.0,0.0,0.0,0.0,3.3085,3.3506,0.0,3.4623,0.0,0.0,0.0,0.0,0.0,3.6367,0.0,0.0,3.6151,3.6127,3.6153,3.6168,3.6197,3.6197,3.644,3.6537,3.6562,3.6592,0.0,0.0,0.0,0.0,0.0,0.0,3.5432,3.4624,3.3813,3.2916,3.2013,3.1687,3.147,3.1347,3.1109,3.0882,3.0804,3.0864,3.1282,3.2029,3.2233,0.0,0.0,0.0,0.0,0.0,0.0,0.0,0.0,0.0,0.0,0.0,0.0,0.0,0.0,0.0,0.0,0.0,0.0,0.0,0.0,4.4761,0.0,0.0,0.0,0.0,0.0,0.0,0.0,0.0,0.0,0.0,4.8197,4.8101,4.8101,4.8062,0.0,0.0,0.0,0.0,4.933,4.9231,4.9949,5.0481,5.0481,5.0462,5.0462,5.0481,0.0,0.0,5.0573,5.0629,5.0649,5.0693,5.062,5.0186,4.8619,4.8488,4.8566,4.8554,4.8641,4.8614,4.8601,4.871,4.844,3.5353,0.0,0.0,0.0,0.0,3.5295,3.5198,3.4918,3.5246,3.5457,3.5569,3.5934,0.0,0.0,0.0,0.0,0.0,0.0,3.6764,3.6758,3.6701,3.6992,3.7537,3.753,3.7821,3.8385,3.8456,3.8483,3.8503,3.8535,3.7945,3.6744,0.0,0.0,0.0,0.0,3.6569,3.64,3.5499,3.4555,3.3625,3.2834,3.2066,3.1358,3.1147,3.1032,3.0937,3.1455,3.1867,3.2094,3.2719,0.0,0.0,0.0,0.0,0.0,0.0,0.0,0.0,0.0,0.0,0.0,0.0,0.0,0.0,0.0,0.0,0.0,0.0,0.0,4.4739,4.5163,4.5633,0.0,0.0,0.0,0.0,0.0,0.0,0.0,0.0,0.0,4.9938,4.8875,4.8101,0.0,0.0,4.9005,4.9029,4.9701,5.0209,5.0198,5.0378,0.0,5.0505,5.0505,5.0505,5.0505,5.0532,5.0598,5.0653,5.0697,5.0702,5.0692,5.0785,5.0681,5.027,5.019,5.0223,5.0275,5.034,5.0433,5.0419,5.0026,4.9545,3.8021,3.7747,3.7026,3.664,3.6563,3.6865,3.6946,3.6846,3.7248,3.7461,3.7523,3.7607,3.7719,3.7816,3.7934,0.0,0.0,0.0,3.8609,3.8609,3.8911,3.9306,3.9758,3.9746,3.9971,4.0453,4.0453,4.0453,4.0484,4.0516,4.0046,3.9013,0.0,0.0,3.8085,3.7753,3.762,3.7642,3.6716,3.5899,3.5299,3.4604,3.3912,3.3229,3.2826,3.2568,3.251,3.2617,3.269,3.269,3.3205,3.3673,0.0,0.0,0.0,0.0,0.0,0.0,0.0,0.0,0.0,0.0,0.0,4.0129,4.1079,0.0,0.0,0.0,4.424,4.4592,4.5186,4.5334,0.0,0.0,0.0,0.0,0.0,0.0,0.0,5.0635,5.0688,5.0688,5.0668,4.9784,4.9125,4.9144,4.9586,4.9918,4.9918,0.0,5.0638,5.0633,5.0613,5.0593,5.0568,5.0568,5.0573,5.0568,5.0613,5.0648,5.0697,5.0683,5.0822,5.1091,5.1046,5.1002,5.1389,5.1272,5.1076,5.1066,5.1163,5.1235,5.1245,5.0871,5.0476,4.0319,4.0167,3.8288,3.7422,3.7334,3.8056,3.8321,3.8326,3.9181,3.9479,3.9357,3.9469,3.9527,3.9563,3.979,0.0,3.9975,4.0913,4.132,4.1358,4.2033,4.2332,4.2327,4.2268,4.2257,4.2257,4.2257,4.2268,4.2327,4.2332,4.2375,4.2396,4.0703,3.9842,3.9774,3.9091,3.8677,3.8587,3.7613,3.7,3.6782,3.6512,3.6295,3.6091,3.5396,3.4935,3.479,3.4094,3.3685,3.3598,3.3674,3.4081,3.4872,0.0,0.0,0.0,0.0,0.0,0.0,0.0,0.0,0.0,0.0,0.0,0.0,0.0,0.0,0.0,4.5153,0.0,4.5312,4.5351,0.0,0.0,0.0,4.8054,4.8192,4.963,5.0635,5.0688,0.0,0.0,5.0688,5.0688,5.0688,5.0688,5.0688,5.0688,5.0688,5.0668,5.0688,5.0683,5.0688,5.0688,5.0678,5.0697,5.0678,5.0678,5.0688,5.0688,5.0712,5.0822,5.114,5.1818,5.1462,5.1266,5.2144,5.17,5.1208,5.1212,5.1267,5.1304,5.1295,5.1301,5.1105,4.2188,4.2187,4.17,4.1064,4.0347,4.0546,4.0897,4.1342,4.1575,4.1288,4.0657,4.0668,4.0422,3.9997,4.0653,4.0987,4.1139,4.2023,4.2433,4.2433,4.2609,4.268,4.2685,4.267,4.2659,4.264,4.2659,4.2645,4.268,4.268,4.269,4.2671,4.2193,4.1876,4.1703,4.0887,4.0457,4.0387,3.8751,3.7461,3.6609,3.6405,3.6292,3.6256,3.6061,3.5629,3.4917,3.4697,3.4296,3.3667,3.4334,3.4851,3.5048,3.6304,0.0,0.0,0.0,0.0,0.0,0.0,0.0,0.0,0.0,4.2021,4.3057,0.0,4.4588,0.0,4.517,4.5314,4.538,4.5448,0.0,0.0,4.6906,4.7683,4.8952,4.9457,4.9971,5.063,5.0688,5.0688,5.0688,5.0688,5.0688,5.0688,5.0688,5.0688,5.0688,5.0688,5.0688,5.0688,5.0688,5.0688,5.0688,5.0688,5.0688,5.0688,5.0688,5.0688,5.0688,5.1265,5.1808,5.2024,5.2043,5.2082,5.2314,5.1779,5.131,5.1263,5.134,5.1383,5.1387,5.1383,5.1337,4.2939,4.2994,4.2994,4.2877,4.2651,4.2245,4.2263,4.2586,4.2581,4.2302,4.1857,4.1865,4.1637,4.1336,4.1819,4.2054,4.2197,4.3025,4.3431,4.3427,4.3795,4.3972,4.3948,4.3948,4.3948,4.3972,4.3967,4.3967,4.3948,4.3967,4.3948,4.3972,4.3919,4.3833,4.3637,4.2352,4.1642,4.1566,4.0384,3.9408,3.8746,3.863,3.8368,3.8,3.7643,3.704,3.6169,3.579,3.5404,3.4986,3.5473,3.594,3.6343,3.7255,3.8011,0.0,0.0,0.0,0.0,0.0,0.0,0.0,0.0,0.0,0.0,0.0,4.4997,4.5164,4.5309,4.5414,4.5434,4.5504,4.5742,4.6218,4.6645,4.7408,4.8682,4.9163,4.974,5.0611,5.0688,5.0688,5.0688,5.0688,5.0688,5.0688,5.0688,5.0688,5.0688,5.0688,5.0688,5.0688,5.0688,5.0688,5.0688,5.0688,5.0688,5.0688,5.0688,5.0693,5.0697,5.111,5.1579,5.2026,5.1946,5.193,5.2297,5.1823,5.1328,5.1348,5.1374,5.1388,5.1392,5.1399,5.1385,4.3383,4.3412,4.3431,4.384,4.4389,4.3585,4.32,4.3144,4.3139,4.3092,4.2967,4.2862,4.2809,4.2837,4.3004,4.3079,4.3127,4.3985,4.4384,4.4403,4.5098,4.5424,4.5424,4.5443,4.5424,4.5424,4.5424,4.5405,4.541,4.541,4.5424,4.5429,4.5419,4.5385,4.5246,4.3613,4.2595,4.2294,4.1926,4.1663,4.1504,4.1454,4.1009,4.0152,3.9424,3.8648,3.7757,3.7068,3.6665,3.6639,3.6727,3.7131,3.7903,3.8047,3.8492,0.0,3.9363,0.0,0.0,0.0,0.0,0.0,0.0,0.0,0.0,4.4706,4.52,4.5394,4.5472,4.5504,4.5508,4.5568,4.5594,4.5609,4.6278,4.7101,4.8009,4.8779,4.961,5.0596,5.0688,5.0688,5.0688,5.0688,5.0688,5.0688,5.0688,5.0688,5.0688,5.0688,5.0688,5.0688,5.0688,5.0688,5.0688,5.0688,5.0688,5.0688,5.0697,5.0693,5.0692,5.091,5.1273,5.1958,5.1776,5.1643,5.236,5.1857,5.1354,5.139,5.139,5.14,5.1384,5.1386,5.1387,4.5105,4.5128,4.5128,4.5225,4.534,4.5149,4.5042,4.4996,4.4996,4.4599,4.3877,4.3186,4.2907,4.3023,4.3715,4.4029,4.4083,4.4948,4.5352,4.5333,4.5491,4.5568,4.5564,4.5564,4.5564,4.5564,4.5564,4.5564,4.5568,4.5568,4.5544,4.5564,4.5504,4.5438,4.5371,0.0,0.0,0.0,4.1987,4.1768,4.1583,4.1508,4.1056,4.0219,4.0026,0.0,3.7946,3.7711,3.7355,3.6807,3.7436,0.0,0.0,0.0,0.0,0.0,0.0,0.0,0.0,0.0,0.0,0.0,4.233,4.3357,4.494,4.5259,4.5376,4.5467,4.5509,4.5517,4.5573,4.5586,4.5594,4.5614,4.5744,4.6436,4.7889,4.8274,4.8952,5.0495,5.0688,5.0688,5.0688,5.0688,5.0688,5.0688,5.0688,5.0688,5.0688,5.0688,5.0688,5.0688,5.0688,5.0688,5.0688,5.0688,5.0688,5.0693,5.0688,5.0687,5.0749,5.1391,5.1908,5.2221,5.2256,5.2217,5.2453,5.189,5.1379,5.1384,5.1398,5.1384,5.1385,5.1386,5.1387,4.5594,0.0,4.5594,4.5594,0.0,4.5594,4.5596,4.5535,4.5555,4.5311,4.4865,4.4424,4.4249,4.429,4.4747,4.4934,4.4975,4.5398,4.5594,4.5594,4.5594,4.5594,4.5594,4.5594,4.5594,4.5594,4.5594,4.5594,4.5594,4.5594,4.5594,4.5594,4.5568,4.5499,4.5386,4.529,4.4659,4.3498,4.3286,4.3121,4.2998,4.2917,4.2277,4.1065,0.0,0.0,0.0,0.0,0.0,0.0,0.0,0.0,0.0,0.0,0.0,3.99,3.9927,4.0049,4.022,4.0253,4.0853,4.2236,4.35,4.4586,4.5415,4.5448,4.5481,4.555,4.5535,4.5568,4.559,4.5594,4.5594,4.5594,4.5594,4.6263,4.7759,4.8101,4.8779,5.0322,5.0688,5.0688,5.0688,5.0688,5.0688,5.0688,5.0688,5.0688,5.0688,5.0688,5.0688,5.0688,5.0688,5.0688,5.0688,5.0688,5.0702,5.0697,5.0682,5.0729,5.0791,5.1206,5.1595,5.1692,5.1791,5.187,5.1875,5.1606,5.1393,5.1391,5.1401,5.1385,5.1386,5.1387,5.1387,4.5594,4.5594,4.5594,4.5594,4.5594,4.5594,4.5594,4.5594,0.0,0.0,0.0,4.5594,4.5594,4.5594,4.5594,4.5594,4.5594,4.5594,4.5594,4.5594,4.5594,4.5594,4.5594,4.5594,4.5594,4.5594,4.5594,4.5594,4.5594,4.5594,4.5594,4.5594,4.5594,4.5527,4.5405,4.5264,4.5097,4.487,4.4679,4.453,4.4454,4.4394,4.3572,4.1926,4.1912,4.1178,3.9577,3.9605,3.9699,3.976,3.9824,3.9887,3.9935,4.0022,4.0092,4.0133,4.0296,4.0462,4.0652,4.0803,4.1591,4.3235,4.4662,4.5501,4.5535,4.5546,4.5559,4.559,4.5594,4.5594,4.5594,4.5594,4.5594,4.5594,4.5594,4.6263,4.7832,4.8101,4.8759,5.0322,5.0688,5.0688,5.0688,5.0688,5.0688,5.0688,5.0688,5.0688,5.0688,5.0688,5.0688,5.0688,5.0688,5.0693,5.0697,5.0683,5.0702,5.0706,5.0729,5.0758,5.087,5.0925,5.0999,5.1165,5.1163,5.1269,5.133,5.1395,5.1383,5.1397,5.1384,5.1386,5.1387,5.1387,5.1387,4.5594,4.5594,4.5594,4.5594,4.5594,4.5594,4.5594,4.5594,4.5594,4.5594,4.5594,4.5594,4.5594,4.5594,4.5594,4.5594,4.5594,4.5594,4.5594,0.0,4.5594,4.5594,4.5594,4.5594,4.5594,4.5594,4.5594,4.5594,4.5594,4.5594,4.5594,4.5594,4.5594,4.5522,4.54,4.5264,4.5181,4.5142,4.4962,4.4777,4.4666,4.4573,4.3788,4.2253,4.2172,4.1447,3.9992,3.9938,3.9977,4.0041,4.0046,4.0095,4.0158,4.0253,4.0252,4.0314,4.1035,4.1511,4.1615,4.231,4.3181,4.4187,4.4527,4.4951,4.5611,4.5661,4.5648,4.5618,4.5594,4.5594,4.5594,4.5594,4.5594,4.5594,4.5594,4.6263,4.7875,4.8101,4.874,5.0399,5.0688,5.0688,5.0688,5.0688,5.0688,5.0688,5.0688,5.0688,5.0693,5.0688,5.0688,5.0688,5.0688,5.0688,5.0702,5.0692,5.0739,5.0784,5.0848,5.0878,5.0894,5.0997,5.1104,5.1178,5.1251,5.1294,5.1364,5.1393,5.1393,5.1402,5.1386,5.1387,5.1387,5.1387,5.1387,4.5594,4.5594,4.5594,4.5594,4.5594,4.5594,4.5594,4.5594,4.5594,4.5594,4.5594,4.5594,4.5594,4.5594,4.5594,4.5594,4.5594,4.5594,4.5594,4.5594,4.5594,4.5594,4.5594,4.5594,4.5594,4.5594,4.5594,4.5594,4.5594,4.5594,4.5594,4.559,4.5522,4.5452,4.54,4.5295,4.5246,4.5259,4.5043,4.4919,4.4871,4.4789,4.4203,4.303,4.3046,4.254,4.1466,4.1477,4.1528,4.1566,4.1614,4.1633,4.1656,4.1725,4.1784,4.1833,4.2234,4.2526,4.2612,4.3461,4.4133,4.4572,4.5023,4.5381,4.5708,4.5722,4.5693,4.5652,4.5627,4.5594,4.5594,4.5594,4.5594,4.5594,4.5594,4.6109,4.7235,4.787,4.8606,4.9784,5.0418,5.0688,5.0688,5.0688,5.0688,5.0688,5.0688,5.0697,5.0702,5.0688,5.0688,5.0688,5.0688,5.0711,5.0733,5.0788,5.0814,5.0841,5.0914,5.0958,5.1,5.1096,5.1161,5.1249,5.131,5.1355,5.1385,5.1389,5.14,5.1384,5.1386,5.1387,5.1387,5.1387,5.1387,4.5594,4.5594,4.5594,4.5594,4.5594,4.5594,4.5594,4.5594,4.5594,4.5594,4.5594,4.5594,4.5594,4.5594,4.5594,4.5594,4.5594,4.5594,4.5594,4.5594,4.5594,4.5594,4.5594,4.5594,4.5594,4.5594,4.5594,4.5594,4.5594,4.5594,4.5594,4.5581,4.5476,4.5405,4.5419,4.532,4.5307,4.5312,4.517,4.5072,4.5055,4.5016,4.458,4.3867,4.3844,4.3484,4.2749,4.2805,4.2851,4.286,4.2911,4.2944,4.2948,4.2996,4.3058,4.3114,4.3304,4.358,4.3902,4.4555,4.5006,4.4987,4.5566,4.5883,4.5837,4.5758,4.5717,4.5701,4.562,4.5594,4.5594,4.5594,4.5594,4.5594,4.5594,4.5994,4.6793,4.7466,4.8159,4.899,4.9707,5.013,5.0341,5.0423,5.0467,5.0645,5.0683,5.0702,5.0725,5.0743,5.0752,5.0742,5.0742,5.0756,5.0819,5.0873,5.0917,5.0937,5.1,5.1063,5.112,5.1174,5.125,5.1316,5.1375,5.1386,5.1403,5.1397,5.1384,5.1386,5.1386,5.1387,5.1387,5.1387,5.1387,4.5594,4.5594,4.5594,4.5594,4.5594,4.5594,4.5594,4.5594,4.5594,4.5594,4.5594,4.5594,4.5594,4.5594,4.5594,4.5594,4.5594,4.5594,4.5594,4.5594,4.5594,4.5594,4.5594,4.5594,4.5594,4.5594,4.5594,4.5594,4.5594,4.5594,4.5594,4.5581,4.5476,4.541,4.5395,4.5325,4.5328,4.5398,4.5383,4.5328,4.5275,4.5197,4.4799,4.4071,4.4081,4.3719,4.3074,4.2975,4.3015,4.3069,4.3126,4.3111,4.3115,4.3118,4.3123,4.3173,4.3958,4.4815,4.5625,4.5833,4.5858,4.5875,4.5911,4.5959,4.5877,4.584,4.5762,4.5717,4.564,4.5594,4.5594,4.5594,4.5594,4.5594,4.5594,4.5936,4.6658,4.6966,4.7331,4.8125,4.8413,4.862,4.9375,4.9591,4.9918,5.0625,5.0716,5.0758,5.0788,5.0831,5.0811,5.0847,5.0858,5.0858,5.0875,5.094,5.0997,5.1063,5.1122,5.1171,5.1181,5.1228,5.1297,5.1362,5.1385,5.1385,5.1398,5.1385,5.1386,5.1387,5.1387,5.1387,5.1387,5.1387,5.1387,4.5594,4.5594,4.5594,4.5594,4.5594,4.5594,4.5594,4.5594,4.5594,4.5594,4.5594,4.5594,4.5594,4.5594,4.5594,4.5594,4.5594,4.5594,4.5594,4.5594,4.5594,4.5594,4.5594,4.5594,4.5594,4.5594,4.5594,4.5594,4.5594,4.5594,4.5594,4.5586,4.5504,4.5452,4.5448,4.5395,4.537,4.5414,4.5414,4.5395,4.5424,4.5356,4.5173,4.4906,4.4902,4.48,4.452,4.4512,4.4558,4.4571,4.4619,4.4651,4.4632,4.4634,4.4662,4.4711,4.5147,4.5598,4.5964,4.6034,4.6064,4.6048,4.6036,4.5977,4.5909,4.5805,4.5715,4.5699,4.5618,4.5594,4.5594,4.5594,4.5594,4.5594,4.5594,4.5744,4.6071,4.6581,4.7062,4.7389,4.7812,4.8178,4.8625,4.9129,4.9773,5.0513,5.0742,5.0746,5.083,5.091,5.073,5.0386,5.0287,5.0549,5.0878,5.1066,5.1117,5.115,5.1208,5.1236,5.1255,5.1307,5.136,5.1396,5.1389,5.1397,5.1384,5.1386,5.1387,5.1387,5.1387,5.1387,5.1387,5.1387,5.1387,4.5594,4.5594,4.5594,4.5594,4.5594,4.5594,4.5594,4.5594,4.5594,4.5594,4.5594,4.5594,4.5594,4.5594,4.5594,4.5594,4.5594,4.5594,4.5594,4.5594,4.5594,4.5594,4.5594,4.5594,4.5594,4.5594,4.5594,4.5594,4.5594,4.5594,4.5594,4.5586,4.5527,4.5504,4.5499,4.5429,4.541,4.5424,4.5424,4.5452,4.5489,4.5485,4.5448,4.5452,4.5499,4.5522,4.5522,4.5586,4.5631,4.5612,4.5697,4.5706,4.5738,4.5739,4.5764,4.5858,4.5953,4.601,4.6049,4.6087,4.6115,4.6088,4.6065,4.5981,4.5899,4.5789,4.5743,4.57,4.5627,4.5594,4.5594,4.5594,4.5594,4.5594,4.5594,4.5594,4.5671,4.6201,4.6524,4.6601,4.6971,4.7533,4.7835,4.8517,4.9319,4.9839,5.0087,5.0229,5.0247,5.0199,5.0063,4.9556,4.9554,4.9897,5.0601,5.076,5.0918,5.1222,5.1282,5.1318,5.1333,5.1373,5.1385,5.1394,5.1402,5.1385,5.1386,5.1387,5.1387,5.1387,5.1387,5.1387,5.1387,5.1387,5.1387,4.5594,4.5594,4.5594,4.5594,4.5594,4.5594,4.5594,4.5594,4.5594,4.5594,4.5594,4.5594,4.5594,4.5594,4.5594,4.5594,4.5594,4.5594,4.5594,4.5594,4.5594,4.5594,4.5594,4.5594,4.5594,4.5594,4.5594,4.5594,4.5594,4.5594,4.5594,4.559,4.555,4.5504,4.5499,4.5438,4.5434,4.5495,4.548,4.5522,4.5601,4.5581,4.5577,4.5581,4.5586,4.5605,4.5594,4.5652,4.5697,4.5697,4.5703,4.5723,4.5777,4.5801,4.5848,4.5975,4.6019,4.6073,4.6171,4.6181,4.6156,4.6096,4.6083,4.6038,4.5908,4.5823,4.5762,4.5704,4.5646,4.5594,4.5594,4.5594,4.5594,4.5594,4.5594,4.5594,4.5594,4.5686,4.5652,4.5706,4.5887,4.6343,4.6947,4.7726,4.8304,4.8593,4.8601,4.8702,4.8855,4.8827,4.8815,4.8737,4.8803,4.9102,4.975,4.9997,5.0408,5.0703,5.0862,5.1277,5.1366,5.1394,5.138,5.1387,5.1385,5.1386,5.1386,5.1387,5.1387,5.1387,5.1387,5.1387,5.1387,5.1387,5.1387,4.5594,4.5594,4.5594,4.5594,4.5594,4.5594,4.5594,4.5594,4.5594,4.5594,4.5594,4.5594,4.5594,4.5594,4.5594,4.5594,4.5594,4.5594,4.5594,4.5594,4.5594,4.5594,4.5594,4.5594,4.5594,4.5594,4.5594,4.5594,4.5594,4.5594,4.5594,4.559,4.5577,4.5568,4.5564,4.555,4.555,4.5564,4.5549,4.5577,4.559,4.5594,4.5594,4.5594,4.5594,4.5627,4.5652,4.5673,4.5726,4.5758,4.5761,4.5782,4.5863,4.5896,4.5964,4.6061,4.6117,4.6143,4.6185,4.6207,4.6179,4.6115,4.6061,4.6,4.5899,4.5801,4.5712,4.5706,4.5633,4.5594,4.5594,4.5594,4.5594,4.5594,4.5594,4.5594,4.5594,4.5594,4.5594,4.5599,4.564,4.6016,4.6713,4.7283,4.7731,4.8262,4.8464,4.8475,4.8543,4.8601,4.8428,4.8034,4.7954,4.8055,4.8306,4.8925,4.9386,4.9712,4.9998,5.0377,5.0599,5.103,5.113,5.1191,5.1269,5.1328,5.1308,5.1387,5.1387,5.1387,5.1387,5.1387,5.1387,5.1387,5.1387,4.5594,4.5594,4.5594,4.5594,4.5594,4.5594,4.5594,4.5594,4.5594,4.5594,4.5594,4.5594,4.5594,4.5594,4.5594,4.5594,4.5594,4.5594,4.5744,4.6013,4.6009,4.6167,4.6379,4.6417,4.6417,4.636,4.6129,4.6033,4.6033,4.6028,4.6148,4.6417,4.6186,4.6009,4.5994,4.5763,4.5594,4.5594,4.5594,4.5594,4.5594,4.5594,4.5594,4.5594,4.5622,4.5648,4.5682,4.5722,4.5746,4.5787,4.5847,4.5896,4.5965,4.6011,4.6056,4.6123,4.6171,4.6207,4.6207,4.6207,4.6152,4.6075,4.6016,4.5965,4.5867,4.5769,4.5692,4.5686,4.564,4.5594,4.5594,4.5594,4.5594,4.5594,4.5594,4.5594,4.5594,4.5627,4.5625,4.5642,4.5667,4.5992,4.6468,4.6652,4.6964,4.7559,4.7719,4.7787,4.7819,4.7848,4.7765,4.7246,4.7132,4.7128,4.7267,4.7638,4.8536,4.8952,4.9247,4.9605,4.9863,5.0391,5.0781,5.0937,5.1074,5.1152,5.125,5.1348,5.1387,5.1387,5.1387,5.1387,5.1387,5.1387,5.1387,4.5594,4.5599,4.5594,4.5594,4.5594,4.5594,4.5594,4.5594,4.5594,4.5594,4.5594,4.5594,4.5594,4.5594,4.5594,4.5614,4.5729,4.5744,4.6105,4.674,4.687,4.7278,4.7855,4.7832,4.7832,4.7836,4.7235,4.6908,4.6908,4.6908,4.7235,4.7735,4.7201,4.6889,4.6889,4.622,4.5748,4.5821,4.5859,4.5782,4.5614,4.5729,4.5733,4.5699,4.5719,4.5709,4.5694,4.5761,4.58,4.5824,4.5925,4.6041,4.6088,4.6102,4.6143,4.6181,4.6209,4.6207,4.6207,4.6203,4.6111,4.6039,4.5992,4.5925,4.5814,4.575,4.568,4.5673,4.564,4.5594,4.5594,4.5594,4.5594,4.5594,4.5599,4.5603,4.5627,4.5657,4.5717,4.5777,4.5773,4.5746,4.5851,4.6022,4.6199,4.6299,4.6375,4.6465,4.6589,4.6648,4.6363,4.6379,4.6507,4.6613,4.6461,4.6443,4.7439,4.8299,4.8592,4.8906,4.8965,4.9336,4.9805,5.0039,5.0488,5.0625,5.0996,5.1113,5.1367,5.1387,5.1387,5.1387,5.1387,5.1387,5.1387,4.5667,4.5661,4.568,4.564,4.5594,4.5594,4.5594,4.5594,4.5594,4.5594,4.5594,4.5594,4.5594,4.5594,4.5614,4.5936,4.6471,4.6504,4.6658,4.6985,4.7466,4.7875,4.8101,4.812,4.8101,4.8062,4.7851,4.7735,4.7735,4.7735,4.7889,4.8005,4.787,4.7735,4.7716,4.7451,4.7317,4.7336,4.7317,4.7336,4.7264,4.6771,4.6495,4.6446,4.6054,4.5762,4.5769,4.5786,4.5841,4.5947,4.5981,4.6039,4.6137,4.6156,4.6168,4.6204,4.6195,4.6207,4.6181,4.6126,4.6052,4.5989,4.5917,4.5838,4.5787,4.575,4.5686,4.5644,4.5599,4.5594,4.5594,4.5594,4.5671,4.5614,4.5644,4.5738,4.5832,4.5804,4.6051,4.6479,4.618,4.6151,4.6535,4.6481,4.6149,4.6201,4.6222,4.624,4.627,4.6288,4.6286,4.63,4.6305,4.6367,4.6504,4.6601,4.7148,4.7734,4.7988,4.8027,4.8086,4.8476,4.8906,4.9551,4.9961,5.0351,5.0703,5.0996,5.1289,5.1387,5.1387,5.1387,5.1387,5.1387,5.1387,4.5688,4.5683,4.5683,4.5682,4.564,4.5635,4.5627,4.5594,4.5594,4.5594,4.5594,4.5594,4.5594,4.5594,4.5594,4.609,4.687,4.7178,4.7543,4.7836,4.8298,4.8721,4.9009,4.9067,4.8856,4.8606,4.8586,4.8586,4.8586,4.8606,4.874,4.899,4.8759,4.8582,4.8529,4.8259,4.8101,4.8105,4.8105,4.8137,4.8046,4.7658,4.7433,4.7364,4.6966,4.6769,4.6767,4.6776,4.6542,4.6122,4.6039,4.6111,4.6195,4.6193,4.6214,4.6199,4.6168,4.6149,4.613,4.6049,4.5978,4.5932,4.5854,4.5794,4.5773,4.5726,4.5738,4.6041,4.6109,4.6201,4.6475,4.6555,4.6564,4.6564,4.6339,4.6358,4.6572,4.6738,4.6975,4.7384,4.722,4.7274,4.7465,4.7466,4.7044,4.7079,4.6862,4.6708,4.6666,4.6503,4.6437,4.6345,4.6288,4.6484,4.6797,4.6914,4.6992,4.7207,4.7402,4.7246,4.7148,4.7851,4.8418,4.9629,5.0293,5.0762,5.1113,5.1191,5.1387,5.1387,5.1387,5.1387,5.1387,5.1387,5.1387,4.5719,4.5715,4.5715,4.5711,4.5713,4.5705,4.5661,4.5603,4.5599,4.5599,4.5594,4.5594,4.5594,4.5614,4.5725,4.6278,4.7005,4.7851,4.8625,4.9183,4.9514,4.9784,5.0341,5.0361,5.0034,4.9553,4.9476,4.9476,4.9471,4.9471,4.988,5.0341,4.9788,4.9476,4.937,4.8649,4.847,4.8537,4.8477,4.8518,4.8503,4.8377,4.8378,4.8344,4.8214,4.8148,4.8173,4.8192,4.761,4.6354,4.6298,4.6317,4.6224,4.6197,4.6183,4.6183,4.6124,4.6068,4.6012,4.5983,4.5938,4.5822,4.5932,4.585,4.5903,4.6082,4.6365,4.6912,4.698,4.7249,4.7801,4.7948,4.8041,4.815,4.7492,4.7441,4.8194,4.8268,4.8283,4.8472,4.8551,4.8563,4.8662,4.8613,4.853,4.8451,4.7978,4.7662,4.7518,4.7236,4.6677,4.666,4.6933,4.7148,4.7637,4.7676,4.7773,4.7812,4.7832,4.7578,4.7246,4.7832,4.8242,4.9453,5.0527,5.1016,5.1269,5.123,5.1328,5.1387,5.1387,5.1387,5.1387,5.1387,5.1387,4.586,4.5852,4.5789,4.5772,4.5773,4.5723,4.5683,4.5665,4.5684,4.5629,4.5599,4.5594,4.5614,4.5671,4.6297,4.7009,4.7832,4.8644,4.9514,5.0265,5.0361,5.0438,5.0668,5.0688,5.0572,5.0322,5.0265,5.0341,5.0361,5.0289,5.0462,5.0673,5.0476,5.0336,5.0302,5.0084,5.0087,5.0106,5.0081,5.0055,4.9972,4.9547,4.9328,4.9274,4.8811,4.8573,4.8558,4.8554,4.8122,4.7171,4.705,4.6746,4.6305,4.6243,4.6249,4.6194,4.6132,4.6046,4.6003,4.5983,4.5883,4.5865,4.638,4.6593,4.6617,4.7141,4.7526,4.7843,4.7856,4.7989,4.8227,4.8349,4.8611,4.9092,4.857,4.8228,4.8493,4.8527,4.8766,4.9325,4.9041,4.9117,4.9389,4.9242,4.8952,4.888,4.8684,4.8481,4.8409,4.8237,4.7773,4.8086,4.832,4.8379,4.8496,4.8535,4.8574,4.8613,4.8633,4.8633,4.8437,4.8594,4.8789,4.9199,5.0254,5.0918,5.0937,5.0918,5.1094,5.1387,5.1387,5.1387,5.1387,5.1387,5.1387,4.5932,4.5941,4.5899,4.5854,4.5791,4.5746,4.5743,4.5695,4.5687,4.5686,4.5648,4.564,4.5838,4.6206,4.6678,4.7562,4.8625,4.9163,4.9856,5.0572,5.0668,5.0668,5.0688,5.0688,5.0688,5.0688,5.0688,5.0668,5.0673,5.0688,5.0697,5.0712,5.073,5.0761,5.0764,5.0825,5.0836,5.0814,5.0869,5.0885,5.0831,5.0519,5.0328,5.0223,4.9804,4.9621,4.9663,4.9667,4.9152,4.8213,4.7886,4.7665,4.7225,4.7118,4.695,4.6701,4.6837,4.6896,4.6584,4.6669,4.6823,4.6882,4.7259,4.7392,4.7499,4.792,4.8222,4.869,4.8733,4.8971,4.9321,4.9424,4.9698,5.0128,4.9844,4.9581,4.9621,4.9767,4.9963,5.0218,5.0131,4.9942,5.054,5.0107,4.9947,4.9862,4.9656,4.9506,4.9412,4.9179,4.9004,4.9121,4.916,4.9101,4.9297,4.9414,4.9648,4.9687,4.9668,4.9648,4.9473,4.9453,4.9668,4.9883,5.0391,5.0723,5.0859,5.0996,5.1191,5.1387,5.1387,5.1387,5.1387,5.1387,5.1387,4.6016,4.6014,4.6028,4.5937,4.5841,4.5801,4.5782,4.5731,4.5704,4.5715,4.5733,4.5797,4.6249,4.6898,4.7259,4.8005,4.9356,4.9548,5.0034,5.0515,5.0688,5.0688,5.0688,5.0688,5.0688,5.0688,5.0693,5.0683,5.0697,5.0706,5.071,5.0752,5.0793,5.084,5.0901,5.0917,5.0909,5.0937,5.097,5.0984,5.1011,5.0945,5.0924,5.0894,5.0871,5.08,5.0869,5.0866,5.0338,4.8917,4.876,4.8605,4.8541,4.8475,4.813,4.7633,4.7814,4.7859,4.7468,4.7778,4.8136,4.8062,4.818,4.8341,4.8392,4.8609,4.9039,4.9622,4.9656,5.0011,5.0511,5.0865,5.0853,5.0939,5.103,5.1159,5.1234,5.1269,5.1296,5.1315,5.1256,5.1335,5.1373,5.1386,5.1316,5.0674,5.0503,5.0369,5.0234,5.0019,4.9785,4.9629,4.9648,4.9648,4.9961,5.0312,5.0625,5.084,5.0801,5.0723,5.0371,5.041,5.0723,5.0976,5.0996,5.1074,5.1211,5.1328,5.1387,5.1387,5.1387,5.1387,5.1387,5.1387,5.1387,4.6085,4.6078,4.6081,4.6041,4.5964,4.5955,4.5893,4.5782,4.5782,4.5781,4.5873,4.6345,4.6744,4.7034,4.8177,4.9125,4.9529,5.0053,5.0572,5.063,5.0688,5.0688,5.0688,5.0693,5.0693,5.0697,5.0688,5.0706,5.072,5.0761,5.0801,5.0859,5.0881,5.0914,5.0981,5.1035,5.1069,5.1076,5.1088,5.1075,5.1101,5.1141,5.1147,5.1101,5.1095,5.1085,5.1079,5.1085,5.0874,5.04,4.9834,4.9282,4.882,4.8599,4.8437,4.8312,4.8287,4.8292,4.814,4.8267,4.8316,4.8489,4.8947,4.9236,4.9284,4.9858,5.0277,5.0604,5.0658,5.075,5.0988,5.1122,5.1141,5.1186,5.1228,5.1289,5.1339,5.1331,5.1334,5.1358,5.1374,5.1385,5.1393,5.1399,5.1383,5.1365,5.1269,5.1152,5.0957,5.0762,5.0566,5.0312,5.0391,5.043,5.0547,5.084,5.1016,5.1269,5.1348,5.1387,5.1055,5.0957,5.1133,5.125,5.1328,5.1387,5.1387,5.1387,5.1387,5.1387,5.1387,5.1387,5.1387,5.1387,5.1387,4.6146,4.6153,4.6144,4.6111,4.6035,4.6013,4.596,4.5899,4.586,4.6051,4.6395,4.6806,4.7362,4.813,4.8994,4.9572,5.0034,5.0438,5.0688,5.0688,5.0688,5.0683,5.0683,5.0683,5.0683,5.0688,5.0682,5.072,5.0788,5.0836,5.0893,5.0948,5.0966,5.1043,5.1065,5.1136,5.1167,5.1196,5.1203,5.1203,5.1208,5.1225,5.1227,5.115,5.1116,5.1088,5.1089,5.1055,5.0994,5.0832,5.0511,5.012,4.9695,4.9517,4.9343,4.9006,4.9334,4.9174,4.9056,4.923,4.9509,4.9451,4.9931,5.0068,5.0212,5.0681,5.0909,5.0984,5.1007,5.1053,5.1139,5.1201,5.1228,5.1257,5.1288,5.1357,5.1394,5.1368,5.1365,5.1385,5.1395,5.1398,5.1402,5.1385,5.1387,5.1387,5.1387,5.1269,5.1269,5.1113,5.1191,5.1094,5.1191,5.125,5.125,5.1289,5.125,5.1348,5.1367,5.1387,5.1269,5.1269,5.1367,5.1387,5.1387,5.1387,5.1387,5.1387,5.1387,5.1387,5.1387,5.1387,5.1387,5.1387,5.1387,4.6203,4.621,4.6213,4.6165,4.6104,4.6066,4.6024,4.5975,4.5947,4.6326,4.7038,4.7129,4.8052,4.9222,4.9596,5.0072,5.0495,5.0654,5.0693,5.0688,5.0688,5.0697,5.0706,5.0739,5.0752,5.0729,5.0747,5.081,5.0873,5.091,5.0984,5.1027,5.1082,5.1147,5.1191,5.121,5.1248,5.1298,5.1302,5.1304,5.13,5.1288,5.1256,5.1202,5.1136,5.1088,5.1075,5.1046,5.0971,5.0908,5.0899,5.0859,5.0829,5.0763,5.0546,4.9747,5.0257,5.0222,4.9933,5.027,5.0673,5.0819,5.1055,5.1014,5.0979,5.111,5.1221,5.1142,5.1139,5.1149,5.1212,5.1271,5.1309,5.1327,5.1368,5.1403,5.1389,5.1386,5.1391,5.1397,5.1402,5.1385,5.1386,5.1387,5.1387,5.1387,5.1387,5.1387,5.1387,5.1387,5.1387,5.1387,5.1387,5.1387,5.1387,5.1387,5.1387,5.1387,5.1387,5.1387,5.1387,5.1387,5.1387,5.1387,5.1387,5.1387,5.1387,5.1387,5.1387,5.1387,5.1387,5.1387,5.1387,5.1387,5.1387,4.63,4.6298,4.6226,4.6201,4.6171,4.6181,4.6113,4.6002,4.6039,4.6453,4.7215,4.7824,4.861,4.9485,5.024,5.0577,5.0668,5.0693,5.0693,5.0697,5.0711,5.0743,5.0769,5.0831,5.0857,5.0881,5.0878,5.0917,5.0978,5.1039,5.1094,5.1145,5.1168,5.1215,5.1283,5.13,5.1331,5.1351,5.1372,5.1372,5.1366,5.1328,5.1275,5.1211,5.1159,5.1117,5.1095,5.1046,5.0968,5.0912,5.0904,5.0863,5.0823,5.081,5.0694,5.0589,5.0651,5.066,5.0544,5.0757,5.0913,5.1064,5.1666,5.1738,5.1558,5.1774,5.1938,5.1541,5.1391,5.1316,5.1297,5.1387,5.137,5.1382,5.139,5.1397,5.1401,5.1402,5.1401,5.1384,5.1386,5.1387,5.1387,5.1387,5.1387,5.1387,5.1387,5.1387,5.1387,5.1387,5.1387,5.1387,5.1387,5.1387,5.1387,5.1387,5.1387,5.1387,5.1387,5.1387,5.1387,5.1387,5.1387,5.1387,5.1387,5.1387,5.1387,5.1387,5.1387,5.1387,5.1387,5.1387,5.1387,5.1387,5.1387,4.6298,4.6293,4.6268,4.6256,4.6255,4.6209,4.6133,4.6138,4.6503,4.712,4.7908,4.8667,4.9407,5.0085,5.0481,5.0688,5.0693,5.0697,5.0697,5.0701,5.0766,5.0819,5.085,5.0929,5.0978,5.1006,5.1047,5.104,5.106,5.1119,5.1188,5.1241,5.1249,5.1289,5.1343,5.1338,5.1404,5.1431,5.1453,5.145,5.1443,5.1422,5.136,5.1269,5.1227,5.1127,5.1098,5.1078,5.1028,5.0983,5.0968,5.0925,5.0924,5.092,5.0912,5.0889,5.0883,5.0865,5.1001,5.1266,5.1719,5.1791,5.2579,5.2902,5.2736,5.2921,5.2952,5.2631,5.2107,5.2019,5.2051,5.1714,5.1431,5.1398,5.144,5.1462,5.1426,5.1445,5.1484,5.1523,5.1465,5.1465,5.1387,5.1387,5.1387,5.1387,5.1387,5.1387,5.1387,5.1387,5.1387,5.1387,5.1387,5.1387,5.1387,5.1387,5.1387,5.1387,5.1387,5.1387,5.1387,5.1387,5.1387,5.1387,5.1387,5.1387,5.1387,5.1387,5.1387,5.1387,5.1387,5.1387,5.1387,5.1387,5.1387,4.6447,4.6306,4.6304,4.6297,4.6323,4.6423,4.6445,4.6528,4.7242,4.8005,4.878,4.9351,5.0005,5.061,5.0711,5.0693,5.0683,5.0687,5.0715,5.0769,5.0836,5.0917,5.0948,5.0986,5.1063,5.1113,5.1177,5.1198,5.1133,5.1189,5.1258,5.1303,5.1316,5.1495,5.1651,5.1795,5.1687,5.1904,5.1926,5.1923,5.193,5.1929,5.1894,5.1817,5.1757,5.1808,5.1864,5.1855,5.1822,5.1769,5.1677,5.1589,5.1501,5.1523,5.1501,5.1397,5.1285,5.1204,5.1435,5.2143,5.2669,5.2711,5.3571,5.3862,5.376,5.3666,5.3805,5.3788,5.3407,5.2947,5.2877,5.2394,5.2085,5.2049,5.2069,5.1973,5.2129,5.2148,5.207,5.1973,5.1719,5.1601,5.1582,5.1387,5.1387,5.1387,5.1387,5.1387,5.1387,5.1387,5.1387,5.1387,5.1387,5.1387,5.1387,5.1387,5.1387,5.1387,5.1387,5.1387,5.1387,5.1387,5.1387,5.1387,5.1387,5.1387,5.1387,5.1387,5.1387,5.1387,5.1387,5.1387,5.1387,5.1387,5.1387,4.6998,4.6319,4.6333,4.6288,4.6472,4.7071,4.7304,4.7367,4.8113,4.8899,4.9543,4.9676,5.0098,5.0625,5.0716,5.0697,5.0702,5.072,5.0773,5.085,5.0898,5.0989,5.1069,5.1072,5.1131,5.124,5.1313,5.1258,5.1356,5.1404,5.1385,5.1475,5.1681,5.1791,5.2508,5.255,5.2941,5.3489,5.3587,5.3563,5.3551,5.3523,5.35,5.3467,5.3411,5.3318,5.3181,5.3144,5.3179,5.3188,5.3275,5.333,5.3369,5.3369,5.3379,5.3149,5.2751,5.223,5.2363,5.308,5.3643,5.3791,5.4489,5.4525,5.4417,5.425,5.4255,5.3973,5.3877,5.3859,5.3844,5.3689,5.3651,5.3516,5.3301,5.3379,5.3457,5.2969,5.2871,5.2715,5.2558,5.2109,5.1855,5.1601,5.1387,5.1387,5.1406,5.1406,5.1387,5.1387,5.1387,5.1387,5.1387,5.1387,5.1387,5.1387,5.1387,5.1387,5.1387,5.1387,5.1387,5.1387,5.1387,5.1387,5.1387,5.1387,5.1387,5.1387,5.1387,5.1387,5.1387,5.1387,5.1387,5.1387,5.1387,4.8568,4.7786,4.7783,4.7778,4.7808,4.8112,4.8191,4.832,4.8981,4.9507,4.9853,5.0217,5.0516,5.071,5.0688,5.0697,5.0715,5.0778,5.0841,5.091,5.0972,5.1066,5.1136,5.1193,5.1241,5.1433,5.1787,5.2143,5.2083,5.2088,5.2109,5.2183,5.2584,5.3058,5.3414,5.3435,5.3631,5.3865,5.3962,5.3979,5.3993,5.4002,5.4007,5.3989,5.3958,5.395,5.3948,5.3866,5.3835,5.3763,5.3746,5.3746,5.3738,5.3727,5.3735,5.3816,5.3998,5.3726,5.3422,5.4127,5.445,5.479,5.5352,5.5751,5.5478,5.5373,5.5401,5.5483,5.5015,5.4782,5.4589,5.4277,5.4062,5.4023,5.4258,5.4199,5.418,5.4004,5.3711,5.3555,5.3379,5.2969,5.248,5.2031,5.1836,5.1758,5.168,5.1601,5.1504,5.1387,5.1387,5.1387,5.1387,5.1387,5.1387,5.1387,5.1387,5.1387,5.1387,5.1387,5.1387,5.1387,5.1387,5.1387,5.1387,5.1387,5.1387,5.1387,5.1387,5.1387,5.1387,5.1387,5.1387,5.1387,5.1426,5.0114,4.9505,4.9093,4.8895,4.8907,4.9032,4.9089,4.9122,4.9851,5.0178,5.0257,5.0627,5.0793,5.0721,5.072,5.0738,5.0745,5.0858,5.0925,5.0976,5.1059,5.1156,5.1213,5.1267,5.1424,5.1645,5.226,5.2726,5.3045,5.3223,5.3324,5.3075,5.3452,5.4002,5.4257,5.4355,5.4473,5.4844,5.4863,5.4823,5.4782,5.4774,5.4747,5.4696,5.46,5.4536,5.453,5.4612,5.4609,5.4602,5.4643,5.4719,5.4691,5.4736,5.4732,5.4868,5.5138,5.516,5.4911,5.5142,5.5456,5.5728,5.6001,5.6388,5.6455,5.6615,5.6597,5.6385,5.5995,5.5683,5.5508,5.5039,5.5,5.4922,5.4883,5.4726,5.4648,5.4765,5.4668,5.4414,5.4238,5.4043,5.3476,5.2715,5.2344,5.2187,5.2031,5.1914,5.1816,5.1758,5.1621,5.166,5.1465,5.1445,5.1426,5.1426,5.1406,5.1387,5.1387,5.1387,5.1387,5.1387,5.1387,5.1387,5.1387,5.1387,5.1387,5.1387,5.1387,5.1387,5.1387,5.1387,5.1387,5.1426,5.166,5.1286,5.1105,4.9582,4.8953,4.8965,4.9696,4.9981,4.9978,5.0678,5.093,5.084,5.0921,5.0829,5.0752,5.0775,5.0816,5.0886,5.0898,5.0976,5.1066,5.1156,5.1237,5.131,5.1473,5.1777,5.2405,5.2988,5.3447,5.3922,5.4644,5.445,5.408,5.4374,5.4648,5.4961,5.5234,5.5527,5.5879,5.6035,5.6113,5.6151,5.6188,5.6185,5.622,5.627,5.63,5.6289,5.6101,5.5986,5.5957,5.5908,5.5909,5.5805,5.5849,5.5844,5.5958,5.6047,5.6072,5.6018,5.6033,5.6295,5.6424,5.6513,5.6597,5.6618,5.662,5.6621,5.6621,5.6348,5.6367,5.6387,5.6387,5.5996,5.5898,5.5742,5.5781,5.5781,5.5937,5.5801,5.5371,5.5117,5.4961,5.4805,5.4121,5.334,5.3144,5.3047,5.293,5.2715,5.2578,5.2187,5.1992,5.166,5.1523,5.1484,5.1445,5.1406,5.1387,5.1387,5.1387,5.1387,5.1387,5.1406,5.1387,5.1387,5.1387,5.1387,5.1387,5.1387,5.1387,5.1406,5.1484,5.1621,5.1758,5.2129,5.0931,5.132,5.0692,5.0412,5.0402,5.0717,5.0809,5.081,5.1009,5.1049,5.0976,5.092,5.0846,5.0801,5.0825,5.0905,5.0967,5.1004,5.1081,5.115,5.1244,5.13,5.1462,5.1901,5.237,5.2933,5.3664,5.4371,5.4842,5.5605,5.5859,5.5664,5.543,5.5762,5.6055,5.6015,5.6289,5.6445,5.6621,5.6621,5.6621,5.662,5.6618,5.6597,5.6573,5.6549,5.6526,5.6543,5.6532,5.6522,5.6502,5.6498,5.6496,5.65,5.6528,5.6556,5.6563,5.6568,5.6553,5.655,5.6569,5.6575,5.658,5.6621,5.6621,5.6621,5.6621,5.6621,5.6621,5.6621,5.6582,5.6582,5.6484,5.6582,5.6621,5.6621,5.6621,5.6621,5.6523,5.5918,5.5957,5.5996,5.584,5.5644,5.4844,5.416,5.4062,5.3926,5.3672,5.3457,5.3105,5.2715,5.2402,5.2226,5.2187,5.1855,5.1484,5.1523,5.1601,5.1699,5.1816,5.1406,5.1406,5.1406,5.1465,5.1543,5.1543,5.1426,5.1406,5.1426,5.1543,5.166,5.1836,5.2148,5.2715,5.0612,5.1354,5.1388,5.14,5.1386,5.1331,5.1306,5.1249,5.1142,5.1039,5.094,5.0948,5.0917,5.0889,5.0925,5.0981,5.104,5.109,5.1158,5.1236,5.1306,5.1507,5.1908,5.2397,5.2957,5.3569,5.447,5.5292,5.5702,5.6328,5.6406,5.6465,5.6601,5.6543,5.6543,5.6621,5.6621,5.6621,5.6621,5.6621,5.6621,5.6621,5.662,5.662,5.6599,5.6597,5.6595,5.6593,5.6571,5.6547,5.6545,5.6526,5.6526,5.6528,5.6551,5.6593,5.6615,5.6617,5.6619,5.6619,5.6618,5.66,5.6601,5.6621,5.6621,5.6621,5.6621,5.6621,5.6621,5.6621,5.6621,5.6621,5.6621,5.6621,5.6621,5.6621,5.6621,5.6621,5.6621,5.6426,5.6504,5.6465,5.6387,5.6172,5.5859,5.5293,5.5312,5.5019,5.4512,5.4297,5.4101,5.3711,5.334,5.3183,5.3047,5.2812,5.2637,5.2695,5.2695,5.2539,5.2461,5.2031,5.1797,5.1973,5.1992,5.1836,5.1973,5.2266,5.1914,5.1484,5.1758,5.2168,5.2734,5.3125,5.3574,5.0556,5.1355,5.1394,5.1388,5.1392,5.1346,5.1257,5.1211,5.1125,5.1063,5.1012,5.1053,5.1053,5.1007,5.1043,5.1091,5.1111,5.1166,5.1224,5.1292,5.1585,5.1947,5.2437,5.2959,5.3766,5.492,5.5488,5.5898,5.6445,5.6543,5.6601,5.6621,5.6621,5.6621,5.6621,5.6621,5.6621,5.6621,5.6621,5.6621,5.6621,5.6621,5.6621,5.6621,5.6621,5.6621,5.6619,5.6619,5.6598,5.6595,5.6594,5.6574,5.6594,5.6594,5.6596,5.6599,5.6619,5.662,5.6621,5.6621,5.6621,5.6621,5.6621,5.6621,5.6621,5.6621,5.6621,5.6621,5.6621,5.6621,5.6621,5.6621,5.6621,5.6621,5.6621,5.6621,5.6621,5.6621,5.6621,5.6621,5.6621,5.6601,5.6601,5.6562,5.6543,5.6426,5.6523,5.6152,5.543,5.5215,5.5058,5.4765,5.4375,5.4082,5.3945,5.3867,5.3789,5.3848,5.3672,5.3359,5.3183,5.2949,5.2773,5.2695,5.2676,5.2676,5.2969,5.3301,5.2949,5.2656,5.2558,5.291,5.3535,5.4082,5.4473,4.9751,5.0591,5.1156,5.1375,5.133,5.1304,5.1248,5.1201,5.1133,5.1076,5.1069,5.1095,5.1089,5.1091,5.112,5.1166,5.1179,5.1243,5.1305,5.1407,5.1875,5.2323,5.2901,5.3805,5.4647,5.5293,5.5781,5.6191,5.6582,5.6621,5.6621,5.6621,5.6621,5.6621,5.6621,5.6621,5.6621,5.6621,5.6621,5.6621,5.6621,5.6621,5.6621,5.6621,5.6621,5.6621,5.6621,5.6621,5.6621,5.6621,5.6621,5.6621,5.6621,5.6621,5.6621,5.6621,5.6621,5.6621,5.6621,5.6621,5.6621,5.664,5.6621,5.6621,5.6621,5.6621,5.6621,5.6621,5.6621,5.6621,5.6621,5.6621,5.6621,5.6621,5.6621,5.6621,5.6621,5.6621,5.6621,5.6621,5.6621,5.6621,5.6621,5.6621,5.6621,5.6621,5.6621,5.6621,5.6074,5.6113,5.6055,5.5801,5.5449,5.5078,5.4844,5.4707,5.4492,5.4375,5.4141,5.3808,5.3691,5.3808,5.3672,5.3555,5.3555,5.3594,5.3926,5.418,5.416,5.4004,5.3906,5.3984,5.4551,5.498,5.5254,4.9286,5.0129,5.1,5.1335,5.131,5.1295,5.1266,5.12,5.1153,5.1132,5.1138,5.1153,5.1173,5.1183,5.1205,5.1222,5.1228,5.1304,5.135,5.1517,5.2287,5.2803,5.3571,5.455,5.5293,5.5781,5.6211,5.6621,5.6621,5.6621,5.6621,5.6621,5.6621,5.6621,5.6621,5.6621,5.6621,5.6621,5.6621,5.6621,5.6621,5.6621,5.6621,5.6621,5.6621,5.6621,5.6621,5.6621,5.6621,5.6621,5.6621,5.6621,5.6621,5.6621,5.6621,5.6621,5.6933,5.7012,5.7109,5.7558,5.7558,5.7168,5.6836,5.6621,5.6621,5.6621,5.6621,5.6621,5.668,5.6875,5.7031,5.7012,5.707,5.707,5.709,5.7109,5.6738,5.6758,5.6699,5.668,5.6621,5.6621,5.6621,5.6621,5.6621,5.6621,5.6621,5.666,5.6699,5.6621,5.6621,5.6367,5.6211,5.5879,5.5605,5.5488,5.5254,5.4941,5.4785,5.4648,5.4746,5.4922,5.4668,5.4433,5.4453,5.4551,5.4863,5.5058,5.5156,5.5234,5.5234,5.541,5.5703,5.582,5.5937,4.9214,5.0065,5.0945,5.1284,5.1302,5.1271,5.1232,5.1208,5.1214,5.1189,5.1214,5.1261,5.128,5.1278,5.1296,5.1301,5.1298,5.1364,5.138,5.1724,5.2493,5.3161,5.4003,5.4941,5.5762,5.6328,5.6621,5.6621,5.6621,5.6621,5.6621,5.6621,5.6621,5.6621,5.6621,5.6621,5.6621,5.6621,5.6621,5.6621,5.6621,5.6621,5.6621,5.6621,5.6621,5.6621,5.6621,5.6621,5.6621,5.6621,5.6621,5.6621,5.6621,5.6621,5.6621,5.6894,5.75,5.7832,5.8027,5.8555,5.8515,5.7949,5.7344,5.6914,5.6816,5.7031,5.7265,5.7226,5.7285,5.7558,5.7773,5.7851,5.7949,5.7949,5.7949,5.7637,5.709,5.6933,5.6855,5.6777,5.668,5.664,5.6621,5.6621,5.6855,5.6992,5.709,5.7265,5.7187,5.668,5.666,5.6601,5.6504,5.6543,5.6348,5.6074,5.6015,5.5703,5.5937,5.5898,5.5996,5.584,5.5566,5.5332,5.5332,5.5469,5.5683,5.5976,5.6289,5.6308,5.6074,5.6094,5.6152,5.6269,5.6387,4.9106,4.9925,5.0797,5.115,5.1172,5.1145,5.1181,5.1202,5.1217,5.1219,5.1201,5.1272,5.132,5.13,5.1364,5.1358,5.1373,5.1385,5.1396,5.189,5.281,5.3554,5.4433,5.5371,5.6191,5.6504,5.6621,5.6621,5.6621,5.6621,5.6621,5.6621,5.6621,5.6621,5.6621,5.6621,5.6621,5.6621,5.6621,5.6621,5.6621,5.6621,5.6621,5.6621,5.6621,5.6621,5.6621,5.6621,5.6621,5.6621,5.6621,5.6621,5.6621,5.664,5.6738,5.7558,5.8262,5.8828,5.8887,5.9082,5.9121,5.8965,5.8574,5.8086,5.793,5.7969,5.8262,5.8125,5.8086,5.8379,5.8652,5.8769,5.8808,5.8808,5.8789,5.8515,5.8008,5.7676,5.7598,5.7461,5.7324,5.709,5.7031,5.6953,5.7207,5.7402,5.7598,5.7812,5.7793,5.7344,5.6914,5.6875,5.6797,5.6836,5.666,5.6387,5.6484,5.6543,5.6621,5.6621,5.6426,5.6269,5.623,5.6152,5.5996,5.6133,5.6387,5.666,5.6894,5.6699,5.6484,5.6562,5.664,5.6797,5.6836,4.8987,4.9799,5.0671,5.103,5.1013,5.1044,5.1088,5.1134,5.1184,5.1205,5.1215,5.1298,5.1351,5.1348,5.1384,5.1382,5.1387,5.1397,5.1403,5.1815,5.3183,5.3711,5.459,5.5644,5.6406,5.6621,5.6621,5.6621,5.6621,5.6621,5.6621,5.6621,5.6621,5.6621,5.6621,5.6621,5.6621,5.6621,5.6621,5.6621,5.6621,5.6621,5.6621,5.6621,5.6621,5.6621,5.6621,5.6621,5.664,5.6621,5.6621,5.6816,5.709,5.7441,5.7734,5.8535,5.918,5.959,5.9746,6.0098,5.998,5.9863,5.9941,5.9707,5.918,5.8984,5.9023,5.8965,5.9101,5.9258,5.9492,5.9687,5.9668,5.9668,5.959,5.9512,5.9101,5.8672,5.8496,5.8379,5.8164,5.789,5.7715,5.7598,5.7715,5.8164,5.8437,5.8555,5.8574,5.834,5.7773,5.7422,5.7246,5.7129,5.6933,5.6797,5.6719,5.6699,5.6621,5.6621,5.6621,5.664,5.6562,5.6543,5.6523,5.6699,5.6875,5.7109,5.7265,5.7148,5.7324,5.7676,5.7695,5.748,5.7441,4.8953,4.978,5.0557,5.0909,5.0898,5.0952,5.0998,5.1,5.112,5.1177,5.1218,5.1319,5.1388,5.138,5.1395,5.1392,5.1397,5.1383,5.1405,5.1523,5.3183,5.3965,5.4492,5.5683,5.6465,5.6621,5.6621,5.6621,5.6621,5.6621,5.6621,5.6621,5.6621,5.6699,5.6894,5.6914,5.7051,5.7344,5.7207,5.709,5.6699,5.6621,5.6621,5.6621,5.6621,5.6621,5.664,5.666,5.6719,5.6719,5.6973,5.7363,5.7969,5.873,5.9101,5.9492,6.0078,6.041,6.0644,6.0976,6.0957,6.0976,6.1191,6.0937,6.041,6.0039,6.0,6.0,6.0098,6.0215,6.043,6.0508,6.0527,6.0527,6.0488,6.0351,6.0098,5.9609,5.916,5.9004,5.875,5.8535,5.8535,5.8437,5.8594,5.9062,5.9297,5.9355,5.9531,5.9414,5.8808,5.8223,5.8008,5.7832,5.75,5.7305,5.6973,5.6836,5.6797,5.6855,5.7051,5.6992,5.6875,5.7187,5.7558,5.7246,5.7305,5.7676,5.8027,5.8086,5.8359,5.8906,5.8867,5.8457,5.8242,4.9618,5.0374,5.0637,5.0793,5.0808,5.084,5.0885,5.0941,5.1011,5.1108,5.119,5.1277,5.1345,5.14,5.1401,5.1396,5.1399,5.1385,5.1386,5.1953,5.3203,5.3965,5.4336,5.5723,5.6484,5.6621,5.6621,5.6621,5.6621,5.6621,5.6621,5.6621,5.664,5.6797,5.7422,5.7461,5.7676,5.8164,5.8223,5.7676,5.6973,5.6699,5.6621,5.668,5.6719,5.6816,5.6953,5.7305,5.7461,5.7617,5.8281,5.8652,5.8906,5.9687,6.0058,6.0273,6.084,6.1152,6.1328,6.1504,6.1445,6.1465,6.1543,6.1523,6.1367,6.1191,6.1055,6.1015,6.1055,6.1152,6.123,6.1269,6.1308,6.1308,6.1308,6.1152,6.0996,6.0469,5.9883,5.9629,5.9375,5.9336,5.9375,5.9453,5.957,5.9785,6.0019,6.0254,6.0762,6.0781,6.0019,5.9433,5.8984,5.8711,5.8301,5.7969,5.7695,5.7402,5.7305,5.7383,5.7519,5.7754,5.7969,5.8418,5.8652,5.8242,5.8144,5.8633,5.8906,5.8945,5.9238,5.9726,5.9785,5.9492,5.9258,4.9806,5.0527,5.061,5.0669,5.0702,5.0743,5.0773,5.0825,5.0921,5.1018,5.111,5.1212,5.1301,5.1369,5.1376,5.1395,5.1398,5.1385,5.1386,5.1914,5.2988,5.3769,5.4707,5.5723,5.6328,5.6621,5.6621,5.6621,5.6621,5.6621,5.6621,5.6621,5.666,5.7031,5.7793,5.7969,5.8359,5.9101,5.9277,5.8691,5.7754,5.7715,5.7754,5.7754,5.7734,5.7695,5.7851,5.8262,5.8359,5.8672,5.9238,5.959,5.9902,6.0527,6.0918,6.1094,6.1387,6.1699,6.1699,6.1699,6.1699,6.1699,6.1699,6.1621,6.1621,6.1445,6.1445,6.1406,6.1406,6.1504,6.1504,6.1543,6.1543,6.1543,6.1543,6.1465,6.1387,6.1152,6.0859,6.0762,6.0605,6.0605,6.0625,6.0644,6.0762,6.0781,6.0957,6.0898,6.1445,6.1699,6.1035,6.0527,6.0019,5.9433,5.8887,5.8672,5.8535,5.8223,5.7949,5.8183,5.8457,5.8808,5.916,5.9316,5.9316,5.9062,5.9101,5.9531,5.9707,5.9746,6.0078,6.0488,6.0469,6.0469,6.0371,4.9767,5.0451,5.0532,5.0582,5.0613,5.0659,5.0692,5.0724,5.0825,5.0929,5.0988,5.112,5.1233,5.1292,5.1375,5.138,5.1395,5.1402,5.1385,5.1875,5.3203,5.3789,5.4609,5.5664,5.6308,5.6621,5.6621,5.6621,5.6621,5.6621,5.6621,5.6621,5.6797,5.709,5.7773,5.8203,5.8672,5.957,5.9863,5.9707,5.9473,5.9297,5.9043,5.9082,5.9199,5.9199,5.918,5.9297,5.9316,5.9668,6.0078,6.043,6.0683,6.1152,6.1387,6.1582,6.1582,6.1699,6.1699,6.1699,6.1699,6.1699,6.1699,6.1699,6.1699,6.1699,6.1699,6.1699,6.1699,6.1699,6.1699,6.1699,6.1699,6.1699,6.1699,6.1699,6.168,6.166,6.1621,6.1582,6.1562,6.1562,6.1582,6.1621,6.166,6.1699,6.1699,6.1699,6.1699,6.1699,6.1406,6.1133,6.0859,6.0234,5.9726,5.9414,5.9336,5.914,5.8926,5.916,5.9433,5.9844,6.0019,5.9844,5.9785,5.9883,6.0,6.0332,6.0449,6.0508,6.0762,6.1055,6.1172,6.1211,6.1426,5.0084,5.0337,5.0348,5.0451,5.0588,5.0623,5.0659,5.0692,5.0743,5.0804,5.0917,5.1,5.1106,5.1208,5.134,5.1389,5.138,5.1394,5.1402,5.1678,5.3241,5.3789,5.4531,5.5801,5.6426,5.6621,5.6621,5.6621,5.6621,5.6621,5.6621,5.6621,5.6621,5.7344,5.873,5.9082,5.9453,6.0371,6.0937,6.0937,6.0605,6.0176,5.9297,5.9199,5.9199,5.9199,5.9336,5.9863,6.0078,6.041,6.0859,6.123,6.1406,6.1504,6.166,6.1699,6.1699,6.1699,6.1699,6.1699,6.1699,6.1699,6.1699,6.1699,6.1699,6.1699,6.1699,6.1699,6.1699,6.1699,6.1699,6.1699,6.1699,6.1699,6.1699,6.1699,6.1699,6.1699,6.168,6.166,6.166,6.166,6.166,6.168,6.168,6.1699,6.1699,6.1699,6.1699,6.1699,6.1699,6.1582,6.1445,6.1543,6.123,6.039,6.0137,5.9961,5.9863,5.998,6.0312,6.0937,6.1015,6.0703,6.0879,6.1094,6.123,6.0976,6.1152,6.123,6.1406,6.1601,6.1699,6.1716,6.1714]}]]